Wetterdaten: Freitag, 08.01.2021
Datum Zeit Temp. 2m Temp +5 cm Feuchte A. Luftdruck Regen Wind Richtung Richtung Sonnenschein UV Solar Taupunkt Windchill Windben
08.01.2021 00:00 -1,1 C -1,1 C 94 % 1014,7 hPa 0,0 l/m 6,4 km/h (2 Bft) SW 225 0 min 0,0 UV-I 0 W/m -1,9 C -1,1 C 8,0 km/h (2 Bft)
08.01.2021 00:01 -1,1 C -1,1 C 94 % 1014,6 hPa 0,0 l/m 9,7 km/h (2 Bft) S-SW 202 0 min 0,0 UV-I 0 W/m -1,9 C -4,4 C 16,1 km/h (3 Bft)
08.01.2021 00:02 -1,1 C -1,1 C 94 % 1014,7 hPa 0,0 l/m 8,0 km/h (2 Bft) SW 225 0 min 0,0 UV-I 0 W/m -1,9 C -2,8 C 19,3 km/h (3 Bft)
08.01.2021 00:03 -1,1 C -1,1 C 94 % 1014,7 hPa 0,0 l/m 9,7 km/h (2 Bft) SW 225 0 min 0,0 UV-I 0 W/m -1,9 C -4,4 C 12,9 km/h (3 Bft)
08.01.2021 00:04 -1,1 C -1,1 C 94 % 1014,6 hPa 0,0 l/m 6,4 km/h (2 Bft) SW 225 0 min 0,0 UV-I 0 W/m -1,9 C -1,1 C 8,0 km/h (2 Bft)
08.01.2021 00:05 -1,1 C -1,1 C 94 % 1014,6 hPa 0,0 l/m 8,0 km/h (2 Bft) SW 225 0 min 0,0 UV-I 0 W/m -1,9 C -2,8 C 12,9 km/h (3 Bft)
08.01.2021 00:06 -1,1 C -1,1 C 94 % 1014,6 hPa 0,0 l/m 9,7 km/h (2 Bft) SW 225 0 min 0,0 UV-I 0 W/m -1,9 C -4,4 C 12,9 km/h (3 Bft)
08.01.2021 00:07 -1,1 C -1,1 C 94 % 1014,6 hPa 0,0 l/m 8,0 km/h (2 Bft) SW 225 0 min 0,0 UV-I 0 W/m -1,9 C -2,8 C 14,5 km/h (3 Bft)
08.01.2021 00:08 -1,1 C -1,1 C 94 % 1014,7 hPa 0,0 l/m 4,8 km/h (1 Bft) SW 225 0 min 0,0 UV-I 0 W/m -1,9 C -1,1 C 8,0 km/h (2 Bft)
08.01.2021 00:09 -1,1 C -1,1 C 94 % 1014,6 hPa 0,0 l/m 11,3 km/h (2 Bft) SW 225 0 min 0,0 UV-I 0 W/m -1,9 C -5,7 C 14,5 km/h (3 Bft)
08.01.2021 00:10 -1,1 C -1,1 C 94 % 1014,7 hPa 0,0 l/m 9,7 km/h (2 Bft) SW 225 0 min 0,0 UV-I 0 W/m -1,9 C -4,4 C 12,9 km/h (3 Bft)
08.01.2021 00:11 -1,1 C -1,1 C 94 % 1014,7 hPa 0,0 l/m 8,0 km/h (2 Bft) SW 225 0 min 0,0 UV-I 0 W/m -1,9 C -2,8 C 12,9 km/h (3 Bft)
08.01.2021 00:12 -1,1 C -1,1 C 94 % 1014,6 hPa 0,0 l/m 11,3 km/h (2 Bft) SW 225 0 min 0,0 UV-I 0 W/m -1,9 C -5,7 C 12,9 km/h (3 Bft)
08.01.2021 00:13 -1,1 C -1,1 C 94 % 1014,7 hPa 0,0 l/m 9,7 km/h (2 Bft) SW 225 0 min 0,0 UV-I 0 W/m -1,9 C -4,4 C 12,9 km/h (3 Bft)
08.01.2021 00:14 -1,1 C -1,1 C 94 % 1014,6 hPa 0,0 l/m 8,0 km/h (2 Bft) SW 225 0 min 0,0 UV-I 0 W/m -1,9 C -2,8 C 11,3 km/h (2 Bft)
08.01.2021 00:15 -1,1 C -1,1 C 94 % 1014,6 hPa 0,0 l/m 9,7 km/h (2 Bft) W-SW 247 0 min 0,0 UV-I 0 W/m -1,9 C -4,4 C 17,7 km/h (3 Bft)
08.01.2021 00:16 -1,1 C -1,1 C 94 % 1014,6 hPa 0,0 l/m 11,3 km/h (2 Bft) SW 225 0 min 0,0 UV-I 0 W/m -1,9 C -5,7 C 17,7 km/h (3 Bft)
08.01.2021 00:17 -1,1 C -1,1 C 94 % 1014,6 hPa 0,0 l/m 8,0 km/h (2 Bft) SW 225 0 min 0,0 UV-I 0 W/m -1,9 C -2,8 C 12,9 km/h (3 Bft)
08.01.2021 00:18 -1,1 C -1,1 C 94 % 1014,7 hPa 0,0 l/m 8,0 km/h (2 Bft) SW 225 0 min 0,0 UV-I 0 W/m -1,9 C -2,8 C 11,3 km/h (2 Bft)
08.01.2021 00:19 -1,1 C -1,1 C 94 % 1014,7 hPa 0,0 l/m 9,7 km/h (2 Bft) S-SW 202 0 min 0,0 UV-I 0 W/m -1,9 C -4,4 C 14,5 km/h (3 Bft)
08.01.2021 00:20 -1,1 C -1,1 C 94 % 1014,7 hPa 0,0 l/m 8,0 km/h (2 Bft) W-SW 247 0 min 0,0 UV-I 0 W/m -1,9 C -2,8 C 14,5 km/h (3 Bft)
08.01.2021 00:21 -1,1 C -1,1 C 94 % 1014,8 hPa 0,0 l/m 8,0 km/h (2 Bft) SW 225 0 min 0,0 UV-I 0 W/m -1,9 C -2,8 C 9,7 km/h (2 Bft)
08.01.2021 00:22 -1,1 C -1,1 C 94 % 1014,7 hPa 0,0 l/m 8,0 km/h (2 Bft) W-SW 247 0 min 0,0 UV-I 0 W/m -1,9 C -2,8 C 11,3 km/h (2 Bft)
08.01.2021 00:23 -1,1 C -1,1 C 94 % 1014,7 hPa 0,0 l/m 6,4 km/h (2 Bft) SW 225 0 min 0,0 UV-I 0 W/m -1,9 C -1,1 C 9,7 km/h (2 Bft)
08.01.2021 00:24 -1,1 C -1,1 C 94 % 1014,7 hPa 0,0 l/m 8,0 km/h (2 Bft) SW 225 0 min 0,0 UV-I 0 W/m -1,9 C -2,8 C 12,9 km/h (3 Bft)
08.01.2021 00:25 -1,1 C -1,1 C 94 % 1014,7 hPa 0,0 l/m 4,8 km/h (1 Bft) SW 225 0 min 0,0 UV-I 0 W/m -1,9 C -1,1 C 11,3 km/h (2 Bft)
08.01.2021 00:26 -1,1 C -1,1 C 94 % 1014,7 hPa 0,0 l/m 8,0 km/h (2 Bft) S-SW 202 0 min 0,0 UV-I 0 W/m -1,9 C -2,8 C 14,5 km/h (3 Bft)
08.01.2021 00:27 -1,1 C -1,1 C 94 % 1014,7 hPa 0,0 l/m 8,0 km/h (2 Bft) SW 225 0 min 0,0 UV-I 0 W/m -1,9 C -2,8 C 14,5 km/h (3 Bft)
08.01.2021 00:28 -1,1 C -1,1 C 94 % 1014,6 hPa 0,0 l/m 9,7 km/h (2 Bft) SW 225 0 min 0,0 UV-I 0 W/m -1,9 C -4,4 C 17,7 km/h (3 Bft)
08.01.2021 00:29 -1,1 C -1,1 C 94 % 1014,7 hPa 0,0 l/m 11,3 km/h (2 Bft) SW 225 0 min 0,0 UV-I 0 W/m -1,9 C -5,7 C 16,1 km/h (3 Bft)
08.01.2021 00:30 -1,1 C -1,1 C 94 % 1014,6 hPa 0,0 l/m 8,0 km/h (2 Bft) SW 225 0 min 0,0 UV-I 0 W/m -1,9 C -2,8 C 14,5 km/h (3 Bft)
08.01.2021 00:31 -1,1 C -1,1 C 94 % 1014,6 hPa 0,0 l/m 9,7 km/h (2 Bft) S-SW 202 0 min 0,0 UV-I 0 W/m -1,9 C -4,4 C 12,9 km/h (3 Bft)
08.01.2021 00:32 -1,1 C -1,1 C 94 % 1014,7 hPa 0,0 l/m 9,7 km/h (2 Bft) SW 225 0 min 0,0 UV-I 0 W/m -1,9 C -4,4 C 14,5 km/h (3 Bft)
08.01.2021 00:33 -1,1 C -1,1 C 94 % 1014,7 hPa 0,0 l/m 9,7 km/h (2 Bft) SW 225 0 min 0,0 UV-I 0 W/m -1,9 C -4,4 C 16,1 km/h (3 Bft)
08.01.2021 00:34 -1,1 C -1,1 C 94 % 1014,6 hPa 0,0 l/m 9,7 km/h (2 Bft) SW 225 0 min 0,0 UV-I 0 W/m -1,9 C -4,4 C 14,5 km/h (3 Bft)
08.01.2021 00:35 -1,1 C -1,1 C 94 % 1014,6 hPa 0,0 l/m 6,4 km/h (2 Bft) SW 225 0 min 0,0 UV-I 0 W/m -1,9 C -1,1 C 9,7 km/h (2 Bft)
08.01.2021 00:36 -1,1 C -1,1 C 94 % 1014,6 hPa 0,0 l/m 9,7 km/h (2 Bft) SW 225 0 min 0,0 UV-I 0 W/m -1,9 C -4,4 C 19,3 km/h (3 Bft)
08.01.2021 00:37 -1,1 C -1,1 C 94 % 1014,5 hPa 0,0 l/m 8,0 km/h (2 Bft) S-SW 202 0 min 0,0 UV-I 0 W/m -1,9 C -2,8 C 14,5 km/h (3 Bft)
08.01.2021 00:38 -1,1 C -1,1 C 94 % 1014,6 hPa 0,0 l/m 9,7 km/h (2 Bft) S-SW 202 0 min 0,0 UV-I 0 W/m -1,9 C -4,4 C 16,1 km/h (3 Bft)
08.01.2021 00:39 -1,1 C -1,1 C 94 % 1014,6 hPa 0,0 l/m 8,0 km/h (2 Bft) SW 225 0 min 0,0 UV-I 0 W/m -1,9 C -2,8 C 11,3 km/h (2 Bft)
08.01.2021 00:40 -1,1 C -1,1 C 94 % 1014,6 hPa 0,0 l/m 9,7 km/h (2 Bft) SW 225 0 min 0,0 UV-I 0 W/m -1,9 C -4,4 C 14,5 km/h (3 Bft)
08.01.2021 00:41 -1,1 C -1,1 C 94 % 1014,5 hPa 0,0 l/m 8,0 km/h (2 Bft) SW 225 0 min 0,0 UV-I 0 W/m -1,9 C -2,8 C 12,9 km/h (3 Bft)
08.01.2021 00:42 -1,1 C -1,1 C 94 % 1014,6 hPa 0,0 l/m 6,4 km/h (2 Bft) SW 225 0 min 0,0 UV-I 0 W/m -1,9 C -1,1 C 14,5 km/h (3 Bft)
08.01.2021 00:43 -1,1 C -1,1 C 94 % 1014,6 hPa 0,0 l/m 8,0 km/h (2 Bft) SW 225 0 min 0,0 UV-I 0 W/m -1,9 C -2,8 C 14,5 km/h (3 Bft)
08.01.2021 00:44 -1,1 C -1,1 C 94 % 1014,5 hPa 0,0 l/m 8,0 km/h (2 Bft) SW 225 0 min 0,0 UV-I 0 W/m -1,9 C -2,8 C 11,3 km/h (2 Bft)
08.01.2021 00:45 -1,1 C -1,1 C 94 % 1014,5 hPa 0,0 l/m 9,7 km/h (2 Bft) S-SW 202 0 min 0,0 UV-I 0 W/m -1,9 C -4,4 C 12,9 km/h (3 Bft)
08.01.2021 00:46 -1,1 C -1,1 C 94 % 1014,6 hPa 0,0 l/m 9,7 km/h (2 Bft) SW 225 0 min 0,0 UV-I 0 W/m -1,9 C -4,4 C 12,9 km/h (3 Bft)
08.01.2021 00:47 -1,1 C -1,1 C 94 % 1014,5 hPa 0,0 l/m 6,4 km/h (2 Bft) SW 225 0 min 0,0 UV-I 0 W/m -1,9 C -1,1 C 9,7 km/h (2 Bft)
08.01.2021 00:48 -1,1 C -1,1 C 94 % 1014,6 hPa 0,0 l/m 8,0 km/h (2 Bft) S-SW 202 0 min 0,0 UV-I 0 W/m -1,9 C -2,8 C 9,7 km/h (2 Bft)
08.01.2021 00:49 -1,1 C -1,1 C 94 % 1014,5 hPa 0,0 l/m 9,7 km/h (2 Bft) S-SW 202 0 min 0,0 UV-I 0 W/m -1,9 C -4,4 C 11,3 km/h (2 Bft)
08.01.2021 00:50 -1,1 C -1,1 C 94 % 1014,5 hPa 0,0 l/m 9,7 km/h (2 Bft) S-SW 202 0 min 0,0 UV-I 0 W/m -1,9 C -4,4 C 11,3 km/h (2 Bft)
08.01.2021 00:51 -1,1 C -1,1 C 94 % 1014,6 hPa 0,0 l/m 9,7 km/h (2 Bft) SW 225 0 min 0,0 UV-I 0 W/m -1,9 C -4,4 C 12,9 km/h (3 Bft)
08.01.2021 00:52 -1,1 C -1,1 C 94 % 1014,5 hPa 0,0 l/m 8,0 km/h (2 Bft) SW 225 0 min 0,0 UV-I 0 W/m -1,9 C -2,8 C 9,7 km/h (2 Bft)
08.01.2021 00:53 -1,1 C -1,1 C 94 % 1014,5 hPa 0,0 l/m 8,0 km/h (2 Bft) SW 225 0 min 0,0 UV-I 0 W/m -1,9 C -2,8 C 11,3 km/h (2 Bft)
08.01.2021 00:54 -1,1 C -1,1 C 94 % 1014,5 hPa 0,0 l/m 6,4 km/h (2 Bft) SW 225 0 min 0,0 UV-I 0 W/m -1,9 C -1,1 C 11,3 km/h (2 Bft)
08.01.2021 00:55 -1,1 C -1,1 C 94 % 1014,5 hPa 0,0 l/m 6,4 km/h (2 Bft) S-SW 202 0 min 0,0 UV-I 0 W/m -1,9 C -1,1 C 11,3 km/h (2 Bft)
08.01.2021 00:56 -1,1 C -1,1 C 94 % 1014,5 hPa 0,0 l/m 9,7 km/h (2 Bft) S-SW 202 0 min 0,0 UV-I 0 W/m -1,9 C -4,4 C 12,9 km/h (3 Bft)
08.01.2021 00:57 -1,1 C -1,1 C 94 % 1014,5 hPa 0,0 l/m 9,7 km/h (2 Bft) S-SW 202 0 min 0,0 UV-I 0 W/m -1,9 C -4,4 C 12,9 km/h (3 Bft)
08.01.2021 00:58 -1,1 C -1,1 C 94 % 1014,4 hPa 0,0 l/m 9,7 km/h (2 Bft) SW 225 0 min 0,0 UV-I 0 W/m -1,9 C -4,4 C 12,9 km/h (3 Bft)
08.01.2021 00:59 -1,1 C -1,1 C 94 % 1014,4 hPa 0,0 l/m 6,4 km/h (2 Bft) S-SW 202 0 min 0,0 UV-I 0 W/m -1,9 C -1,1 C 9,7 km/h (2 Bft)
08.01.2021 01:00 -1,1 C -1,1 C 94 % 1014,5 hPa 0,0 l/m 8,0 km/h (2 Bft) SW 225 0 min 0,0 UV-I 0 W/m -1,9 C -2,8 C 12,9 km/h (3 Bft)
08.01.2021 01:01 -1,1 C -1,1 C 94 % 1014,4 hPa 0,0 l/m 9,7 km/h (2 Bft) SW 225 0 min 0,0 UV-I 0 W/m -1,9 C -4,4 C 12,9 km/h (3 Bft)
08.01.2021 01:02 -1,1 C -1,1 C 94 % 1014,5 hPa 0,0 l/m 9,7 km/h (2 Bft) S-SW 202 0 min 0,0 UV-I 0 W/m -1,9 C -4,4 C 11,3 km/h (2 Bft)
08.01.2021 01:03 -1,1 C -1,1 C 94 % 1014,4 hPa 0,0 l/m 8,0 km/h (2 Bft) SW 225 0 min 0,0 UV-I 0 W/m -1,9 C -2,8 C 9,7 km/h (2 Bft)
08.01.2021 01:04 -1,1 C -1,1 C 94 % 1014,3 hPa 0,0 l/m 9,7 km/h (2 Bft) S-SW 202 0 min 0,0 UV-I 0 W/m -1,9 C -4,4 C 12,9 km/h (3 Bft)
08.01.2021 01:05 -1,1 C -1,1 C 94 % 1014,5 hPa 0,0 l/m 8,0 km/h (2 Bft) S-SW 202 0 min 0,0 UV-I 0 W/m -1,9 C -2,8 C 11,3 km/h (2 Bft)
08.01.2021 01:06 -1,1 C -1,1 C 94 % 1014,3 hPa 0,0 l/m 8,0 km/h (2 Bft) SW 225 0 min 0,0 UV-I 0 W/m -1,9 C -2,8 C 9,7 km/h (2 Bft)
08.01.2021 01:07 -1,1 C -1,1 C 94 % 1014,3 hPa 0,0 l/m 8,0 km/h (2 Bft) SW 225 0 min 0,0 UV-I 0 W/m -1,9 C -2,8 C 9,7 km/h (2 Bft)
08.01.2021 01:08 -1,1 C -1,1 C 94 % 1014,3 hPa 0,0 l/m 9,7 km/h (2 Bft) S-SW 202 0 min 0,0 UV-I 0 W/m -1,9 C -4,4 C 14,5 km/h (3 Bft)
08.01.2021 01:09 -1,2 C -1,1 C 94 % 1014,3 hPa 0,0 l/m 9,7 km/h (2 Bft) SW 225 0 min 0,0 UV-I 0 W/m -2,0 C -4,5 C 14,5 km/h (3 Bft)
08.01.2021 01:10 -1,1 C -1,1 C 94 % 1014,3 hPa 0,0 l/m 8,0 km/h (2 Bft) SW 225 0 min 0,0 UV-I 0 W/m -1,9 C -2,8 C 12,9 km/h (3 Bft)
08.01.2021 01:11 -1,2 C -1,1 C 94 % 1014,2 hPa 0,0 l/m 6,4 km/h (2 Bft) SW 225 0 min 0,0 UV-I 0 W/m -2,0 C -1,2 C 11,3 km/h (2 Bft)
08.01.2021 01:12 -1,1 C -1,1 C 94 % 1014,3 hPa 0,0 l/m 9,7 km/h (2 Bft) SW 225 0 min 0,0 UV-I 0 W/m -1,9 C -4,4 C 12,9 km/h (3 Bft)
08.01.2021 01:13 -1,1 C -1,1 C 94 % 1014,3 hPa 0,0 l/m 4,8 km/h (1 Bft) SW 225 0 min 0,0 UV-I 0 W/m -1,9 C -1,1 C 8,0 km/h (2 Bft)
08.01.2021 01:14 -1,1 C -1,1 C 94 % 1014,3 hPa 0,0 l/m 6,4 km/h (2 Bft) S-SW 202 0 min 0,0 UV-I 0 W/m -1,9 C -1,1 C 8,0 km/h (2 Bft)
08.01.2021 01:15 -1,1 C -1,1 C 94 % 1014,2 hPa 0,0 l/m 9,7 km/h (2 Bft) S-SW 202 0 min 0,0 UV-I 0 W/m -1,9 C -4,4 C 11,3 km/h (2 Bft)
08.01.2021 01:16 -1,1 C -1,1 C 94 % 1014,2 hPa 0,0 l/m 8,0 km/h (2 Bft) S-SW 202 0 min 0,0 UV-I 0 W/m -1,9 C -2,8 C 11,3 km/h (2 Bft)
08.01.2021 01:17 -1,1 C -1,1 C 94 % 1014,2 hPa 0,0 l/m 9,7 km/h (2 Bft) S-SW 202 0 min 0,0 UV-I 0 W/m -1,9 C -4,4 C 14,5 km/h (3 Bft)
08.01.2021 01:18 -1,1 C -1,1 C 94 % 1014,3 hPa 0,0 l/m 8,0 km/h (2 Bft) SW 225 0 min 0,0 UV-I 0 W/m -1,9 C -2,8 C 12,9 km/h (3 Bft)
08.01.2021 01:19 -1,1 C -1,1 C 94 % 1014,2 hPa 0,0 l/m 8,0 km/h (2 Bft) SW 225 0 min 0,0 UV-I 0 W/m -1,9 C -2,8 C 11,3 km/h (2 Bft)
08.01.2021 01:20 -1,1 C -1,1 C 94 % 1014,2 hPa 0,0 l/m 8,0 km/h (2 Bft) SW 225 0 min 0,0 UV-I 0 W/m -1,9 C -2,8 C 11,3 km/h (2 Bft)
08.01.2021 01:21 -1,1 C -1,1 C 94 % 1014,2 hPa 0,0 l/m 8,0 km/h (2 Bft) SW 225 0 min 0,0 UV-I 0 W/m -1,9 C -2,8 C 11,3 km/h (2 Bft)
08.01.2021 01:22 -1,1 C -1,1 C 94 % 1014,3 hPa 0,0 l/m 9,7 km/h (2 Bft) SW 225 0 min 0,0 UV-I 0 W/m -1,9 C -4,4 C 14,5 km/h (3 Bft)
08.01.2021 01:23 -1,1 C -1,1 C 94 % 1014,2 hPa 0,0 l/m 11,3 km/h (2 Bft) SW 225 0 min 0,0 UV-I 0 W/m -1,9 C -5,7 C 14,5 km/h (3 Bft)
08.01.2021 01:24 -1,1 C -1,1 C 94 % 1014,3 hPa 0,0 l/m 8,0 km/h (2 Bft) S-SW 202 0 min 0,0 UV-I 0 W/m -1,9 C -2,8 C 14,5 km/h (3 Bft)
08.01.2021 01:25 -1,1 C -1,1 C 94 % 1014,3 hPa 0,0 l/m 9,7 km/h (2 Bft) SW 225 0 min 0,0 UV-I 0 W/m -1,9 C -4,4 C 12,9 km/h (3 Bft)
08.01.2021 01:26 -1,1 C -1,1 C 94 % 1014,3 hPa 0,0 l/m 9,7 km/h (2 Bft) S-SW 202 0 min 0,0 UV-I 0 W/m -1,9 C -4,4 C 12,9 km/h (3 Bft)
08.01.2021 01:27 -1,1 C -1,1 C 94 % 1014,3 hPa 0,0 l/m 9,7 km/h (2 Bft) S-SW 202 0 min 0,0 UV-I 0 W/m -1,9 C -4,4 C 12,9 km/h (3 Bft)
08.01.2021 01:28 -1,1 C -1,1 C 94 % 1014,3 hPa 0,0 l/m 9,7 km/h (2 Bft) S-SW 202 0 min 0,0 UV-I 0 W/m -1,9 C -4,4 C 11,3 km/h (2 Bft)
08.01.2021 01:29 -1,1 C -1,1 C 94 % 1014,3 hPa 0,0 l/m 6,4 km/h (2 Bft) SW 225 0 min 0,0 UV-I 0 W/m -1,9 C -1,1 C 9,7 km/h (2 Bft)
08.01.2021 01:30 -1,1 C -1,1 C 94 % 1014,3 hPa 0,0 l/m 11,3 km/h (2 Bft) S-SW 202 0 min 0,0 UV-I 0 W/m -1,9 C -5,7 C 17,7 km/h (3 Bft)
08.01.2021 01:31 -1,1 C -1,1 C 94 % 1014,3 hPa 0,0 l/m 9,7 km/h (2 Bft) S-SW 202 0 min 0,0 UV-I 0 W/m -1,9 C -4,4 C 14,5 km/h (3 Bft)
08.01.2021 01:32 -1,1 C -1,1 C 94 % 1014,3 hPa 0,0 l/m 6,4 km/h (2 Bft) S-SW 202 0 min 0,0 UV-I 0 W/m -1,9 C -1,1 C 9,7 km/h (2 Bft)
08.01.2021 01:33 -1,1 C -1,1 C 94 % 1014,2 hPa 0,0 l/m 6,4 km/h (2 Bft) S-SW 202 0 min 0,0 UV-I 0 W/m -1,9 C -1,1 C 9,7 km/h (2 Bft)
08.01.2021 01:34 -1,1 C -1,1 C 94 % 1014,3 hPa 0,0 l/m 8,0 km/h (2 Bft) S-SW 202 0 min 0,0 UV-I 0 W/m -1,9 C -2,8 C 12,9 km/h (3 Bft)
08.01.2021 01:35 -1,1 C -1,1 C 94 % 1014,3 hPa 0,0 l/m 8,0 km/h (2 Bft) S-SW 202 0 min 0,0 UV-I 0 W/m -1,9 C -2,8 C 9,7 km/h (2 Bft)
08.01.2021 01:36 -1,1 C -1,1 C 94 % 1014,3 hPa 0,0 l/m 8,0 km/h (2 Bft) SW 225 0 min 0,0 UV-I 0 W/m -1,9 C -2,8 C 11,3 km/h (2 Bft)
08.01.2021 01:37 -1,1 C -1,1 C 94 % 1014,2 hPa 0,0 l/m 8,0 km/h (2 Bft) S-SW 202 0 min 0,0 UV-I 0 W/m -1,9 C -2,8 C 11,3 km/h (2 Bft)
08.01.2021 01:38 -1,1 C -1,1 C 94 % 1014,3 hPa 0,0 l/m 11,3 km/h (2 Bft) S-SW 202 0 min 0,0 UV-I 0 W/m -1,9 C -5,7 C 12,9 km/h (3 Bft)
08.01.2021 01:39 -1,2 C -1,1 C 94 % 1014,3 hPa 0,0 l/m 8,0 km/h (2 Bft) S-SW 202 0 min 0,0 UV-I 0 W/m -2,0 C -2,9 C 11,3 km/h (2 Bft)
08.01.2021 01:40 -1,1 C -1,1 C 94 % 1014,3 hPa 0,0 l/m 6,4 km/h (2 Bft) SW 225 0 min 0,0 UV-I 0 W/m -1,9 C -1,1 C 9,7 km/h (2 Bft)
08.01.2021 01:41 -1,1 C -1,1 C 94 % 1014,3 hPa 0,0 l/m 6,4 km/h (2 Bft) S-SW 202 0 min 0,0 UV-I 0 W/m -1,9 C -1,1 C 8,0 km/h (2 Bft)
08.01.2021 01:42 -1,1 C -1,1 C 94 % 1014,2 hPa 0,0 l/m 8,0 km/h (2 Bft) S-SW 202 0 min 0,0 UV-I 0 W/m -1,9 C -2,8 C 11,3 km/h (2 Bft)
08.01.2021 01:43 -1,1 C -1,1 C 94 % 1014,2 hPa 0,0 l/m 6,4 km/h (2 Bft) SW 225 0 min 0,0 UV-I 0 W/m -1,9 C -1,1 C 11,3 km/h (2 Bft)
08.01.2021 01:44 -1,1 C -1,1 C 94 % 1014,3 hPa 0,0 l/m 8,0 km/h (2 Bft) S-SW 202 0 min 0,0 UV-I 0 W/m -1,9 C -2,8 C 12,9 km/h (3 Bft)
08.01.2021 01:45 -1,1 C -1,1 C 94 % 1014,2 hPa 0,0 l/m 8,0 km/h (2 Bft) SW 225 0 min 0,0 UV-I 0 W/m -1,9 C -2,8 C 11,3 km/h (2 Bft)
08.01.2021 01:46 -1,1 C -1,1 C 94 % 1014,2 hPa 0,0 l/m 6,4 km/h (2 Bft) SW 225 0 min 0,0 UV-I 0 W/m -1,9 C -1,1 C 9,7 km/h (2 Bft)
08.01.2021 01:47 -1,1 C -1,1 C 94 % 1014,3 hPa 0,0 l/m 4,8 km/h (1 Bft) SW 225 0 min 0,0 UV-I 0 W/m -1,9 C -1,1 C 8,0 km/h (2 Bft)
08.01.2021 01:48 -1,1 C -1,1 C 94 % 1014,3 hPa 0,0 l/m 4,8 km/h (1 Bft) SW 225 0 min 0,0 UV-I 0 W/m -1,9 C -1,1 C 8,0 km/h (2 Bft)
08.01.2021 01:49 -1,2 C -1,1 C 94 % 1014,3 hPa 0,0 l/m 6,4 km/h (2 Bft) S-SW 202 0 min 0,0 UV-I 0 W/m -2,0 C -1,2 C 8,0 km/h (2 Bft)
08.01.2021 01:50 -1,1 C -1,1 C 94 % 1014,2 hPa 0,0 l/m 8,0 km/h (2 Bft) SW 225 0 min 0,0 UV-I 0 W/m -1,9 C -2,8 C 9,7 km/h (2 Bft)
08.01.2021 01:51 -1,1 C -1,1 C 94 % 1014,2 hPa 0,0 l/m 6,4 km/h (2 Bft) S-SW 202 0 min 0,0 UV-I 0 W/m -1,9 C -1,1 C 9,7 km/h (2 Bft)
08.01.2021 01:52 -1,1 C -1,1 C 94 % 1014,2 hPa 0,0 l/m 6,4 km/h (2 Bft) S-SW 202 0 min 0,0 UV-I 0 W/m -1,9 C -1,1 C 9,7 km/h (2 Bft)
08.01.2021 01:53 -1,1 C -1,1 C 94 % 1014,2 hPa 0,0 l/m 6,4 km/h (2 Bft) SW 225 0 min 0,0 UV-I 0 W/m -1,9 C -1,1 C 9,7 km/h (2 Bft)
08.01.2021 01:54 -1,1 C -1,1 C 94 % 1014,2 hPa 0,0 l/m 8,0 km/h (2 Bft) S-SW 202 0 min 0,0 UV-I 0 W/m -1,9 C -2,8 C 9,7 km/h (2 Bft)
08.01.2021 01:55 -1,1 C -1,1 C 94 % 1014,1 hPa 0,0 l/m 6,4 km/h (2 Bft) S-SW 202 0 min 0,0 UV-I 0 W/m -1,9 C -1,1 C 11,3 km/h (2 Bft)
08.01.2021 01:56 -1,1 C -1,1 C 94 % 1014,3 hPa 0,0 l/m 6,4 km/h (2 Bft) SW 225 0 min 0,0 UV-I 0 W/m -1,9 C -1,1 C 9,7 km/h (2 Bft)
08.01.2021 01:57 -1,1 C -1,1 C 94 % 1014,3 hPa 0,0 l/m 4,8 km/h (1 Bft) SW 225 0 min 0,0 UV-I 0 W/m -1,9 C -1,1 C 6,4 km/h (2 Bft)
08.01.2021 01:58 -1,1 C -1,1 C 94 % 1014,2 hPa 0,0 l/m 6,4 km/h (2 Bft) SW 225 0 min 0,0 UV-I 0 W/m -1,9 C -1,1 C 9,7 km/h (2 Bft)
08.01.2021 01:59 -1,1 C -1,1 C 94 % 1014,3 hPa 0,0 l/m 6,4 km/h (2 Bft) S-SW 202 0 min 0,0 UV-I 0 W/m -1,9 C -1,1 C 9,7 km/h (2 Bft)
08.01.2021 02:00 -1,1 C -1,1 C 94 % 1014,2 hPa 0,0 l/m 4,8 km/h (1 Bft) SW 225 0 min 0,0 UV-I 0 W/m -1,9 C -1,1 C 8,0 km/h (2 Bft)
08.01.2021 02:01 -1,1 C -1,1 C 94 % 1014,3 hPa 0,0 l/m 4,8 km/h (1 Bft) SW 225 0 min 0,0 UV-I 0 W/m -1,9 C -1,1 C 9,7 km/h (2 Bft)
08.01.2021 02:02 -1,2 C -1,1 C 94 % 1014,3 hPa 0,0 l/m 4,8 km/h (1 Bft) SW 225 0 min 0,0 UV-I 0 W/m -2,0 C -1,2 C 4,8 km/h (1 Bft)
08.01.2021 02:03 -1,1 C -1,1 C 94 % 1014,2 hPa 0,0 l/m 8,0 km/h (2 Bft) SW 225 0 min 0,0 UV-I 0 W/m -1,9 C -2,8 C 11,3 km/h (2 Bft)
08.01.2021 02:04 -1,1 C -1,1 C 94 % 1014,2 hPa 0,0 l/m 4,8 km/h (1 Bft) SW 225 0 min 0,0 UV-I 0 W/m -1,9 C -1,1 C 8,0 km/h (2 Bft)
08.01.2021 02:05 -1,1 C -1,1 C 94 % 1014,3 hPa 0,0 l/m 4,8 km/h (1 Bft) SW 225 0 min 0,0 UV-I 0 W/m -1,9 C -1,1 C 9,7 km/h (2 Bft)
08.01.2021 02:06 -1,1 C -1,1 C 94 % 1014,3 hPa 0,0 l/m 3,2 km/h (1 Bft) SW 225 0 min 0,0 UV-I 0 W/m -1,9 C -1,1 C 6,4 km/h (2 Bft)
08.01.2021 02:07 -1,1 C -1,1 C 94 % 1014,3 hPa 0,0 l/m 6,4 km/h (2 Bft) SW 225 0 min 0,0 UV-I 0 W/m -1,9 C -1,1 C 8,0 km/h (2 Bft)
08.01.2021 02:08 -1,1 C -1,1 C 94 % 1014,3 hPa 0,0 l/m 6,4 km/h (2 Bft) SW 225 0 min 0,0 UV-I 0 W/m -1,9 C -1,1 C 11,3 km/h (2 Bft)
08.01.2021 02:09 -1,1 C -1,1 C 94 % 1014,3 hPa 0,0 l/m 6,4 km/h (2 Bft) S-SW 202 0 min 0,0 UV-I 0 W/m -1,9 C -1,1 C 9,7 km/h (2 Bft)
08.01.2021 02:10 -1,1 C -1,1 C 94 % 1014,4 hPa 0,0 l/m 6,4 km/h (2 Bft) SW 225 0 min 0,0 UV-I 0 W/m -1,9 C -1,1 C 9,7 km/h (2 Bft)
08.01.2021 02:11 -1,1 C -1,1 C 94 % 1014,4 hPa 0,0 l/m 4,8 km/h (1 Bft) SW 225 0 min 0,0 UV-I 0 W/m -1,9 C -1,1 C 4,8 km/h (1 Bft)
08.01.2021 02:12 -1,2 C -1,1 C 94 % 1014,4 hPa 0,0 l/m 6,4 km/h (2 Bft) SW 225 0 min 0,0 UV-I 0 W/m -2,0 C -1,2 C 9,7 km/h (2 Bft)
08.01.2021 02:13 -1,1 C -1,1 C 94 % 1014,3 hPa 0,0 l/m 4,8 km/h (1 Bft) W-SW 247 0 min 0,0 UV-I 0 W/m -1,9 C -1,1 C 6,4 km/h (2 Bft)
08.01.2021 02:14 -1,1 C -1,1 C 94 % 1014,3 hPa 0,0 l/m 4,8 km/h (1 Bft) W-SW 247 0 min 0,0 UV-I 0 W/m -1,9 C -1,1 C 8,0 km/h (2 Bft)
08.01.2021 02:15 -1,1 C -1,1 C 94 % 1014,3 hPa 0,0 l/m 3,2 km/h (1 Bft) SW 225 0 min 0,0 UV-I 0 W/m -1,9 C -1,1 C 4,8 km/h (1 Bft)
08.01.2021 02:16 -1,1 C -1,1 C 95 % 1014,3 hPa 0,0 l/m 6,4 km/h (2 Bft) SW 225 0 min 0,0 UV-I 0 W/m -1,8 C -1,1 C 11,3 km/h (2 Bft)
08.01.2021 02:17 -1,1 C -1,1 C 94 % 1014,3 hPa 0,0 l/m 8,0 km/h (2 Bft) S-SW 202 0 min 0,0 UV-I 0 W/m -1,9 C -2,8 C 11,3 km/h (2 Bft)
08.01.2021 02:18 -1,1 C -1,1 C 94 % 1014,3 hPa 0,0 l/m 9,7 km/h (2 Bft) S-SW 202 0 min 0,0 UV-I 0 W/m -1,9 C -4,4 C 12,9 km/h (3 Bft)
08.01.2021 02:19 -1,1 C -1,1 C 94 % 1014,3 hPa 0,0 l/m 8,0 km/h (2 Bft) S-SW 202 0 min 0,0 UV-I 0 W/m -1,9 C -2,8 C 12,9 km/h (3 Bft)
08.01.2021 02:20 -1,1 C -1,1 C 94 % 1014,3 hPa 0,0 l/m 4,8 km/h (1 Bft) SW 225 0 min 0,0 UV-I 0 W/m -1,9 C -1,1 C 8,0 km/h (2 Bft)
08.01.2021 02:21 -1,1 C -1,1 C 94 % 1014,2 hPa 0,0 l/m 4,8 km/h (1 Bft) SW 225 0 min 0,0 UV-I 0 W/m -1,9 C -1,1 C 9,7 km/h (2 Bft)
08.01.2021 02:22 -1,1 C -1,1 C 94 % 1014,2 hPa 0,0 l/m 4,8 km/h (1 Bft) S-SW 202 0 min 0,0 UV-I 0 W/m -1,9 C -1,1 C 8,0 km/h (2 Bft)
08.01.2021 02:23 -1,1 C -1,1 C 94 % 1014,3 hPa 0,0 l/m 3,2 km/h (1 Bft) SW 225 0 min 0,0 UV-I 0 W/m -1,9 C -1,1 C 4,8 km/h (1 Bft)
08.01.2021 02:24 -1,1 C -1,1 C 95 % 1014,3 hPa 0,0 l/m 4,8 km/h (1 Bft) S-SW 202 0 min 0,0 UV-I 0 W/m -1,8 C -1,1 C 6,4 km/h (2 Bft)
08.01.2021 02:25 -1,1 C -1,1 C 95 % 1014,3 hPa 0,0 l/m 3,2 km/h (1 Bft) SW 225 0 min 0,0 UV-I 0 W/m -1,8 C -1,1 C 4,8 km/h (1 Bft)
08.01.2021 02:26 -1,1 C -1,1 C 95 % 1014,3 hPa 0,0 l/m 4,8 km/h (1 Bft) SW 225 0 min 0,0 UV-I 0 W/m -1,8 C -1,1 C 6,4 km/h (2 Bft)
08.01.2021 02:27 -1,1 C -1,1 C 95 % 1014,2 hPa 0,0 l/m 4,8 km/h (1 Bft) SW 225 0 min 0,0 UV-I 0 W/m -1,8 C -1,1 C 6,4 km/h (2 Bft)
08.01.2021 02:28 -1,1 C -1,1 C 94 % 1014,2 hPa 0,0 l/m 6,4 km/h (2 Bft) SW 225 0 min 0,0 UV-I 0 W/m -1,9 C -1,1 C 8,0 km/h (2 Bft)
08.01.2021 02:29 -1,1 C -1,1 C 95 % 1014,3 hPa 0,0 l/m 4,8 km/h (1 Bft) SW 225 0 min 0,0 UV-I 0 W/m -1,8 C -1,1 C 8,0 km/h (2 Bft)
08.01.2021 02:30 -1,1 C -1,1 C 94 % 1014,3 hPa 0,0 l/m 4,8 km/h (1 Bft) W-SW 247 0 min 0,0 UV-I 0 W/m -1,9 C -1,1 C 8,0 km/h (2 Bft)
08.01.2021 02:31 -1,1 C -1,1 C 95 % 1014,3 hPa 0,0 l/m 6,4 km/h (2 Bft) SW 225 0 min 0,0 UV-I 0 W/m -1,8 C -1,1 C 8,0 km/h (2 Bft)
08.01.2021 02:32 -1,1 C -1,1 C 95 % 1014,3 hPa 0,0 l/m 6,4 km/h (2 Bft) SW 225 0 min 0,0 UV-I 0 W/m -1,8 C -1,1 C 9,7 km/h (2 Bft)
08.01.2021 02:33 -1,1 C -1,1 C 95 % 1014,3 hPa 0,0 l/m 8,0 km/h (2 Bft) SW 225 0 min 0,0 UV-I 0 W/m -1,8 C -2,8 C 14,5 km/h (3 Bft)
08.01.2021 02:34 -1,1 C -1,1 C 95 % 1014,3 hPa 0,0 l/m 6,4 km/h (2 Bft) SW 225 0 min 0,0 UV-I 0 W/m -1,8 C -1,1 C 12,9 km/h (3 Bft)
08.01.2021 02:35 -1,1 C -1,1 C 95 % 1014,4 hPa 0,0 l/m 4,8 km/h (1 Bft) SW 225 0 min 0,0 UV-I 0 W/m -1,8 C -1,1 C 8,0 km/h (2 Bft)
08.01.2021 02:36 -1,1 C -1,1 C 95 % 1014,3 hPa 0,0 l/m 6,4 km/h (2 Bft) W-SW 247 0 min 0,0 UV-I 0 W/m -1,8 C -1,1 C 9,7 km/h (2 Bft)
08.01.2021 02:37 -1,1 C -1,1 C 95 % 1014,3 hPa 0,0 l/m 4,8 km/h (1 Bft) SW 225 0 min 0,0 UV-I 0 W/m -1,8 C -1,1 C 6,4 km/h (2 Bft)
08.01.2021 02:38 -1,1 C -1,1 C 95 % 1014,3 hPa 0,0 l/m 8,0 km/h (2 Bft) SW 225 0 min 0,0 UV-I 0 W/m -1,8 C -2,8 C 11,3 km/h (2 Bft)
08.01.2021 02:39 -1,1 C -1,1 C 95 % 1014,3 hPa 0,0 l/m 6,4 km/h (2 Bft) W-SW 247 0 min 0,0 UV-I 0 W/m -1,8 C -1,1 C 11,3 km/h (2 Bft)
08.01.2021 02:40 -1,1 C -1,1 C 95 % 1014,3 hPa 0,0 l/m 4,8 km/h (1 Bft) W-SW 247 0 min 0,0 UV-I 0 W/m -1,8 C -1,1 C 6,4 km/h (2 Bft)
08.01.2021 02:41 -1,1 C -1,1 C 95 % 1014,3 hPa 0,0 l/m 6,4 km/h (2 Bft) S-SW 202 0 min 0,0 UV-I 0 W/m -1,8 C -1,1 C 12,9 km/h (3 Bft)
08.01.2021 02:42 -1,1 C -1,1 C 95 % 1014,3 hPa 0,0 l/m 8,0 km/h (2 Bft) W-SW 247 0 min 0,0 UV-I 0 W/m -1,8 C -2,8 C 11,3 km/h (2 Bft)
08.01.2021 02:43 -1,1 C -1,1 C 95 % 1014,4 hPa 0,0 l/m 11,3 km/h (2 Bft) SW 225 0 min 0,0 UV-I 0 W/m -1,8 C -5,7 C 17,7 km/h (3 Bft)
08.01.2021 02:44 -1,1 C -1,1 C 95 % 1014,3 hPa 0,0 l/m 12,9 km/h (3 Bft) S-SW 202 0 min 0,0 UV-I 0 W/m -1,8 C -6,9 C 17,7 km/h (3 Bft)
08.01.2021 02:45 -1,1 C -1,1 C 95 % 1014,4 hPa 0,0 l/m 11,3 km/h (2 Bft) W-SW 247 0 min 0,0 UV-I 0 W/m -1,8 C -5,7 C 16,1 km/h (3 Bft)
08.01.2021 02:46 -1,1 C -1,1 C 95 % 1014,3 hPa 0,0 l/m 9,7 km/h (2 Bft) W-SW 247 0 min 0,0 UV-I 0 W/m -1,8 C -4,4 C 17,7 km/h (3 Bft)
08.01.2021 02:47 -1,0 C -1,1 C 95 % 1014,5 hPa 0,0 l/m 6,4 km/h (2 Bft) W-SW 247 0 min 0,0 UV-I 0 W/m -1,7 C -1,0 C 9,7 km/h (2 Bft)
08.01.2021 02:48 -1,1 C -1,1 C 95 % 1014,4 hPa 0,0 l/m 9,7 km/h (2 Bft) SW 225 0 min 0,0 UV-I 0 W/m -1,8 C -4,4 C 19,3 km/h (3 Bft)
08.01.2021 02:49 -1,1 C -1,1 C 95 % 1014,4 hPa 0,0 l/m 9,7 km/h (2 Bft) SW 225 0 min 0,0 UV-I 0 W/m -1,8 C -4,4 C 12,9 km/h (3 Bft)
08.01.2021 02:50 -1,0 C -1,1 C 95 % 1014,3 hPa 0,0 l/m 6,4 km/h (2 Bft) SW 225 0 min 0,0 UV-I 0 W/m -1,7 C -1,0 C 11,3 km/h (2 Bft)
08.01.2021 02:51 -1,1 C -1,1 C 95 % 1014,5 hPa 0,0 l/m 6,4 km/h (2 Bft) SW 225 0 min 0,0 UV-I 0 W/m -1,8 C -1,1 C 14,5 km/h (3 Bft)
08.01.2021 02:52 -1,1 C -1,1 C 95 % 1014,4 hPa 0,0 l/m 6,4 km/h (2 Bft) SW 225 0 min 0,0 UV-I 0 W/m -1,8 C -1,1 C 11,3 km/h (2 Bft)
08.01.2021 02:53 -1,1 C -1,1 C 95 % 1014,5 hPa 0,0 l/m 6,4 km/h (2 Bft) SW 225 0 min 0,0 UV-I 0 W/m -1,8 C -1,1 C 11,3 km/h (2 Bft)
08.01.2021 02:54 -1,1 C -1,1 C 95 % 1014,4 hPa 0,0 l/m 16,1 km/h (3 Bft) SW 225 0 min 0,0 UV-I 0 W/m -1,8 C -9,0 C 25,7 km/h (4 Bft)
08.01.2021 02:55 -1,1 C -1,1 C 95 % 1014,4 hPa 0,0 l/m 8,0 km/h (2 Bft) SW 225 0 min 0,0 UV-I 0 W/m -1,8 C -2,8 C 25,7 km/h (4 Bft)
08.01.2021 02:56 -1,1 C -1,1 C 95 % 1014,4 hPa 0,0 l/m 6,4 km/h (2 Bft) SW 225 0 min 0,0 UV-I 0 W/m -1,8 C -1,1 C 16,1 km/h (3 Bft)
08.01.2021 02:57 -1,1 C -1,1 C 95 % 1014,5 hPa 0,0 l/m 4,8 km/h (1 Bft) S-SW 202 0 min 0,0 UV-I 0 W/m -1,8 C -1,1 C 8,0 km/h (2 Bft)
08.01.2021 02:58 -1,1 C -1,1 C 95 % 1014,5 hPa 0,0 l/m 4,8 km/h (1 Bft) SW 225 0 min 0,0 UV-I 0 W/m -1,8 C -1,1 C 9,7 km/h (2 Bft)
08.01.2021 02:59 -1,1 C -1,1 C 95 % 1014,5 hPa 0,0 l/m 9,7 km/h (2 Bft) SW 225 0 min 0,0 UV-I 0 W/m -1,8 C -4,4 C 14,5 km/h (3 Bft)
08.01.2021 03:00 -1,1 C -1,1 C 95 % 1014,5 hPa 0,0 l/m 8,0 km/h (2 Bft) W-SW 247 0 min 0,0 UV-I 0 W/m -1,8 C -2,8 C 12,9 km/h (3 Bft)
08.01.2021 03:01 -1,1 C -1,1 C 95 % 1014,4 hPa 0,0 l/m 6,4 km/h (2 Bft) SW 225 0 min 0,0 UV-I 0 W/m -1,8 C -1,1 C 11,3 km/h (2 Bft)
08.01.2021 03:02 -1,1 C -1,1 C 95 % 1014,3 hPa 0,0 l/m 9,7 km/h (2 Bft) S-SW 202 0 min 0,0 UV-I 0 W/m -1,8 C -4,4 C 14,5 km/h (3 Bft)
08.01.2021 03:03 -1,1 C -1,1 C 95 % 1014,5 hPa 0,0 l/m 8,0 km/h (2 Bft) S-SW 202 0 min 0,0 UV-I 0 W/m -1,8 C -2,8 C 11,3 km/h (2 Bft)
08.01.2021 03:04 -1,1 C -1,1 C 94 % 1014,4 hPa 0,0 l/m 6,4 km/h (2 Bft) S-SW 202 0 min 0,0 UV-I 0 W/m -1,9 C -1,1 C 11,3 km/h (2 Bft)
08.01.2021 03:05 -1,1 C -1,1 C 95 % 1014,3 hPa 0,0 l/m 9,7 km/h (2 Bft) SW 225 0 min 0,0 UV-I 0 W/m -1,8 C -4,4 C 14,5 km/h (3 Bft)
08.01.2021 03:06 -1,1 C -1,1 C 94 % 1014,4 hPa 0,0 l/m 11,3 km/h (2 Bft) SW 225 0 min 0,0 UV-I 0 W/m -1,9 C -5,7 C 16,1 km/h (3 Bft)
08.01.2021 03:07 -1,1 C -1,1 C 95 % 1014,3 hPa 0,0 l/m 8,0 km/h (2 Bft) SW 225 0 min 0,0 UV-I 0 W/m -1,8 C -2,8 C 14,5 km/h (3 Bft)
08.01.2021 03:08 -1,1 C -1,1 C 94 % 1014,5 hPa 0,0 l/m 6,4 km/h (2 Bft) SW 225 0 min 0,0 UV-I 0 W/m -1,9 C -1,1 C 12,9 km/h (3 Bft)
08.01.2021 03:09 -1,1 C -1,1 C 95 % 1014,4 hPa 0,0 l/m 9,7 km/h (2 Bft) SW 225 0 min 0,0 UV-I 0 W/m -1,8 C -4,4 C 12,9 km/h (3 Bft)
08.01.2021 03:10 -1,1 C -1,1 C 94 % 1014,3 hPa 0,0 l/m 8,0 km/h (2 Bft) SW 225 0 min 0,0 UV-I 0 W/m -1,9 C -2,8 C 14,5 km/h (3 Bft)
08.01.2021 03:11 -1,1 C -1,1 C 94 % 1014,4 hPa 0,0 l/m 8,0 km/h (2 Bft) W-SW 247 0 min 0,0 UV-I 0 W/m -1,9 C -2,8 C 12,9 km/h (3 Bft)
08.01.2021 03:12 -1,1 C -1,1 C 94 % 1014,5 hPa 0,0 l/m 6,4 km/h (2 Bft) SW 225 0 min 0,0 UV-I 0 W/m -1,9 C -1,1 C 12,9 km/h (3 Bft)
08.01.2021 03:13 -1,1 C -1,1 C 94 % 1014,4 hPa 0,0 l/m 9,7 km/h (2 Bft) W-SW 247 0 min 0,0 UV-I 0 W/m -1,9 C -4,4 C 14,5 km/h (3 Bft)
08.01.2021 03:14 -1,1 C -1,1 C 94 % 1014,4 hPa 0,0 l/m 8,0 km/h (2 Bft) SW 225 0 min 0,0 UV-I 0 W/m -1,9 C -2,8 C 9,7 km/h (2 Bft)
08.01.2021 03:15 -1,1 C -1,1 C 94 % 1014,4 hPa 0,0 l/m 8,0 km/h (2 Bft) W-SW 247 0 min 0,0 UV-I 0 W/m -1,9 C -2,8 C 11,3 km/h (2 Bft)
08.01.2021 03:16 -1,1 C -1,1 C 94 % 1014,4 hPa 0,0 l/m 4,8 km/h (1 Bft) W-SW 247 0 min 0,0 UV-I 0 W/m -1,9 C -1,1 C 8,0 km/h (2 Bft)
08.01.2021 03:17 -1,1 C -1,1 C 94 % 1014,5 hPa 0,0 l/m 8,0 km/h (2 Bft) SW 225 0 min 0,0 UV-I 0 W/m -1,9 C -2,8 C 12,9 km/h (3 Bft)
08.01.2021 03:18 -1,1 C -1,1 C 94 % 1014,4 hPa 0,0 l/m 9,7 km/h (2 Bft) W-SW 247 0 min 0,0 UV-I 0 W/m -1,9 C -4,4 C 20,9 km/h (4 Bft)
08.01.2021 03:19 -1,2 C -1,1 C 94 % 1014,3 hPa 0,0 l/m 8,0 km/h (2 Bft) W 270 0 min 0,0 UV-I 0 W/m -2,0 C -2,9 C 14,5 km/h (3 Bft)
08.01.2021 03:20 -1,2 C -1,1 C 94 % 1014,4 hPa 0,0 l/m 6,4 km/h (2 Bft) S-SW 202 0 min 0,0 UV-I 0 W/m -2,0 C -1,2 C 9,7 km/h (2 Bft)
08.01.2021 03:21 -1,2 C -1,1 C 94 % 1014,3 hPa 0,0 l/m 9,7 km/h (2 Bft) W-SW 247 0 min 0,0 UV-I 0 W/m -2,0 C -4,5 C 17,7 km/h (3 Bft)
08.01.2021 03:22 -1,2 C -1,1 C 94 % 1014,4 hPa 0,0 l/m 9,7 km/h (2 Bft) SW 225 0 min 0,0 UV-I 0 W/m -2,0 C -4,5 C 16,1 km/h (3 Bft)
08.01.2021 03:23 -1,2 C -1,1 C 94 % 1014,4 hPa 0,0 l/m 9,7 km/h (2 Bft) SW 225 0 min 0,0 UV-I 0 W/m -2,0 C -4,5 C 16,1 km/h (3 Bft)
08.01.2021 03:24 -1,2 C -1,1 C 94 % 1014,3 hPa 0,0 l/m 8,0 km/h (2 Bft) W-SW 247 0 min 0,0 UV-I 0 W/m -2,0 C -2,9 C 12,9 km/h (3 Bft)
08.01.2021 03:25 -1,2 C -1,1 C 94 % 1014,3 hPa 0,0 l/m 9,7 km/h (2 Bft) W-SW 247 0 min 0,0 UV-I 0 W/m -2,0 C -4,5 C 14,5 km/h (3 Bft)
08.01.2021 03:26 -1,2 C -1,1 C 94 % 1014,5 hPa 0,0 l/m 8,0 km/h (2 Bft) SW 225 0 min 0,0 UV-I 0 W/m -2,0 C -2,9 C 11,3 km/h (2 Bft)
08.01.2021 03:27 -1,2 C -1,1 C 94 % 1014,4 hPa 0,0 l/m 6,4 km/h (2 Bft) SW 225 0 min 0,0 UV-I 0 W/m -2,0 C -1,2 C 9,7 km/h (2 Bft)
08.01.2021 03:28 -1,2 C -1,1 C 94 % 1014,4 hPa 0,0 l/m 6,4 km/h (2 Bft) SW 225 0 min 0,0 UV-I 0 W/m -2,0 C -1,2 C 12,9 km/h (3 Bft)
08.01.2021 03:29 -1,2 C -1,1 C 94 % 1014,4 hPa 0,0 l/m 8,0 km/h (2 Bft) SW 225 0 min 0,0 UV-I 0 W/m -2,0 C -2,9 C 11,3 km/h (2 Bft)
08.01.2021 03:30 -1,2 C -1,1 C 94 % 1014,5 hPa 0,0 l/m 8,0 km/h (2 Bft) SW 225 0 min 0,0 UV-I 0 W/m -2,0 C -2,9 C 12,9 km/h (3 Bft)
08.01.2021 03:31 -1,2 C -1,1 C 94 % 1014,4 hPa 0,0 l/m 6,4 km/h (2 Bft) SW 225 0 min 0,0 UV-I 0 W/m -2,0 C -1,2 C 9,7 km/h (2 Bft)
08.01.2021 03:32 -1,2 C -1,1 C 94 % 1014,4 hPa 0,0 l/m 6,4 km/h (2 Bft) W-SW 247 0 min 0,0 UV-I 0 W/m -2,0 C -1,2 C 12,9 km/h (3 Bft)
08.01.2021 03:33 -1,2 C -1,1 C 94 % 1014,4 hPa 0,0 l/m 8,0 km/h (2 Bft) W-SW 247 0 min 0,0 UV-I 0 W/m -2,0 C -2,9 C 17,7 km/h (3 Bft)
08.01.2021 03:34 -1,2 C -1,1 C 94 % 1014,5 hPa 0,0 l/m 6,4 km/h (2 Bft) SW 225 0 min 0,0 UV-I 0 W/m -2,0 C -1,2 C 14,5 km/h (3 Bft)
08.01.2021 03:35 -1,2 C -1,1 C 94 % 1014,4 hPa 0,0 l/m 4,8 km/h (1 Bft) S-SW 202 0 min 0,0 UV-I 0 W/m -2,0 C -1,2 C 9,7 km/h (2 Bft)
08.01.2021 03:36 -1,2 C -1,1 C 94 % 1014,4 hPa 0,0 l/m 6,4 km/h (2 Bft) S-SW 202 0 min 0,0 UV-I 0 W/m -2,0 C -1,2 C 9,7 km/h (2 Bft)
08.01.2021 03:37 -1,2 C -1,1 C 94 % 1014,5 hPa 0,0 l/m 4,8 km/h (1 Bft) S-SW 202 0 min 0,0 UV-I 0 W/m -2,0 C -1,2 C 8,0 km/h (2 Bft)
08.01.2021 03:38 -1,2 C -1,1 C 94 % 1014,4 hPa 0,0 l/m 6,4 km/h (2 Bft) SW 225 0 min 0,0 UV-I 0 W/m -2,0 C -1,2 C 9,7 km/h (2 Bft)
08.01.2021 03:39 -1,2 C -1,1 C 94 % 1014,4 hPa 0,0 l/m 6,4 km/h (2 Bft) SW 225 0 min 0,0 UV-I 0 W/m -2,0 C -1,2 C 12,9 km/h (3 Bft)
08.01.2021 03:40 -1,2 C -1,1 C 94 % 1014,5 hPa 0,0 l/m 8,0 km/h (2 Bft) SW 225 0 min 0,0 UV-I 0 W/m -2,0 C -2,9 C 12,9 km/h (3 Bft)
08.01.2021 03:41 -1,2 C -1,1 C 94 % 1014,4 hPa 0,0 l/m 11,3 km/h (2 Bft) SW 225 0 min 0,0 UV-I 0 W/m -2,0 C -5,8 C 14,5 km/h (3 Bft)
08.01.2021 03:42 -1,2 C -1,1 C 94 % 1014,4 hPa 0,0 l/m 4,8 km/h (1 Bft) SW 225 0 min 0,0 UV-I 0 W/m -2,0 C -1,2 C 8,0 km/h (2 Bft)
08.01.2021 03:43 -1,2 C -1,1 C 94 % 1014,4 hPa 0,0 l/m 8,0 km/h (2 Bft) SW 225 0 min 0,0 UV-I 0 W/m -2,0 C -2,9 C 12,9 km/h (3 Bft)
08.01.2021 03:44 -1,2 C -1,1 C 94 % 1014,4 hPa 0,0 l/m 8,0 km/h (2 Bft) SW 225 0 min 0,0 UV-I 0 W/m -2,0 C -2,9 C 12,9 km/h (3 Bft)
08.01.2021 03:45 -1,2 C -1,1 C 94 % 1014,4 hPa 0,0 l/m 8,0 km/h (2 Bft) W-SW 247 0 min 0,0 UV-I 0 W/m -2,0 C -2,9 C 12,9 km/h (3 Bft)
08.01.2021 03:46 -1,2 C -1,1 C 94 % 1014,5 hPa 0,0 l/m 6,4 km/h (2 Bft) SW 225 0 min 0,0 UV-I 0 W/m -2,0 C -1,2 C 11,3 km/h (2 Bft)
08.01.2021 03:47 -1,2 C -1,1 C 94 % 1014,3 hPa 0,0 l/m 9,7 km/h (2 Bft) SW 225 0 min 0,0 UV-I 0 W/m -2,0 C -4,5 C 16,1 km/h (3 Bft)
08.01.2021 03:48 -1,2 C -1,1 C 94 % 1014,4 hPa 0,0 l/m 11,3 km/h (2 Bft) W-SW 247 0 min 0,0 UV-I 0 W/m -2,0 C -5,8 C 16,1 km/h (3 Bft)
08.01.2021 03:49 -1,1 C -1,1 C 94 % 1014,4 hPa 0,0 l/m 9,7 km/h (2 Bft) SW 225 0 min 0,0 UV-I 0 W/m -1,9 C -4,4 C 12,9 km/h (3 Bft)
08.01.2021 03:50 -1,1 C -1,1 C 94 % 1014,4 hPa 0,0 l/m 6,4 km/h (2 Bft) S-SW 202 0 min 0,0 UV-I 0 W/m -1,9 C -1,1 C 9,7 km/h (2 Bft)
08.01.2021 03:51 -1,2 C -1,1 C 94 % 1014,4 hPa 0,0 l/m 6,4 km/h (2 Bft) SW 225 0 min 0,0 UV-I 0 W/m -2,0 C -1,2 C 11,3 km/h (2 Bft)
08.01.2021 03:52 -1,2 C -1,1 C 94 % 1014,5 hPa 0,0 l/m 6,4 km/h (2 Bft) S-SW 202 0 min 0,0 UV-I 0 W/m -2,0 C -1,2 C 11,3 km/h (2 Bft)
08.01.2021 03:53 -1,1 C -1,1 C 94 % 1014,4 hPa 0,0 l/m 6,4 km/h (2 Bft) SW 225 0 min 0,0 UV-I 0 W/m -1,9 C -1,1 C 11,3 km/h (2 Bft)
08.01.2021 03:54 -1,2 C -1,1 C 94 % 1014,4 hPa 0,0 l/m 4,8 km/h (1 Bft) S-SW 202 0 min 0,0 UV-I 0 W/m -2,0 C -1,2 C 8,0 km/h (2 Bft)
08.01.2021 03:55 -1,2 C -1,1 C 94 % 1014,4 hPa 0,0 l/m 3,2 km/h (1 Bft) S-SW 202 0 min 0,0 UV-I 0 W/m -2,0 C -1,2 C 6,4 km/h (2 Bft)
08.01.2021 03:56 -1,2 C -1,1 C 94 % 1014,4 hPa 0,0 l/m 8,0 km/h (2 Bft) SW 225 0 min 0,0 UV-I 0 W/m -2,0 C -2,9 C 14,5 km/h (3 Bft)
08.01.2021 03:57 -1,1 C -1,1 C 94 % 1014,4 hPa 0,0 l/m 6,4 km/h (2 Bft) SW 225 0 min 0,0 UV-I 0 W/m -1,9 C -1,1 C 12,9 km/h (3 Bft)
08.01.2021 03:58 -1,2 C -1,1 C 94 % 1014,4 hPa 0,0 l/m 6,4 km/h (2 Bft) SW 225 0 min 0,0 UV-I 0 W/m -2,0 C -1,2 C 16,1 km/h (3 Bft)
08.01.2021 03:59 -1,1 C -1,1 C 94 % 1014,5 hPa 0,0 l/m 9,7 km/h (2 Bft) SW 225 0 min 0,0 UV-I 0 W/m -1,9 C -4,4 C 12,9 km/h (3 Bft)
08.01.2021 04:00 -1,1 C -1,1 C 94 % 1014,4 hPa 0,0 l/m 9,7 km/h (2 Bft) SW 225 0 min 0,0 UV-I 0 W/m -1,9 C -4,4 C 14,5 km/h (3 Bft)
08.01.2021 04:01 -1,2 C -1,1 C 94 % 1014,4 hPa 0,0 l/m 6,4 km/h (2 Bft) SW 225 0 min 0,0 UV-I 0 W/m -2,0 C -1,2 C 12,9 km/h (3 Bft)
08.01.2021 04:02 -1,2 C -1,1 C 94 % 1014,4 hPa 0,0 l/m 9,7 km/h (2 Bft) W-SW 247 0 min 0,0 UV-I 0 W/m -2,0 C -4,5 C 14,5 km/h (3 Bft)
08.01.2021 04:03 -1,1 C -1,1 C 94 % 1014,4 hPa 0,0 l/m 8,0 km/h (2 Bft) W-SW 247 0 min 0,0 UV-I 0 W/m -1,9 C -2,8 C 12,9 km/h (3 Bft)
08.01.2021 04:04 -1,1 C -1,1 C 94 % 1014,4 hPa 0,0 l/m 8,0 km/h (2 Bft) W-SW 247 0 min 0,0 UV-I 0 W/m -1,9 C -2,8 C 14,5 km/h (3 Bft)
08.01.2021 04:05 -1,1 C -1,1 C 94 % 1014,4 hPa 0,0 l/m 9,7 km/h (2 Bft) SW 225 0 min 0,0 UV-I 0 W/m -1,9 C -4,4 C 16,1 km/h (3 Bft)
08.01.2021 04:06 -1,1 C -1,1 C 94 % 1014,4 hPa 0,0 l/m 12,9 km/h (3 Bft) SW 225 0 min 0,0 UV-I 0 W/m -1,9 C -6,9 C 17,7 km/h (3 Bft)
08.01.2021 04:07 -1,1 C -1,1 C 94 % 1014,4 hPa 0,0 l/m 12,9 km/h (3 Bft) SW 225 0 min 0,0 UV-I 0 W/m -1,9 C -6,9 C 17,7 km/h (3 Bft)
08.01.2021 04:08 -1,1 C -1,1 C 94 % 1014,4 hPa 0,0 l/m 14,5 km/h (3 Bft) W-SW 247 0 min 0,0 UV-I 0 W/m -1,9 C -8,0 C 22,5 km/h (4 Bft)
08.01.2021 04:09 -1,1 C -1,1 C 94 % 1014,4 hPa 0,0 l/m 11,3 km/h (2 Bft) SW 225 0 min 0,0 UV-I 0 W/m -1,9 C -5,7 C 20,9 km/h (4 Bft)
08.01.2021 04:10 -1,2 C -1,1 C 94 % 1014,4 hPa 0,0 l/m 16,1 km/h (3 Bft) W-SW 247 0 min 0,0 UV-I 0 W/m -2,0 C -9,1 C 22,5 km/h (4 Bft)
08.01.2021 04:11 -1,1 C -1,1 C 94 % 1014,4 hPa 0,0 l/m 12,9 km/h (3 Bft) SW 225 0 min 0,0 UV-I 0 W/m -1,9 C -6,9 C 20,9 km/h (4 Bft)
08.01.2021 04:12 -1,1 C -1,1 C 94 % 1014,3 hPa 0,0 l/m 11,3 km/h (2 Bft) SW 225 0 min 0,0 UV-I 0 W/m -1,9 C -5,7 C 20,9 km/h (4 Bft)
08.01.2021 04:13 -1,1 C -1,1 C 94 % 1014,3 hPa 0,0 l/m 8,0 km/h (2 Bft) SW 225 0 min 0,0 UV-I 0 W/m -1,9 C -2,8 C 11,3 km/h (2 Bft)
08.01.2021 04:14 -1,1 C -1,1 C 94 % 1014,4 hPa 0,0 l/m 11,3 km/h (2 Bft) W-SW 247 0 min 0,0 UV-I 0 W/m -1,9 C -5,7 C 17,7 km/h (3 Bft)
08.01.2021 04:15 -1,1 C -1,1 C 95 % 1014,4 hPa 0,0 l/m 9,7 km/h (2 Bft) SW 225 0 min 0,0 UV-I 0 W/m -1,8 C -4,4 C 12,9 km/h (3 Bft)
08.01.2021 04:16 -1,1 C -1,1 C 94 % 1014,4 hPa 0,0 l/m 9,7 km/h (2 Bft) SW 225 0 min 0,0 UV-I 0 W/m -1,9 C -4,4 C 17,7 km/h (3 Bft)
08.01.2021 04:17 -1,1 C -1,1 C 94 % 1014,3 hPa 0,0 l/m 9,7 km/h (2 Bft) SW 225 0 min 0,0 UV-I 0 W/m -1,9 C -4,4 C 16,1 km/h (3 Bft)
08.01.2021 04:18 -1,1 C -1,1 C 94 % 1014,3 hPa 0,0 l/m 9,7 km/h (2 Bft) W-SW 247 0 min 0,0 UV-I 0 W/m -1,9 C -4,4 C 14,5 km/h (3 Bft)
08.01.2021 04:19 -1,1 C -1,1 C 94 % 1014,4 hPa 0,0 l/m 9,7 km/h (2 Bft) SW 225 0 min 0,0 UV-I 0 W/m -1,9 C -4,4 C 16,1 km/h (3 Bft)
08.01.2021 04:20 -1,1 C -1,1 C 94 % 1014,4 hPa 0,0 l/m 11,3 km/h (2 Bft) SW 225 0 min 0,0 UV-I 0 W/m -1,9 C -5,7 C 19,3 km/h (3 Bft)
08.01.2021 04:21 -1,1 C -1,1 C 94 % 1014,4 hPa 0,0 l/m 9,7 km/h (2 Bft) SW 225 0 min 0,0 UV-I 0 W/m -1,9 C -4,4 C 14,5 km/h (3 Bft)
08.01.2021 04:22 -1,2 C -1,1 C 94 % 1014,4 hPa 0,0 l/m 9,7 km/h (2 Bft) S-SW 202 0 min 0,0 UV-I 0 W/m -2,0 C -4,5 C 14,5 km/h (3 Bft)
08.01.2021 04:23 -1,2 C -1,1 C 94 % 1014,4 hPa 0,0 l/m 8,0 km/h (2 Bft) SW 225 0 min 0,0 UV-I 0 W/m -2,0 C -2,9 C 12,9 km/h (3 Bft)
08.01.2021 04:24 -1,2 C -1,1 C 94 % 1014,4 hPa 0,0 l/m 11,3 km/h (2 Bft) W-SW 247 0 min 0,0 UV-I 0 W/m -2,0 C -5,8 C 17,7 km/h (3 Bft)
08.01.2021 04:25 -1,2 C -1,1 C 94 % 1014,4 hPa 0,0 l/m 8,0 km/h (2 Bft) W-SW 247 0 min 0,0 UV-I 0 W/m -2,0 C -2,9 C 14,5 km/h (3 Bft)
08.01.2021 04:26 -1,2 C -1,1 C 94 % 1014,4 hPa 0,0 l/m 9,7 km/h (2 Bft) SW 225 0 min 0,0 UV-I 0 W/m -2,0 C -4,5 C 17,7 km/h (3 Bft)
08.01.2021 04:27 -1,2 C -1,1 C 94 % 1014,3 hPa 0,0 l/m 9,7 km/h (2 Bft) SW 225 0 min 0,0 UV-I 0 W/m -2,0 C -4,5 C 16,1 km/h (3 Bft)
08.01.2021 04:28 -1,2 C -1,1 C 94 % 1014,4 hPa 0,0 l/m 9,7 km/h (2 Bft) SW 225 0 min 0,0 UV-I 0 W/m -2,0 C -4,5 C 16,1 km/h (3 Bft)
08.01.2021 04:29 -1,2 C -1,1 C 94 % 1014,4 hPa 0,0 l/m 11,3 km/h (2 Bft) SW 225 0 min 0,0 UV-I 0 W/m -2,0 C -5,8 C 17,7 km/h (3 Bft)
08.01.2021 04:30 -1,2 C -1,1 C 94 % 1014,4 hPa 0,0 l/m 9,7 km/h (2 Bft) SW 225 0 min 0,0 UV-I 0 W/m -2,0 C -4,5 C 17,7 km/h (3 Bft)
08.01.2021 04:31 -1,2 C -1,1 C 94 % 1014,3 hPa 0,2 l/m 9,7 km/h (2 Bft) S-SW 202 0 min 0,0 UV-I 0 W/m -2,0 C -4,5 C 17,7 km/h (3 Bft)
08.01.2021 04:32 -1,2 C -1,1 C 94 % 1014,4 hPa 0,0 l/m 12,9 km/h (3 Bft) SW 225 0 min 0,0 UV-I 0 W/m -2,0 C -7,0 C 17,7 km/h (3 Bft)
08.01.2021 04:33 -1,2 C -1,1 C 94 % 1014,4 hPa 0,0 l/m 9,7 km/h (2 Bft) W-SW 247 0 min 0,0 UV-I 0 W/m -2,0 C -4,5 C 16,1 km/h (3 Bft)
08.01.2021 04:34 -1,2 C -1,1 C 94 % 1014,4 hPa 0,0 l/m 11,3 km/h (2 Bft) SW 225 0 min 0,0 UV-I 0 W/m -2,0 C -5,8 C 17,7 km/h (3 Bft)
08.01.2021 04:35 -1,2 C -1,1 C 94 % 1014,4 hPa 0,0 l/m 11,3 km/h (2 Bft) W-SW 247 0 min 0,0 UV-I 0 W/m -2,0 C -5,8 C 17,7 km/h (3 Bft)
08.01.2021 04:36 -1,2 C -1,1 C 94 % 1014,4 hPa 0,0 l/m 9,7 km/h (2 Bft) W-SW 247 0 min 0,0 UV-I 0 W/m -2,0 C -4,5 C 14,5 km/h (3 Bft)
08.01.2021 04:37 -1,2 C -1,1 C 94 % 1014,3 hPa 0,0 l/m 14,5 km/h (3 Bft) W-SW 247 0 min 0,0 UV-I 0 W/m -2,0 C -8,1 C 25,7 km/h (4 Bft)
08.01.2021 04:38 -1,3 C -1,1 C 94 % 1014,3 hPa 0,0 l/m 9,7 km/h (2 Bft) SW 225 0 min 0,0 UV-I 0 W/m -2,1 C -4,6 C 19,3 km/h (3 Bft)
08.01.2021 04:39 -1,3 C -1,1 C 94 % 1014,3 hPa 0,0 l/m 9,7 km/h (2 Bft) W-SW 247 0 min 0,0 UV-I 0 W/m -2,1 C -4,6 C 20,9 km/h (4 Bft)
08.01.2021 04:40 -1,3 C -1,1 C 94 % 1014,3 hPa 0,0 l/m 11,3 km/h (2 Bft) SW 225 0 min 0,0 UV-I 0 W/m -2,1 C -6,0 C 20,9 km/h (4 Bft)
08.01.2021 04:41 -1,3 C -1,1 C 94 % 1014,4 hPa 0,0 l/m 9,7 km/h (2 Bft) W-SW 247 0 min 0,0 UV-I 0 W/m -2,1 C -4,6 C 17,7 km/h (3 Bft)
08.01.2021 04:42 -1,3 C -1,1 C 94 % 1014,4 hPa 0,0 l/m 9,7 km/h (2 Bft) SW 225 0 min 0,0 UV-I 0 W/m -2,1 C -4,6 C 17,7 km/h (3 Bft)
08.01.2021 04:43 -1,3 C -1,1 C 94 % 1014,4 hPa 0,0 l/m 9,7 km/h (2 Bft) SW 225 0 min 0,0 UV-I 0 W/m -2,1 C -4,6 C 14,5 km/h (3 Bft)
08.01.2021 04:44 -1,3 C -1,1 C 94 % 1014,4 hPa 0,0 l/m 14,5 km/h (3 Bft) W-SW 247 0 min 0,0 UV-I 0 W/m -2,1 C -8,2 C 20,9 km/h (4 Bft)
08.01.2021 04:45 -1,3 C -1,1 C 94 % 1014,3 hPa 0,0 l/m 6,4 km/h (2 Bft) SW 225 0 min 0,0 UV-I 0 W/m -2,1 C -1,3 C 14,5 km/h (3 Bft)
08.01.2021 04:46 -1,3 C -1,1 C 94 % 1014,4 hPa 0,0 l/m 4,8 km/h (1 Bft) SW 225 0 min 0,0 UV-I 0 W/m -2,1 C -1,3 C 8,0 km/h (2 Bft)
08.01.2021 04:47 -1,3 C -1,1 C 94 % 1014,4 hPa 0,0 l/m 11,3 km/h (2 Bft) SW 225 0 min 0,0 UV-I 0 W/m -2,1 C -6,0 C 20,9 km/h (4 Bft)
08.01.2021 04:48 -1,3 C -1,1 C 94 % 1014,4 hPa 0,0 l/m 8,0 km/h (2 Bft) SW 225 0 min 0,0 UV-I 0 W/m -2,1 C -3,0 C 11,3 km/h (2 Bft)
08.01.2021 04:49 -1,3 C -1,1 C 94 % 1014,4 hPa 0,0 l/m 9,7 km/h (2 Bft) SW 225 0 min 0,0 UV-I 0 W/m -2,1 C -4,6 C 12,9 km/h (3 Bft)
08.01.2021 04:50 -1,4 C -1,1 C 94 % 1014,4 hPa 0,0 l/m 11,3 km/h (2 Bft) W-SW 247 0 min 0,0 UV-I 0 W/m -2,2 C -6,1 C 25,7 km/h (4 Bft)
08.01.2021 04:51 -1,4 C -1,1 C 94 % 1014,4 hPa 0,0 l/m 12,9 km/h (3 Bft) SW 225 0 min 0,0 UV-I 0 W/m -2,2 C -7,3 C 19,3 km/h (3 Bft)
08.01.2021 04:52 -1,4 C -1,1 C 94 % 1014,3 hPa 0,0 l/m 11,3 km/h (2 Bft) SW 225 0 min 0,0 UV-I 0 W/m -2,2 C -6,1 C 20,9 km/h (4 Bft)
08.01.2021 04:53 -1,4 C -1,1 C 94 % 1014,4 hPa 0,0 l/m 9,7 km/h (2 Bft) SW 225 0 min 0,0 UV-I 0 W/m -2,2 C -4,7 C 17,7 km/h (3 Bft)
08.01.2021 04:54 -1,4 C -1,1 C 94 % 1014,3 hPa 0,0 l/m 8,0 km/h (2 Bft) SW 225 0 min 0,0 UV-I 0 W/m -2,2 C -3,1 C 12,9 km/h (3 Bft)
08.01.2021 04:55 -1,4 C -1,1 C 94 % 1014,4 hPa 0,0 l/m 9,7 km/h (2 Bft) W-SW 247 0 min 0,0 UV-I 0 W/m -2,2 C -4,7 C 14,5 km/h (3 Bft)
08.01.2021 04:56 -1,4 C -1,1 C 94 % 1014,4 hPa 0,0 l/m 11,3 km/h (2 Bft) SW 225 0 min 0,0 UV-I 0 W/m -2,2 C -6,1 C 19,3 km/h (3 Bft)
08.01.2021 04:57 -1,4 C -1,1 C 94 % 1014,3 hPa 0,0 l/m 12,9 km/h (3 Bft) SW 225 0 min 0,0 UV-I 0 W/m -2,2 C -7,3 C 17,7 km/h (3 Bft)
08.01.2021 04:58 -1,4 C -1,1 C 94 % 1014,3 hPa 0,0 l/m 8,0 km/h (2 Bft) SW 225 0 min 0,0 UV-I 0 W/m -2,2 C -3,1 C 11,3 km/h (2 Bft)
08.01.2021 04:59 -1,4 C -1,1 C 94 % 1014,4 hPa 0,0 l/m 6,4 km/h (2 Bft) SW 225 0 min 0,0 UV-I 0 W/m -2,2 C -1,4 C 11,3 km/h (2 Bft)
08.01.2021 05:00 -1,4 C -1,1 C 94 % 1014,3 hPa 0,0 l/m 9,7 km/h (2 Bft) SW 225 0 min 0,0 UV-I 0 W/m -2,2 C -4,7 C 19,3 km/h (3 Bft)
08.01.2021 05:01 -1,4 C -1,1 C 94 % 1014,3 hPa 0,0 l/m 9,7 km/h (2 Bft) SW 225 0 min 0,0 UV-I 0 W/m -2,2 C -4,7 C 14,5 km/h (3 Bft)
08.01.2021 05:02 -1,4 C -1,1 C 94 % 1014,3 hPa 0,0 l/m 11,3 km/h (2 Bft) SW 225 0 min 0,0 UV-I 0 W/m -2,2 C -6,1 C 16,1 km/h (3 Bft)
08.01.2021 05:03 -1,4 C -1,1 C 94 % 1014,3 hPa 0,0 l/m 11,3 km/h (2 Bft) W-SW 247 0 min 0,0 UV-I 0 W/m -2,2 C -6,1 C 19,3 km/h (3 Bft)
08.01.2021 05:04 -1,4 C -1,1 C 94 % 1014,3 hPa 0,0 l/m 11,3 km/h (2 Bft) SW 225 0 min 0,0 UV-I 0 W/m -2,2 C -6,1 C 16,1 km/h (3 Bft)
08.01.2021 05:05 -1,4 C -1,1 C 94 % 1014,4 hPa 0,0 l/m 11,3 km/h (2 Bft) SW 225 0 min 0,0 UV-I 0 W/m -2,2 C -6,1 C 20,9 km/h (4 Bft)
08.01.2021 05:06 -1,4 C -1,1 C 94 % 1014,4 hPa 0,0 l/m 14,5 km/h (3 Bft) SW 225 0 min 0,0 UV-I 0 W/m -2,2 C -8,4 C 24,1 km/h (4 Bft)
08.01.2021 05:07 -1,4 C -1,1 C 94 % 1014,3 hPa 0,0 l/m 11,3 km/h (2 Bft) W-SW 247 0 min 0,0 UV-I 0 W/m -2,2 C -6,1 C 20,9 km/h (4 Bft)
08.01.2021 05:08 -1,4 C -1,1 C 94 % 1014,3 hPa 0,0 l/m 11,3 km/h (2 Bft) SW 225 0 min 0,0 UV-I 0 W/m -2,2 C -6,1 C 17,7 km/h (3 Bft)
08.01.2021 05:09 -1,4 C -1,1 C 94 % 1014,3 hPa 0,0 l/m 6,4 km/h (2 Bft) SW 225 0 min 0,0 UV-I 0 W/m -2,2 C -1,4 C 11,3 km/h (2 Bft)
08.01.2021 05:10 -1,5 C -1,1 C 94 % 1014,4 hPa 0,0 l/m 9,7 km/h (2 Bft) SW 225 0 min 0,0 UV-I 0 W/m -2,3 C -4,8 C 17,7 km/h (3 Bft)
08.01.2021 05:11 -1,4 C -1,1 C 94 % 1014,4 hPa 0,0 l/m 4,8 km/h (1 Bft) W-SW 247 0 min 0,0 UV-I 0 W/m -2,2 C -1,4 C 6,4 km/h (2 Bft)
08.01.2021 05:12 -1,5 C -1,1 C 94 % 1014,4 hPa 0,0 l/m 12,9 km/h (3 Bft) W-SW 247 0 min 0,0 UV-I 0 W/m -2,3 C -7,4 C 19,3 km/h (3 Bft)
08.01.2021 05:13 -1,5 C -1,1 C 94 % 1014,4 hPa 0,0 l/m 9,7 km/h (2 Bft) W-SW 247 0 min 0,0 UV-I 0 W/m -2,3 C -4,8 C 17,7 km/h (3 Bft)
08.01.2021 05:14 -1,5 C -1,1 C 94 % 1014,4 hPa 0,0 l/m 8,0 km/h (2 Bft) SW 225 0 min 0,0 UV-I 0 W/m -2,3 C -3,2 C 11,3 km/h (2 Bft)
08.01.2021 05:15 -1,5 C -1,1 C 94 % 1014,4 hPa 0,0 l/m 8,0 km/h (2 Bft) W-SW 247 0 min 0,0 UV-I 0 W/m -2,3 C -3,2 C 12,9 km/h (3 Bft)
08.01.2021 05:16 -1,5 C -1,1 C 94 % 1014,4 hPa 0,0 l/m 12,9 km/h (3 Bft) SW 225 0 min 0,0 UV-I 0 W/m -2,3 C -7,4 C 22,5 km/h (4 Bft)
08.01.2021 05:17 -1,5 C -1,1 C 94 % 1014,4 hPa 0,0 l/m 9,7 km/h (2 Bft) SW 225 0 min 0,0 UV-I 0 W/m -2,3 C -4,8 C 16,1 km/h (3 Bft)
08.01.2021 05:18 -1,5 C -1,1 C 94 % 1014,4 hPa 0,0 l/m 6,4 km/h (2 Bft) SW 225 0 min 0,0 UV-I 0 W/m -2,3 C -1,5 C 11,3 km/h (2 Bft)
08.01.2021 05:19 -1,5 C -1,1 C 94 % 1014,4 hPa 0,0 l/m 12,9 km/h (3 Bft) SW 225 0 min 0,0 UV-I 0 W/m -2,3 C -7,4 C 19,3 km/h (3 Bft)
08.01.2021 05:20 -1,5 C -1,1 C 94 % 1014,5 hPa 0,0 l/m 9,7 km/h (2 Bft) SW 225 0 min 0,0 UV-I 0 W/m -2,3 C -4,8 C 14,5 km/h (3 Bft)
08.01.2021 05:21 -1,5 C -1,1 C 94 % 1014,4 hPa 0,0 l/m 8,0 km/h (2 Bft) SW 225 0 min 0,0 UV-I 0 W/m -2,3 C -3,2 C 12,9 km/h (3 Bft)
08.01.2021 05:22 -1,5 C -1,1 C 94 % 1014,4 hPa 0,0 l/m 11,3 km/h (2 Bft) SW 225 0 min 0,0 UV-I 0 W/m -2,3 C -6,2 C 19,3 km/h (3 Bft)
08.01.2021 05:23 -1,5 C -1,1 C 94 % 1014,5 hPa 0,0 l/m 11,3 km/h (2 Bft) SW 225 0 min 0,0 UV-I 0 W/m -2,3 C -6,2 C 17,7 km/h (3 Bft)
08.01.2021 05:24 -1,6 C -1,1 C 94 % 1014,4 hPa 0,0 l/m 9,7 km/h (2 Bft) SW 225 0 min 0,0 UV-I 0 W/m -2,4 C -5,0 C 14,5 km/h (3 Bft)
08.01.2021 05:25 -1,6 C -1,1 C 94 % 1014,5 hPa 0,0 l/m 8,0 km/h (2 Bft) SW 225 0 min 0,0 UV-I 0 W/m -2,4 C -3,3 C 11,3 km/h (2 Bft)
08.01.2021 05:26 -1,6 C -1,1 C 94 % 1014,5 hPa 0,0 l/m 6,4 km/h (2 Bft) SW 225 0 min 0,0 UV-I 0 W/m -2,4 C -1,6 C 14,5 km/h (3 Bft)
08.01.2021 05:27 -1,5 C -1,1 C 94 % 1014,5 hPa 0,0 l/m 11,3 km/h (2 Bft) W-SW 247 0 min 0,0 UV-I 0 W/m -2,3 C -6,2 C 19,3 km/h (3 Bft)
08.01.2021 05:28 -1,6 C -1,1 C 94 % 1014,5 hPa 0,0 l/m 9,7 km/h (2 Bft) SW 225 0 min 0,0 UV-I 0 W/m -2,4 C -5,0 C 16,1 km/h (3 Bft)
08.01.2021 05:29 -1,6 C -1,1 C 94 % 1014,5 hPa 0,0 l/m 9,7 km/h (2 Bft) W 270 0 min 0,0 UV-I 0 W/m -2,4 C -5,0 C 16,1 km/h (3 Bft)
08.01.2021 05:30 -1,6 C -1,1 C 94 % 1014,5 hPa 0,0 l/m 11,3 km/h (2 Bft) SW 225 0 min 0,0 UV-I 0 W/m -2,4 C -6,3 C 14,5 km/h (3 Bft)
08.01.2021 05:31 -1,6 C -1,1 C 94 % 1014,5 hPa 0,0 l/m 11,3 km/h (2 Bft) SW 225 0 min 0,0 UV-I 0 W/m -2,4 C -6,3 C 14,5 km/h (3 Bft)
08.01.2021 05:32 -1,6 C -1,1 C 94 % 1014,5 hPa 0,0 l/m 9,7 km/h (2 Bft) S-SW 202 0 min 0,0 UV-I 0 W/m -2,4 C -5,0 C 12,9 km/h (3 Bft)
08.01.2021 05:33 -1,6 C -1,1 C 94 % 1014,5 hPa 0,0 l/m 12,9 km/h (3 Bft) SW 225 0 min 0,0 UV-I 0 W/m -2,4 C -7,5 C 17,7 km/h (3 Bft)
08.01.2021 05:34 -1,6 C -1,1 C 94 % 1014,6 hPa 0,0 l/m 12,9 km/h (3 Bft) W-SW 247 0 min 0,0 UV-I 0 W/m -2,4 C -7,5 C 17,7 km/h (3 Bft)
08.01.2021 05:35 -1,6 C -1,1 C 94 % 1014,5 hPa 0,0 l/m 14,5 km/h (3 Bft) W-SW 247 0 min 0,0 UV-I 0 W/m -2,4 C -8,6 C 22,5 km/h (4 Bft)
08.01.2021 05:36 -1,6 C -1,1 C 94 % 1014,5 hPa 0,0 l/m 12,9 km/h (3 Bft) W-SW 247 0 min 0,0 UV-I 0 W/m -2,4 C -7,5 C 20,9 km/h (4 Bft)
08.01.2021 05:37 -1,6 C -1,1 C 94 % 1014,5 hPa 0,0 l/m 8,0 km/h (2 Bft) W 270 0 min 0,0 UV-I 0 W/m -2,4 C -3,3 C 14,5 km/h (3 Bft)
08.01.2021 05:38 -1,6 C -1,1 C 94 % 1014,5 hPa 0,0 l/m 11,3 km/h (2 Bft) SW 225 0 min 0,0 UV-I 0 W/m -2,4 C -6,3 C 19,3 km/h (3 Bft)
08.01.2021 05:39 -1,6 C -1,1 C 94 % 1014,5 hPa 0,0 l/m 8,0 km/h (2 Bft) SW 225 0 min 0,0 UV-I 0 W/m -2,4 C -3,3 C 17,7 km/h (3 Bft)
08.01.2021 05:40 -1,6 C -1,1 C 94 % 1014,6 hPa 0,0 l/m 6,4 km/h (2 Bft) W 270 0 min 0,0 UV-I 0 W/m -2,4 C -1,6 C 11,3 km/h (2 Bft)
08.01.2021 05:41 -1,6 C -1,1 C 94 % 1014,5 hPa 0,0 l/m 9,7 km/h (2 Bft) SW 225 0 min 0,0 UV-I 0 W/m -2,4 C -5,0 C 16,1 km/h (3 Bft)
08.01.2021 05:42 -1,6 C -1,1 C 94 % 1014,4 hPa 0,0 l/m 11,3 km/h (2 Bft) W-SW 247 0 min 0,0 UV-I 0 W/m -2,4 C -6,3 C 20,9 km/h (4 Bft)
08.01.2021 05:43 -1,6 C -1,1 C 94 % 1014,4 hPa 0,2 l/m 14,5 km/h (3 Bft) SW 225 0 min 0,0 UV-I 0 W/m -2,4 C -8,6 C 19,3 km/h (3 Bft)
08.01.2021 05:44 -1,6 C -1,1 C 94 % 1014,5 hPa 0,0 l/m 12,9 km/h (3 Bft) SW 225 0 min 0,0 UV-I 0 W/m -2,4 C -7,5 C 17,7 km/h (3 Bft)
08.01.2021 05:45 -1,6 C -1,1 C 94 % 1014,4 hPa 0,0 l/m 9,7 km/h (2 Bft) SW 225 0 min 0,0 UV-I 0 W/m -2,4 C -5,0 C 16,1 km/h (3 Bft)
08.01.2021 05:46 -1,6 C -1,1 C 94 % 1014,4 hPa 0,0 l/m 11,3 km/h (2 Bft) SW 225 0 min 0,0 UV-I 0 W/m -2,4 C -6,3 C 16,1 km/h (3 Bft)
08.01.2021 05:47 -1,6 C -1,1 C 94 % 1014,5 hPa 0,0 l/m 9,7 km/h (2 Bft) W-SW 247 0 min 0,0 UV-I 0 W/m -2,4 C -5,0 C 14,5 km/h (3 Bft)
08.01.2021 05:48 -1,6 C -1,1 C 94 % 1014,5 hPa 0,0 l/m 11,3 km/h (2 Bft) SW 225 0 min 0,0 UV-I 0 W/m -2,4 C -6,3 C 17,7 km/h (3 Bft)
08.01.2021 05:49 -1,6 C -1,1 C 94 % 1014,5 hPa 0,0 l/m 11,3 km/h (2 Bft) SW 225 0 min 0,0 UV-I 0 W/m -2,4 C -6,3 C 14,5 km/h (3 Bft)
08.01.2021 05:50 -1,6 C -1,1 C 94 % 1014,4 hPa 0,0 l/m 12,9 km/h (3 Bft) SW 225 0 min 0,0 UV-I 0 W/m -2,4 C -7,5 C 20,9 km/h (4 Bft)
08.01.2021 05:51 -1,6 C -1,1 C 94 % 1014,5 hPa 0,0 l/m 14,5 km/h (3 Bft) SW 225 0 min 0,0 UV-I 0 W/m -2,4 C -8,6 C 19,3 km/h (3 Bft)
08.01.2021 05:52 -1,6 C -1,1 C 94 % 1014,5 hPa 0,0 l/m 11,3 km/h (2 Bft) SW 225 0 min 0,0 UV-I 0 W/m -2,4 C -6,3 C 17,7 km/h (3 Bft)
08.01.2021 05:53 -1,6 C -1,1 C 94 % 1014,5 hPa 0,0 l/m 14,5 km/h (3 Bft) SW 225 0 min 0,0 UV-I 0 W/m -2,4 C -8,6 C 20,9 km/h (4 Bft)
08.01.2021 05:54 -1,6 C -1,1 C 94 % 1014,5 hPa 0,0 l/m 9,7 km/h (2 Bft) W-SW 247 0 min 0,0 UV-I 0 W/m -2,4 C -5,0 C 14,5 km/h (3 Bft)
08.01.2021 05:55 -1,6 C -1,1 C 94 % 1014,6 hPa 0,0 l/m 12,9 km/h (3 Bft) SW 225 0 min 0,0 UV-I 0 W/m -2,4 C -7,5 C 22,5 km/h (4 Bft)
08.01.2021 05:56 -1,6 C -1,1 C 94 % 1014,5 hPa 0,0 l/m 14,5 km/h (3 Bft) SW 225 0 min 0,0 UV-I 0 W/m -2,4 C -8,6 C 22,5 km/h (4 Bft)
08.01.2021 05:57 -1,5 C -1,1 C 94 % 1014,5 hPa 0,0 l/m 12,9 km/h (3 Bft) S-SW 202 0 min 0,0 UV-I 0 W/m -2,3 C -7,4 C 17,7 km/h (3 Bft)
08.01.2021 05:58 -1,6 C -1,1 C 94 % 1014,5 hPa 0,0 l/m 14,5 km/h (3 Bft) SW 225 0 min 0,0 UV-I 0 W/m -2,4 C -8,6 C 25,7 km/h (4 Bft)
08.01.2021 05:59 -1,6 C -1,1 C 94 % 1014,5 hPa 0,0 l/m 12,9 km/h (3 Bft) SW 225 0 min 0,0 UV-I 0 W/m -2,4 C -7,5 C 27,4 km/h (4 Bft)
08.01.2021 06:00 -1,6 C -1,1 C 94 % 1014,5 hPa 0,0 l/m 9,7 km/h (2 Bft) W-SW 247 0 min 0,0 UV-I 0 W/m -2,4 C -5,0 C 17,7 km/h (3 Bft)
08.01.2021 06:01 -1,6 C -1,1 C 94 % 1014,5 hPa 0,0 l/m 12,9 km/h (3 Bft) SW 225 0 min 0,0 UV-I 0 W/m -2,4 C -7,5 C 20,9 km/h (4 Bft)
08.01.2021 06:02 -1,6 C -1,1 C 94 % 1014,5 hPa 0,0 l/m 9,7 km/h (2 Bft) SW 225 0 min 0,0 UV-I 0 W/m -2,4 C -5,0 C 14,5 km/h (3 Bft)
08.01.2021 06:03 -1,6 C -1,1 C 94 % 1014,5 hPa 0,0 l/m 12,9 km/h (3 Bft) W-SW 247 0 min 0,0 UV-I 0 W/m -2,4 C -7,5 C 17,7 km/h (3 Bft)
08.01.2021 06:04 -1,6 C -1,1 C 94 % 1014,4 hPa 0,0 l/m 11,3 km/h (2 Bft) SW 225 0 min 0,0 UV-I 0 W/m -2,4 C -6,3 C 19,3 km/h (3 Bft)
08.01.2021 06:05 -1,6 C -1,1 C 94 % 1014,4 hPa 0,0 l/m 12,9 km/h (3 Bft) SW 225 0 min 0,0 UV-I 0 W/m -2,4 C -7,5 C 17,7 km/h (3 Bft)
08.01.2021 06:06 -1,6 C -1,1 C 94 % 1014,5 hPa 0,0 l/m 14,5 km/h (3 Bft) SW 225 0 min 0,0 UV-I 0 W/m -2,4 C -8,6 C 19,3 km/h (3 Bft)
08.01.2021 06:07 -1,6 C -1,1 C 94 % 1014,5 hPa 0,0 l/m 17,7 km/h (3 Bft) SW 225 0 min 0,0 UV-I 0 W/m -2,4 C -10,5 C 29,0 km/h (5 Bft)
08.01.2021 06:08 -1,6 C -1,1 C 94 % 1014,4 hPa 0,0 l/m 11,3 km/h (2 Bft) W-SW 247 0 min 0,0 UV-I 0 W/m -2,4 C -6,3 C 29,0 km/h (5 Bft)
08.01.2021 06:09 -1,6 C -1,1 C 94 % 1014,5 hPa 0,0 l/m 14,5 km/h (3 Bft) W-SW 247 0 min 0,0 UV-I 0 W/m -2,4 C -8,6 C 20,9 km/h (4 Bft)
08.01.2021 06:10 -1,6 C -1,1 C 94 % 1014,4 hPa 0,0 l/m 14,5 km/h (3 Bft) W-SW 247 0 min 0,0 UV-I 0 W/m -2,4 C -8,6 C 25,7 km/h (4 Bft)
08.01.2021 06:11 -1,6 C -1,1 C 94 % 1014,4 hPa 0,0 l/m 12,9 km/h (3 Bft) SW 225 0 min 0,0 UV-I 0 W/m -2,4 C -7,5 C 20,9 km/h (4 Bft)
08.01.2021 06:12 -1,6 C -1,1 C 94 % 1014,5 hPa 0,0 l/m 11,3 km/h (2 Bft) W-SW 247 0 min 0,0 UV-I 0 W/m -2,4 C -6,3 C 16,1 km/h (3 Bft)
08.01.2021 06:13 -1,6 C -1,1 C 94 % 1014,4 hPa 0,0 l/m 16,1 km/h (3 Bft) W-SW 247 0 min 0,0 UV-I 0 W/m -2,4 C -9,6 C 25,7 km/h (4 Bft)
08.01.2021 06:14 -1,6 C -1,1 C 94 % 1014,5 hPa 0,0 l/m 11,3 km/h (2 Bft) SW 225 0 min 0,0 UV-I 0 W/m -2,4 C -6,3 C 19,3 km/h (3 Bft)
08.01.2021 06:15 -1,6 C -1,1 C 94 % 1014,5 hPa 0,0 l/m 12,9 km/h (3 Bft) SW 225 0 min 0,0 UV-I 0 W/m -2,4 C -7,5 C 24,1 km/h (4 Bft)
08.01.2021 06:16 -1,6 C -1,1 C 94 % 1014,5 hPa 0,0 l/m 12,9 km/h (3 Bft) W-SW 247 0 min 0,0 UV-I 0 W/m -2,4 C -7,5 C 20,9 km/h (4 Bft)
08.01.2021 06:17 -1,6 C -1,1 C 94 % 1014,5 hPa 0,0 l/m 12,9 km/h (3 Bft) SW 225 0 min 0,0 UV-I 0 W/m -2,4 C -7,5 C 17,7 km/h (3 Bft)
08.01.2021 06:18 -1,6 C -1,1 C 94 % 1014,5 hPa 0,0 l/m 12,9 km/h (3 Bft) W-SW 247 0 min 0,0 UV-I 0 W/m -2,4 C -7,5 C 17,7 km/h (3 Bft)
08.01.2021 06:19 -1,6 C -1,1 C 94 % 1014,5 hPa 0,0 l/m 8,0 km/h (2 Bft) SW 225 0 min 0,0 UV-I 0 W/m -2,4 C -3,3 C 14,5 km/h (3 Bft)
08.01.2021 06:20 -1,6 C -1,1 C 94 % 1014,5 hPa 0,0 l/m 12,9 km/h (3 Bft) SW 225 0 min 0,0 UV-I 0 W/m -2,4 C -7,5 C 20,9 km/h (4 Bft)
08.01.2021 06:21 -1,6 C -1,1 C 94 % 1014,5 hPa 0,0 l/m 8,0 km/h (2 Bft) SW 225 0 min 0,0 UV-I 0 W/m -2,4 C -3,3 C 12,9 km/h (3 Bft)
08.01.2021 06:22 -1,6 C -1,1 C 94 % 1014,5 hPa 0,0 l/m 9,7 km/h (2 Bft) W-SW 247 0 min 0,0 UV-I 0 W/m -2,4 C -5,0 C 16,1 km/h (3 Bft)
08.01.2021 06:23 -1,6 C -1,1 C 94 % 1014,5 hPa 0,0 l/m 11,3 km/h (2 Bft) W-SW 247 0 min 0,0 UV-I 0 W/m -2,4 C -6,3 C 16,1 km/h (3 Bft)
08.01.2021 06:24 -1,6 C -1,1 C 94 % 1014,5 hPa 0,0 l/m 9,7 km/h (2 Bft) SW 225 0 min 0,0 UV-I 0 W/m -2,4 C -5,0 C 16,1 km/h (3 Bft)
08.01.2021 06:25 -1,6 C -1,1 C 94 % 1014,6 hPa 0,0 l/m 12,9 km/h (3 Bft) SW 225 0 min 0,0 UV-I 0 W/m -2,4 C -7,5 C 19,3 km/h (3 Bft)
08.01.2021 06:26 -1,6 C -1,1 C 94 % 1014,5 hPa 0,0 l/m 11,3 km/h (2 Bft) SW 225 0 min 0,0 UV-I 0 W/m -2,4 C -6,3 C 16,1 km/h (3 Bft)
08.01.2021 06:27 -1,6 C -1,1 C 94 % 1014,5 hPa 0,0 l/m 9,7 km/h (2 Bft) SW 225 0 min 0,0 UV-I 0 W/m -2,4 C -5,0 C 16,1 km/h (3 Bft)
08.01.2021 06:28 -1,6 C -1,1 C 94 % 1014,5 hPa 0,0 l/m 9,7 km/h (2 Bft) SW 225 0 min 0,0 UV-I 0 W/m -2,4 C -5,0 C 16,1 km/h (3 Bft)
08.01.2021 06:29 -1,6 C -1,1 C 94 % 1014,5 hPa 0,0 l/m 8,0 km/h (2 Bft) SW 225 0 min 0,0 UV-I 0 W/m -2,4 C -3,3 C 14,5 km/h (3 Bft)
08.01.2021 06:30 -1,6 C -1,1 C 94 % 1014,6 hPa 0,0 l/m 9,7 km/h (2 Bft) SW 225 0 min 0,0 UV-I 0 W/m -2,4 C -5,0 C 17,7 km/h (3 Bft)
08.01.2021 06:31 -1,6 C -1,1 C 94 % 1014,6 hPa 0,0 l/m 8,0 km/h (2 Bft) W-SW 247 0 min 0,0 UV-I 0 W/m -2,4 C -3,3 C 12,9 km/h (3 Bft)
08.01.2021 06:32 -1,6 C -1,1 C 94 % 1014,6 hPa 0,0 l/m 11,3 km/h (2 Bft) W-SW 247 0 min 0,0 UV-I 0 W/m -2,4 C -6,3 C 19,3 km/h (3 Bft)
08.01.2021 06:33 -1,6 C -1,1 C 94 % 1014,6 hPa 0,0 l/m 11,3 km/h (2 Bft) W-SW 247 0 min 0,0 UV-I 0 W/m -2,4 C -6,3 C 17,7 km/h (3 Bft)
08.01.2021 06:34 -1,6 C -1,1 C 94 % 1014,6 hPa 0,0 l/m 6,4 km/h (2 Bft) SW 225 0 min 0,0 UV-I 0 W/m -2,4 C -1,6 C 9,7 km/h (2 Bft)
08.01.2021 06:35 -1,6 C -1,1 C 94 % 1014,6 hPa 0,0 l/m 9,7 km/h (2 Bft) W-SW 247 0 min 0,0 UV-I 0 W/m -2,4 C -5,0 C 16,1 km/h (3 Bft)
08.01.2021 06:36 -1,6 C -1,1 C 94 % 1014,6 hPa 0,0 l/m 9,7 km/h (2 Bft) W-SW 247 0 min 0,0 UV-I 0 W/m -2,4 C -5,0 C 14,5 km/h (3 Bft)
08.01.2021 06:37 -1,7 C -1,1 C 94 % 1014,6 hPa 0,0 l/m 9,7 km/h (2 Bft) SW 225 0 min 0,0 UV-I 0 W/m -2,5 C -5,1 C 17,7 km/h (3 Bft)
08.01.2021 06:38 -1,7 C -1,1 C 94 % 1014,6 hPa 0,2 l/m 16,1 km/h (3 Bft) W-SW 247 0 min 0,0 UV-I 0 W/m -2,5 C -9,7 C 22,5 km/h (4 Bft)
08.01.2021 06:39 -1,6 C -1,1 C 94 % 1014,6 hPa 0,0 l/m 8,0 km/h (2 Bft) SW 225 0 min 0,0 UV-I 0 W/m -2,4 C -3,3 C 17,7 km/h (3 Bft)
08.01.2021 06:40 -1,6 C -1,1 C 94 % 1014,6 hPa 0,0 l/m 11,3 km/h (2 Bft) SW 225 0 min 0,0 UV-I 0 W/m -2,4 C -6,3 C 17,7 km/h (3 Bft)
08.01.2021 06:41 -1,6 C -1,1 C 94 % 1014,6 hPa 0,0 l/m 12,9 km/h (3 Bft) W-SW 247 0 min 0,0 UV-I 0 W/m -2,4 C -7,5 C 19,3 km/h (3 Bft)
08.01.2021 06:42 -1,6 C -1,1 C 94 % 1014,7 hPa 0,0 l/m 14,5 km/h (3 Bft) W-SW 247 0 min 0,0 UV-I 0 W/m -2,4 C -8,6 C 20,9 km/h (4 Bft)
08.01.2021 06:43 -1,7 C -1,1 C 94 % 1014,7 hPa 0,0 l/m 9,7 km/h (2 Bft) W-SW 247 0 min 0,0 UV-I 0 W/m -2,5 C -5,1 C 16,1 km/h (3 Bft)
08.01.2021 06:44 -1,7 C -1,1 C 94 % 1014,6 hPa 0,0 l/m 12,9 km/h (3 Bft) SW 225 0 min 0,0 UV-I 0 W/m -2,5 C -7,6 C 19,3 km/h (3 Bft)
08.01.2021 06:45 -1,7 C -1,1 C 94 % 1014,6 hPa 0,0 l/m 12,9 km/h (3 Bft) SW 225 0 min 0,0 UV-I 0 W/m -2,5 C -7,6 C 19,3 km/h (3 Bft)
08.01.2021 06:46 -1,7 C -1,1 C 94 % 1014,6 hPa 0,0 l/m 12,9 km/h (3 Bft) SW 225 0 min 0,0 UV-I 0 W/m -2,5 C -7,6 C 19,3 km/h (3 Bft)
08.01.2021 06:47 -1,7 C -1,1 C 94 % 1014,7 hPa 0,0 l/m 12,9 km/h (3 Bft) SW 225 0 min 0,0 UV-I 0 W/m -2,5 C -7,6 C 20,9 km/h (4 Bft)
08.01.2021 06:48 -1,7 C -1,1 C 94 % 1014,6 hPa 0,0 l/m 11,3 km/h (2 Bft) W-SW 247 0 min 0,0 UV-I 0 W/m -2,5 C -6,4 C 19,3 km/h (3 Bft)
08.01.2021 06:49 -1,7 C -1,1 C 94 % 1014,6 hPa 0,0 l/m 9,7 km/h (2 Bft) W-SW 247 0 min 0,0 UV-I 0 W/m -2,5 C -5,1 C 25,7 km/h (4 Bft)
08.01.2021 06:50 -1,7 C -1,1 C 94 % 1014,6 hPa 0,0 l/m 14,5 km/h (3 Bft) SW 225 0 min 0,0 UV-I 0 W/m -2,5 C -8,7 C 22,5 km/h (4 Bft)
08.01.2021 06:51 -1,7 C -1,1 C 94 % 1014,6 hPa 0,0 l/m 12,9 km/h (3 Bft) SW 225 0 min 0,0 UV-I 0 W/m -2,5 C -7,6 C 20,9 km/h (4 Bft)
08.01.2021 06:52 -1,7 C -1,1 C 94 % 1014,6 hPa 0,0 l/m 12,9 km/h (3 Bft) SW 225 0 min 0,0 UV-I 0 W/m -2,5 C -7,6 C 20,9 km/h (4 Bft)
08.01.2021 06:53 -1,7 C -1,1 C 94 % 1014,6 hPa 0,0 l/m 11,3 km/h (2 Bft) SW 225 0 min 0,0 UV-I 0 W/m -2,5 C -6,4 C 16,1 km/h (3 Bft)
08.01.2021 06:54 -1,7 C -1,1 C 94 % 1014,6 hPa 0,0 l/m 6,4 km/h (2 Bft) SW 225 0 min 0,0 UV-I 0 W/m -2,5 C -1,7 C 12,9 km/h (3 Bft)
08.01.2021 06:55 -1,7 C -1,1 C 94 % 1014,6 hPa 0,0 l/m 9,7 km/h (2 Bft) SW 225 0 min 0,0 UV-I 0 W/m -2,5 C -5,1 C 14,5 km/h (3 Bft)
08.01.2021 06:56 -1,7 C -1,1 C 94 % 1014,6 hPa 0,0 l/m 11,3 km/h (2 Bft) SW 225 0 min 0,0 UV-I 0 W/m -2,5 C -6,4 C 16,1 km/h (3 Bft)
08.01.2021 06:57 -1,7 C -1,1 C 94 % 1014,7 hPa 0,0 l/m 11,3 km/h (2 Bft) W-SW 247 0 min 0,0 UV-I 0 W/m -2,5 C -6,4 C 16,1 km/h (3 Bft)
08.01.2021 06:58 -1,7 C -1,1 C 94 % 1014,7 hPa 0,0 l/m 9,7 km/h (2 Bft) SW 225 0 min 0,0 UV-I 0 W/m -2,5 C -5,1 C 16,1 km/h (3 Bft)
08.01.2021 06:59 -1,7 C -1,1 C 94 % 1014,7 hPa 0,0 l/m 9,7 km/h (2 Bft) W-SW 247 0 min 0,0 UV-I 0 W/m -2,5 C -5,1 C 12,9 km/h (3 Bft)
08.01.2021 07:00 -1,7 C -1,1 C 94 % 1014,7 hPa 0,0 l/m 8,0 km/h (2 Bft) SW 225 0 min 0,0 UV-I 0 W/m -2,5 C -3,4 C 12,9 km/h (3 Bft)
08.01.2021 07:01 -1,7 C -1,1 C 94 % 1014,7 hPa 0,0 l/m 9,7 km/h (2 Bft) SW 225 0 min 0,0 UV-I 0 W/m -2,5 C -5,1 C 14,5 km/h (3 Bft)
08.01.2021 07:02 -1,7 C -1,1 C 94 % 1014,7 hPa 0,0 l/m 12,9 km/h (3 Bft) SW 225 0 min 0,0 UV-I 0 W/m -2,5 C -7,6 C 19,3 km/h (3 Bft)
08.01.2021 07:03 -1,7 C -1,1 C 94 % 1014,7 hPa 0,0 l/m 11,3 km/h (2 Bft) SW 225 0 min 0,0 UV-I 0 W/m -2,5 C -6,4 C 17,7 km/h (3 Bft)
08.01.2021 07:04 -1,7 C -1,1 C 94 % 1014,7 hPa 0,0 l/m 9,7 km/h (2 Bft) SW 225 0 min 0,0 UV-I 0 W/m -2,5 C -5,1 C 16,1 km/h (3 Bft)
08.01.2021 07:05 -1,7 C -1,1 C 94 % 1014,7 hPa 0,0 l/m 14,5 km/h (3 Bft) SW 225 0 min 0,0 UV-I 0 W/m -2,5 C -8,7 C 22,5 km/h (4 Bft)
08.01.2021 07:06 -1,7 C -1,1 C 94 % 1014,6 hPa 0,0 l/m 11,3 km/h (2 Bft) SW 225 0 min 0,0 UV-I 0 W/m -2,5 C -6,4 C 14,5 km/h (3 Bft)
08.01.2021 07:07 -1,7 C -1,1 C 94 % 1014,7 hPa 0,0 l/m 9,7 km/h (2 Bft) SW 225 0 min 0,0 UV-I 0 W/m -2,5 C -5,1 C 16,1 km/h (3 Bft)
08.01.2021 07:08 -1,7 C -1,1 C 94 % 1014,7 hPa 0,0 l/m 9,7 km/h (2 Bft) W-SW 247 0 min 0,0 UV-I 0 W/m -2,5 C -5,1 C 19,3 km/h (3 Bft)
08.01.2021 07:09 -1,7 C -1,1 C 94 % 1014,6 hPa 0,0 l/m 11,3 km/h (2 Bft) SW 225 0 min 0,0 UV-I 0 W/m -2,5 C -6,4 C 16,1 km/h (3 Bft)
08.01.2021 07:10 -1,7 C -1,1 C 94 % 1014,7 hPa 0,0 l/m 11,3 km/h (2 Bft) SW 225 0 min 0,0 UV-I 0 W/m -2,5 C -6,4 C 17,7 km/h (3 Bft)
08.01.2021 07:11 -1,7 C -1,1 C 94 % 1014,7 hPa 0,0 l/m 8,0 km/h (2 Bft) SW 225 0 min 0,0 UV-I 0 W/m -2,5 C -3,4 C 16,1 km/h (3 Bft)
08.01.2021 07:12 -1,7 C -1,1 C 94 % 1014,6 hPa 0,0 l/m 9,7 km/h (2 Bft) W-SW 247 0 min 0,0 UV-I 0 W/m -2,5 C -5,1 C 17,7 km/h (3 Bft)
08.01.2021 07:13 -1,7 C -1,1 C 94 % 1014,6 hPa 0,0 l/m 11,3 km/h (2 Bft) SW 225 0 min 0,0 UV-I 0 W/m -2,5 C -6,4 C 17,7 km/h (3 Bft)
08.01.2021 07:14 -1,7 C -1,1 C 94 % 1014,6 hPa 0,0 l/m 9,7 km/h (2 Bft) SW 225 0 min 0,0 UV-I 0 W/m -2,5 C -5,1 C 14,5 km/h (3 Bft)
08.01.2021 07:15 -1,7 C -1,1 C 94 % 1014,7 hPa 0,0 l/m 9,7 km/h (2 Bft) W-SW 247 0 min 0,0 UV-I 0 W/m -2,5 C -5,1 C 14,5 km/h (3 Bft)
08.01.2021 07:16 -1,7 C -1,1 C 94 % 1014,7 hPa 0,0 l/m 6,4 km/h (2 Bft) SW 225 0 min 0,0 UV-I 0 W/m -2,5 C -1,7 C 11,3 km/h (2 Bft)
08.01.2021 07:17 -1,7 C -1,1 C 94 % 1014,8 hPa 0,0 l/m 9,7 km/h (2 Bft) W-SW 247 0 min 0,0 UV-I 0 W/m -2,5 C -5,1 C 14,5 km/h (3 Bft)
08.01.2021 07:18 -1,7 C -1,1 C 94 % 1014,7 hPa 0,2 l/m 9,7 km/h (2 Bft) W-SW 247 0 min 0,0 UV-I 0 W/m -2,5 C -5,1 C 16,1 km/h (3 Bft)
08.01.2021 07:19 -1,7 C -1,1 C 94 % 1014,8 hPa 0,0 l/m 8,0 km/h (2 Bft) W-SW 247 0 min 0,0 UV-I 0 W/m -2,5 C -3,4 C 11,3 km/h (2 Bft)
08.01.2021 07:20 -1,7 C -1,1 C 94 % 1014,8 hPa 0,0 l/m 6,4 km/h (2 Bft) W-SW 247 0 min 0,0 UV-I 0 W/m -2,5 C -1,7 C 8,0 km/h (2 Bft)
08.01.2021 07:21 -1,7 C -1,1 C 94 % 1014,8 hPa 0,0 l/m 9,7 km/h (2 Bft) SW 225 0 min 0,0 UV-I 0 W/m -2,5 C -5,1 C 16,1 km/h (3 Bft)
08.01.2021 07:22 -1,7 C -1,1 C 94 % 1014,7 hPa 0,0 l/m 9,7 km/h (2 Bft) SW 225 0 min 0,0 UV-I 0 W/m -2,5 C -5,1 C 14,5 km/h (3 Bft)
08.01.2021 07:23 -1,7 C -1,1 C 94 % 1014,8 hPa 0,0 l/m 4,8 km/h (1 Bft) SW 225 0 min 0,0 UV-I 0 W/m -2,5 C -1,7 C 8,0 km/h (2 Bft)
08.01.2021 07:24 -1,7 C -1,1 C 94 % 1014,7 hPa 0,0 l/m 8,0 km/h (2 Bft) SW 225 0 min 0,0 UV-I 0 W/m -2,5 C -3,4 C 9,7 km/h (2 Bft)
08.01.2021 07:25 -1,7 C -1,1 C 94 % 1014,7 hPa 0,0 l/m 8,0 km/h (2 Bft) SW 225 0 min 0,0 UV-I 0 W/m -2,5 C -3,4 C 12,9 km/h (3 Bft)
08.01.2021 07:26 -1,7 C -1,1 C 94 % 1014,8 hPa 0,0 l/m 8,0 km/h (2 Bft) W-SW 247 0 min 0,0 UV-I 0 W/m -2,5 C -3,4 C 12,9 km/h (3 Bft)
08.01.2021 07:27 -1,7 C -1,1 C 94 % 1014,8 hPa 0,0 l/m 8,0 km/h (2 Bft) SW 225 0 min 0,0 UV-I 0 W/m -2,5 C -3,4 C 22,5 km/h (4 Bft)
08.01.2021 07:28 -1,7 C -1,1 C 94 % 1014,9 hPa 0,0 l/m 11,3 km/h (2 Bft) SW 225 0 min 0,0 UV-I 0 W/m -2,5 C -6,4 C 16,1 km/h (3 Bft)
08.01.2021 07:29 -1,7 C -1,1 C 94 % 1014,8 hPa 0,0 l/m 8,0 km/h (2 Bft) SW 225 0 min 0,0 UV-I 0 W/m -2,5 C -3,4 C 11,3 km/h (2 Bft)
08.01.2021 07:30 -1,7 C -1,1 C 94 % 1014,8 hPa 0,0 l/m 11,3 km/h (2 Bft) SW 225 0 min 0,0 UV-I 0 W/m -2,5 C -6,4 C 14,5 km/h (3 Bft)
08.01.2021 07:31 -1,7 C -1,1 C 94 % 1014,9 hPa 0,0 l/m 8,0 km/h (2 Bft) W-SW 247 0 min 0,0 UV-I 0 W/m -2,5 C -3,4 C 14,5 km/h (3 Bft)
08.01.2021 07:32 -1,7 C -1,1 C 94 % 1014,8 hPa 0,0 l/m 4,8 km/h (1 Bft) W-SW 247 0 min 0,0 UV-I 0 W/m -2,5 C -1,7 C 8,0 km/h (2 Bft)
08.01.2021 07:33 -1,7 C -1,1 C 94 % 1014,8 hPa 0,0 l/m 6,4 km/h (2 Bft) SW 225 0 min 0,0 UV-I 0 W/m -2,5 C -1,7 C 11,3 km/h (2 Bft)
08.01.2021 07:34 -1,6 C -1,1 C 94 % 1014,9 hPa 0,0 l/m 6,4 km/h (2 Bft) SW 225 0 min 0,0 UV-I 0 W/m -2,4 C -1,6 C 12,9 km/h (3 Bft)
08.01.2021 07:35 -1,7 C -1,1 C 94 % 1014,9 hPa 0,0 l/m 6,4 km/h (2 Bft) SW 225 0 min 0,0 UV-I 0 W/m -2,5 C -1,7 C 9,7 km/h (2 Bft)
08.01.2021 07:36 -1,7 C -1,1 C 94 % 1014,9 hPa 0,0 l/m 6,4 km/h (2 Bft) SW 225 0 min 0,0 UV-I 0 W/m -2,5 C -1,7 C 9,7 km/h (2 Bft)
08.01.2021 07:37 -1,7 C -1,1 C 94 % 1014,9 hPa 0,0 l/m 9,7 km/h (2 Bft) W-SW 247 0 min 0,0 UV-I 0 W/m -2,5 C -5,1 C 17,7 km/h (3 Bft)
08.01.2021 07:38 -1,7 C -1,1 C 94 % 1014,9 hPa 0,0 l/m 8,0 km/h (2 Bft) SW 225 0 min 0,0 UV-I 0 W/m -2,5 C -3,4 C 12,9 km/h (3 Bft)
08.01.2021 07:39 -1,6 C -1,1 C 94 % 1014,9 hPa 0,0 l/m 6,4 km/h (2 Bft) SW 225 0 min 0,0 UV-I 0 W/m -2,4 C -1,6 C 11,3 km/h (2 Bft)
08.01.2021 07:40 -1,7 C -1,1 C 94 % 1015,0 hPa 0,0 l/m 4,8 km/h (1 Bft) SW 225 0 min 0,0 UV-I 0 W/m -2,5 C -1,7 C 6,4 km/h (2 Bft)
08.01.2021 07:41 -1,7 C -1,1 C 94 % 1015,0 hPa 0,0 l/m 4,8 km/h (1 Bft) SW 225 0 min 0,0 UV-I 0 W/m -2,5 C -1,7 C 8,0 km/h (2 Bft)
08.01.2021 07:42 -1,7 C -1,1 C 94 % 1015,0 hPa 0,0 l/m 8,0 km/h (2 Bft) SW 225 0 min 0,0 UV-I 0 W/m -2,5 C -3,4 C 12,9 km/h (3 Bft)
08.01.2021 07:43 -1,7 C -1,1 C 94 % 1015,0 hPa 0,0 l/m 6,4 km/h (2 Bft) SW 225 0 min 0,0 UV-I 0 W/m -2,5 C -1,7 C 9,7 km/h (2 Bft)
08.01.2021 07:44 -1,7 C -1,1 C 94 % 1015,1 hPa 0,0 l/m 8,0 km/h (2 Bft) SW 225 0 min 0,0 UV-I 0 W/m -2,5 C -3,4 C 12,9 km/h (3 Bft)
08.01.2021 07:45 -1,7 C -1,1 C 94 % 1015,0 hPa 0,0 l/m 8,0 km/h (2 Bft) W-SW 247 0 min 0,0 UV-I 0 W/m -2,5 C -3,4 C 16,1 km/h (3 Bft)
08.01.2021 07:46 -1,7 C -1,1 C 94 % 1015,1 hPa 0,0 l/m 8,0 km/h (2 Bft) SW 225 0 min 0,0 UV-I 0 W/m -2,5 C -3,4 C 12,9 km/h (3 Bft)
08.01.2021 07:47 -1,7 C -1,1 C 94 % 1015,0 hPa 0,0 l/m 4,8 km/h (1 Bft) SW 225 0 min 0,0 UV-I 0 W/m -2,5 C -1,7 C 6,4 km/h (2 Bft)
08.01.2021 07:48 -1,7 C -1,1 C 94 % 1015,1 hPa 0,0 l/m 6,4 km/h (2 Bft) W-SW 247 0 min 0,0 UV-I 0 W/m -2,5 C -1,7 C 8,0 km/h (2 Bft)
08.01.2021 07:49 -1,7 C -1,1 C 94 % 1015,0 hPa 0,0 l/m 9,7 km/h (2 Bft) SW 225 0 min 0,0 UV-I 0 W/m -2,5 C -5,1 C 17,7 km/h (3 Bft)
08.01.2021 07:50 -1,7 C -1,1 C 94 % 1015,1 hPa 0,0 l/m 9,7 km/h (2 Bft) W-SW 247 0 min 0,0 UV-I 0 W/m -2,5 C -5,1 C 14,5 km/h (3 Bft)
08.01.2021 07:51 -1,7 C -1,1 C 94 % 1015,1 hPa 0,0 l/m 11,3 km/h (2 Bft) SW 225 0 min 0,0 UV-I 0 W/m -2,5 C -6,4 C 19,3 km/h (3 Bft)
08.01.2021 07:52 -1,7 C -1,1 C 94 % 1015,0 hPa 0,0 l/m 6,4 km/h (2 Bft) W-SW 247 0 min 0,0 UV-I 0 W/m -2,5 C -1,7 C 9,7 km/h (2 Bft)
08.01.2021 07:53 -1,7 C -1,1 C 94 % 1015,1 hPa 0,0 l/m 9,7 km/h (2 Bft) SW 225 0 min 0,0 UV-I 0 W/m -2,5 C -5,1 C 14,5 km/h (3 Bft)
08.01.2021 07:54 -1,6 C -1,1 C 94 % 1015,0 hPa 0,0 l/m 6,4 km/h (2 Bft) W-SW 247 0 min 0,0 UV-I 0 W/m -2,4 C -1,6 C 11,3 km/h (2 Bft)
08.01.2021 07:55 -1,7 C -1,1 C 94 % 1015,0 hPa 0,0 l/m 6,4 km/h (2 Bft) SW 225 0 min 0,0 UV-I 0 W/m -2,5 C -1,7 C 8,0 km/h (2 Bft)
08.01.2021 07:56 -1,7 C -1,1 C 94 % 1015,0 hPa 0,0 l/m 9,7 km/h (2 Bft) S-SW 202 0 min 0,0 UV-I 0 W/m -2,5 C -5,1 C 16,1 km/h (3 Bft)
08.01.2021 07:57 -1,7 C -1,1 C 94 % 1015,0 hPa 0,0 l/m 8,0 km/h (2 Bft) SW 225 0 min 0,0 UV-I 0 W/m -2,5 C -3,4 C 17,7 km/h (3 Bft)
08.01.2021 07:58 -1,6 C -1,1 C 94 % 1015,1 hPa 0,0 l/m 6,4 km/h (2 Bft) W-SW 247 0 min 0,0 UV-I 0 W/m -2,4 C -1,6 C 11,3 km/h (2 Bft)
08.01.2021 07:59 -1,7 C -1,1 C 94 % 1015,0 hPa 0,0 l/m 8,0 km/h (2 Bft) SW 225 0 min 0,0 UV-I 0 W/m -2,5 C -3,4 C 16,1 km/h (3 Bft)
08.01.2021 08:00 -1,7 C -1,1 C 94 % 1015,1 hPa 0,0 l/m 4,8 km/h (1 Bft) W-SW 247 0 min 0,0 UV-I 0 W/m -2,5 C -1,7 C 11,3 km/h (2 Bft)
08.01.2021 08:01 -1,7 C -1,1 C 94 % 1015,1 hPa 0,0 l/m 3,2 km/h (1 Bft) W-SW 247 0 min 0,0 UV-I 0 W/m -2,5 C -1,7 C 4,8 km/h (1 Bft)
08.01.2021 08:02 -1,7 C -1,1 C 94 % 1015,1 hPa 0,0 l/m 6,4 km/h (2 Bft) SW 225 0 min 0,0 UV-I 0 W/m -2,5 C -1,7 C 11,3 km/h (2 Bft)
08.01.2021 08:03 -1,7 C -1,1 C 94 % 1015,1 hPa 0,0 l/m 4,8 km/h (1 Bft) SW 225 0 min 0,0 UV-I 0 W/m -2,5 C -1,7 C 8,0 km/h (2 Bft)
08.01.2021 08:04 -1,7 C -1,1 C 94 % 1015,1 hPa 0,0 l/m 4,8 km/h (1 Bft) SW 225 0 min 0,0 UV-I 0 W/m -2,5 C -1,7 C 8,0 km/h (2 Bft)
08.01.2021 08:05 -1,7 C -1,1 C 94 % 1015,1 hPa 0,0 l/m 8,0 km/h (2 Bft) SW 225 0 min 0,0 UV-I 0 W/m -2,5 C -3,4 C 12,9 km/h (3 Bft)
08.01.2021 08:06 -1,7 C -1,1 C 94 % 1015,2 hPa 0,0 l/m 8,0 km/h (2 Bft) SW 225 0 min 0,0 UV-I 0 W/m -2,5 C -3,4 C 9,7 km/h (2 Bft)
08.01.2021 08:07 -1,7 C -1,1 C 94 % 1015,1 hPa 0,0 l/m 6,4 km/h (2 Bft) SW 225 0 min 0,0 UV-I 0 W/m -2,5 C -1,7 C 11,3 km/h (2 Bft)
08.01.2021 08:08 -1,7 C -1,1 C 94 % 1015,1 hPa 0,0 l/m 6,4 km/h (2 Bft) SW 225 0 min 0,0 UV-I 0 W/m -2,5 C -1,7 C 11,3 km/h (2 Bft)
08.01.2021 08:09 -1,7 C -1,1 C 94 % 1015,1 hPa 0,0 l/m 8,0 km/h (2 Bft) SW 225 0 min 0,0 UV-I 0 W/m -2,5 C -3,4 C 11,3 km/h (2 Bft)
08.01.2021 08:10 -1,7 C -1,1 C 94 % 1015,1 hPa 0,0 l/m 9,7 km/h (2 Bft) W-SW 247 0 min 0,0 UV-I 0 W/m -2,5 C -5,1 C 14,5 km/h (3 Bft)
08.01.2021 08:11 -1,7 C -1,1 C 94 % 1015,2 hPa 0,0 l/m 8,0 km/h (2 Bft) SW 225 0 min 0,0 UV-I 0 W/m -2,5 C -3,4 C 11,3 km/h (2 Bft)
08.01.2021 08:12 -1,7 C -1,1 C 94 % 1015,2 hPa 0,0 l/m 8,0 km/h (2 Bft) SW 225 0 min 0,0 UV-I 0 W/m -2,5 C -3,4 C 12,9 km/h (3 Bft)
08.01.2021 08:13 -1,7 C -1,1 C 94 % 1015,3 hPa 0,0 l/m 4,8 km/h (1 Bft) SW 225 0 min 0,0 UV-I 0 W/m -2,5 C -1,7 C 9,7 km/h (2 Bft)
08.01.2021 08:14 -1,7 C -1,1 C 94 % 1015,2 hPa 0,0 l/m 4,8 km/h (1 Bft) W-SW 247 0 min 0,0 UV-I 0 W/m -2,5 C -1,7 C 6,4 km/h (2 Bft)
08.01.2021 08:15 -1,7 C -1,1 C 94 % 1015,2 hPa 0,0 l/m 6,4 km/h (2 Bft) W-SW 247 0 min 0,0 UV-I 0 W/m -2,5 C -1,7 C 11,3 km/h (2 Bft)
08.01.2021 08:16 -1,7 C -1,1 C 94 % 1015,2 hPa 0,0 l/m 9,7 km/h (2 Bft) W-SW 247 0 min 0,0 UV-I 0 W/m -2,5 C -5,1 C 16,1 km/h (3 Bft)
08.01.2021 08:17 -1,7 C -1,1 C 94 % 1015,2 hPa 0,0 l/m 9,7 km/h (2 Bft) W-SW 247 0 min 0,0 UV-I 0 W/m -2,5 C -5,1 C 12,9 km/h (3 Bft)
08.01.2021 08:18 -1,7 C -1,1 C 94 % 1015,3 hPa 0,0 l/m 11,3 km/h (2 Bft) W-SW 247 0 min 0,0 UV-I 0 W/m -2,5 C -6,4 C 14,5 km/h (3 Bft)
08.01.2021 08:19 -1,7 C -1,1 C 94 % 1015,3 hPa 0,0 l/m 8,0 km/h (2 Bft) SW 225 0 min 0,0 UV-I 0 W/m -2,5 C -3,4 C 9,7 km/h (2 Bft)
08.01.2021 08:20 -1,7 C -1,1 C 94 % 1015,3 hPa 0,0 l/m 6,4 km/h (2 Bft) W-SW 247 0 min 0,0 UV-I 0 W/m -2,5 C -1,7 C 11,3 km/h (2 Bft)
08.01.2021 08:21 -1,7 C -1,1 C 94 % 1015,3 hPa 0,0 l/m 8,0 km/h (2 Bft) SW 225 0 min 0,0 UV-I 0 W/m -2,5 C -3,4 C 14,5 km/h (3 Bft)
08.01.2021 08:22 -1,7 C -1,1 C 94 % 1015,4 hPa 0,0 l/m 6,4 km/h (2 Bft) W-SW 247 0 min 0,0 UV-I 0 W/m -2,5 C -1,7 C 11,3 km/h (2 Bft)
08.01.2021 08:23 -1,7 C -1,1 C 94 % 1015,3 hPa 0,0 l/m 6,4 km/h (2 Bft) SW 225 0 min 0,0 UV-I 0 W/m -2,5 C -1,7 C 11,3 km/h (2 Bft)
08.01.2021 08:24 -1,7 C -1,1 C 94 % 1015,4 hPa 0,0 l/m 9,7 km/h (2 Bft) W-SW 247 0 min 0,0 UV-I 0 W/m -2,5 C -5,1 C 14,5 km/h (3 Bft)
08.01.2021 08:25 -1,7 C -1,1 C 94 % 1015,4 hPa 0,0 l/m 8,0 km/h (2 Bft) W-SW 247 0 min 0,0 UV-I 0 W/m -2,5 C -3,4 C 12,9 km/h (3 Bft)
08.01.2021 08:26 -1,7 C -1,1 C 94 % 1015,4 hPa 0,0 l/m 8,0 km/h (2 Bft) SW 225 0 min 0,0 UV-I 0 W/m -2,5 C -3,4 C 14,5 km/h (3 Bft)
08.01.2021 08:27 -1,7 C -1,1 C 94 % 1015,4 hPa 0,0 l/m 4,8 km/h (1 Bft) SW 225 0 min 0,0 UV-I 0 W/m -2,5 C -1,7 C 8,0 km/h (2 Bft)
08.01.2021 08:28 -1,7 C -1,1 C 94 % 1015,4 hPa 0,0 l/m 11,3 km/h (2 Bft) SW 225 0 min 0,0 UV-I 0 W/m -2,5 C -6,4 C 17,7 km/h (3 Bft)
08.01.2021 08:29 -1,7 C -1,1 C 94 % 1015,4 hPa 0,0 l/m 6,4 km/h (2 Bft) SW 225 0 min 0,0 UV-I 0 W/m -2,5 C -1,7 C 11,3 km/h (2 Bft)
08.01.2021 08:30 -1,7 C -1,1 C 94 % 1015,5 hPa 0,0 l/m 8,0 km/h (2 Bft) W-SW 247 0 min 0,0 UV-I 0 W/m -2,5 C -3,4 C 11,3 km/h (2 Bft)
08.01.2021 08:31 -1,7 C -1,1 C 94 % 1015,4 hPa 0,0 l/m 6,4 km/h (2 Bft) SW 225 0 min 0,0 UV-I 0 W/m -2,5 C -1,7 C 8,0 km/h (2 Bft)
08.01.2021 08:32 -1,7 C -1,1 C 94 % 1015,4 hPa 0,0 l/m 6,4 km/h (2 Bft) SW 225 0 min 0,0 UV-I 0 W/m -2,5 C -1,7 C 9,7 km/h (2 Bft)
08.01.2021 08:33 -1,7 C -1,1 C 94 % 1015,5 hPa 0,0 l/m 9,7 km/h (2 Bft) S-SW 202 0 min 0,0 UV-I 0 W/m -2,5 C -5,1 C 19,3 km/h (3 Bft)
08.01.2021 08:34 -1,7 C -1,1 C 94 % 1015,5 hPa 0,0 l/m 11,3 km/h (2 Bft) SW 225 0 min 0,0 UV-I 0 W/m -2,5 C -6,4 C 16,1 km/h (3 Bft)
08.01.2021 08:35 -1,7 C -1,1 C 94 % 1015,5 hPa 0,0 l/m 11,3 km/h (2 Bft) W-SW 247 0 min 0,0 UV-I 0 W/m -2,5 C -6,4 C 16,1 km/h (3 Bft)
08.01.2021 08:36 -1,7 C -1,1 C 94 % 1015,5 hPa 0,0 l/m 6,4 km/h (2 Bft) SW 225 0 min 0,0 UV-I 0 W/m -2,5 C -1,7 C 11,3 km/h (2 Bft)
08.01.2021 08:37 -1,7 C -1,1 C 94 % 1015,5 hPa 0,0 l/m 4,8 km/h (1 Bft) W-SW 247 0 min 0,0 UV-I 0 W/m -2,5 C -1,7 C 6,4 km/h (2 Bft)
08.01.2021 08:38 -1,7 C -1,1 C 94 % 1015,5 hPa 0,0 l/m 8,0 km/h (2 Bft) SW 225 0 min 0,0 UV-I 0 W/m -2,5 C -3,4 C 12,9 km/h (3 Bft)
08.01.2021 08:39 -1,7 C -1,1 C 94 % 1015,5 hPa 0,0 l/m 6,4 km/h (2 Bft) W-SW 247 0 min 0,0 UV-I 0 W/m -2,5 C -1,7 C 11,3 km/h (2 Bft)
08.01.2021 08:40 -1,7 C -1,1 C 94 % 1015,6 hPa 0,0 l/m 8,0 km/h (2 Bft) SW 225 0 min 0,0 UV-I 0 W/m -2,5 C -3,4 C 11,3 km/h (2 Bft)
08.01.2021 08:41 -1,7 C -1,1 C 94 % 1015,6 hPa 0,0 l/m 4,8 km/h (1 Bft) W-SW 247 0 min 0,0 UV-I 0 W/m -2,5 C -1,7 C 8,0 km/h (2 Bft)
08.01.2021 08:42 -1,7 C -1,1 C 94 % 1015,6 hPa 0,0 l/m 6,4 km/h (2 Bft) W-SW 247 0 min 0,0 UV-I 0 W/m -2,5 C -1,7 C 9,7 km/h (2 Bft)
08.01.2021 08:43 -1,7 C -1,1 C 94 % 1015,6 hPa 0,0 l/m 8,0 km/h (2 Bft) S-SW 202 0 min 0,0 UV-I 0 W/m -2,5 C -3,4 C 11,3 km/h (2 Bft)
08.01.2021 08:44 -1,7 C -1,1 C 94 % 1015,7 hPa 0,0 l/m 9,7 km/h (2 Bft) W-SW 247 0 min 0,0 UV-I 0 W/m -2,5 C -5,1 C 14,5 km/h (3 Bft)
08.01.2021 08:45 -1,7 C -1,1 C 94 % 1015,6 hPa 0,0 l/m 8,0 km/h (2 Bft) SW 225 0 min 0,0 UV-I 0 W/m -2,5 C -3,4 C 14,5 km/h (3 Bft)
08.01.2021 08:46 -1,7 C -1,1 C 94 % 1015,6 hPa 0,0 l/m 9,7 km/h (2 Bft) SW 225 0 min 0,0 UV-I 0 W/m -2,5 C -5,1 C 16,1 km/h (3 Bft)
08.01.2021 08:47 -1,7 C -1,1 C 94 % 1015,6 hPa 0,0 l/m 8,0 km/h (2 Bft) SW 225 0 min 0,0 UV-I 0 W/m -2,5 C -3,4 C 12,9 km/h (3 Bft)
08.01.2021 08:48 -1,7 C -1,1 C 94 % 1015,6 hPa 0,0 l/m 8,0 km/h (2 Bft) SW 225 0 min 0,0 UV-I 0 W/m -2,5 C -3,4 C 14,5 km/h (3 Bft)
08.01.2021 08:49 -1,6 C -1,1 C 94 % 1015,7 hPa 0,0 l/m 6,4 km/h (2 Bft) SW 225 0 min 0,0 UV-I 0 W/m -2,4 C -1,6 C 11,3 km/h (2 Bft)
08.01.2021 08:50 -1,6 C -1,1 C 94 % 1015,6 hPa 0,0 l/m 6,4 km/h (2 Bft) SW 225 0 min 0,0 UV-I 0 W/m -2,4 C -1,6 C 11,3 km/h (2 Bft)
08.01.2021 08:51 -1,7 C -1,1 C 94 % 1015,6 hPa 0,0 l/m 6,4 km/h (2 Bft) S-SW 202 0 min 0,0 UV-I 0 W/m -2,5 C -1,7 C 9,7 km/h (2 Bft)
08.01.2021 08:52 -1,6 C -1,1 C 94 % 1015,6 hPa 0,0 l/m 4,8 km/h (1 Bft) W-SW 247 0 min 0,0 UV-I 0 W/m -2,4 C -1,6 C 8,0 km/h (2 Bft)
08.01.2021 08:53 -1,6 C -1,1 C 94 % 1015,7 hPa 0,0 l/m 4,8 km/h (1 Bft) W-SW 247 0 min 0,0 UV-I 0 W/m -2,4 C -1,6 C 6,4 km/h (2 Bft)
08.01.2021 08:54 -1,6 C -1,1 C 94 % 1015,7 hPa 0,0 l/m 4,8 km/h (1 Bft) W-SW 247 0 min 0,0 UV-I 5 W/m -2,4 C -1,6 C 8,0 km/h (2 Bft)
08.01.2021 08:55 -1,6 C -1,1 C 94 % 1015,7 hPa 0,0 l/m 4,8 km/h (1 Bft) S 180 0 min 0,0 UV-I 5 W/m -2,4 C -1,6 C 6,4 km/h (2 Bft)
08.01.2021 08:56 -1,6 C -1,1 C 94 % 1015,8 hPa 0,0 l/m 4,8 km/h (1 Bft) W-SW 247 0 min 0,0 UV-I 5 W/m -2,4 C -1,6 C 6,4 km/h (2 Bft)
08.01.2021 08:57 -1,6 C -1,1 C 94 % 1015,7 hPa 0,0 l/m 3,2 km/h (1 Bft) W-SW 247 0 min 0,0 UV-I 5 W/m -2,4 C -1,6 C 4,8 km/h (1 Bft)
08.01.2021 08:58 -1,6 C -1,1 C 94 % 1015,7 hPa 0,0 l/m 4,8 km/h (1 Bft) SW 225 0 min 0,0 UV-I 5 W/m -2,4 C -1,6 C 8,0 km/h (2 Bft)
08.01.2021 08:59 -1,6 C -1,1 C 94 % 1015,9 hPa 0,0 l/m 8,0 km/h (2 Bft) SW 225 0 min 0,0 UV-I 5 W/m -2,4 C -3,3 C 14,5 km/h (3 Bft)
08.01.2021 09:00 -1,6 C -1,1 C 94 % 1015,8 hPa 0,0 l/m 4,8 km/h (1 Bft) SW 225 0 min 0,0 UV-I 5 W/m -2,4 C -1,6 C 11,3 km/h (2 Bft)
08.01.2021 09:01 -1,6 C -1,1 C 94 % 1015,8 hPa 0,0 l/m 8,0 km/h (2 Bft) W-SW 247 0 min 0,0 UV-I 5 W/m -2,4 C -3,3 C 12,9 km/h (3 Bft)
08.01.2021 09:02 -1,6 C -1,1 C 94 % 1015,8 hPa 0,0 l/m 6,4 km/h (2 Bft) SW 225 0 min 0,0 UV-I 5 W/m -2,4 C -1,6 C 11,3 km/h (2 Bft)
08.01.2021 09:03 -1,6 C -1,1 C 94 % 1015,9 hPa 0,0 l/m 4,8 km/h (1 Bft) SW 225 0 min 0,0 UV-I 5 W/m -2,4 C -1,6 C 6,4 km/h (2 Bft)
08.01.2021 09:04 -1,6 C -1,1 C 94 % 1015,8 hPa 0,0 l/m 6,4 km/h (2 Bft) SW 225 0 min 0,0 UV-I 5 W/m -2,4 C -1,6 C 11,3 km/h (2 Bft)
08.01.2021 09:05 -1,6 C -1,1 C 94 % 1015,8 hPa 0,0 l/m 4,8 km/h (1 Bft) SW 225 0 min 0,0 UV-I 5 W/m -2,4 C -1,6 C 9,7 km/h (2 Bft)
08.01.2021 09:06 -1,6 C -1,1 C 94 % 1015,8 hPa 0,0 l/m 6,4 km/h (2 Bft) SW 225 0 min 0,0 UV-I 5 W/m -2,4 C -1,6 C 8,0 km/h (2 Bft)
08.01.2021 09:07 -1,6 C -1,1 C 94 % 1015,9 hPa 0,0 l/m 4,8 km/h (1 Bft) SW 225 0 min 0,0 UV-I 5 W/m -2,4 C -1,6 C 9,7 km/h (2 Bft)
08.01.2021 09:08 -1,6 C -1,1 C 94 % 1015,9 hPa 0,0 l/m 4,8 km/h (1 Bft) W-SW 247 0 min 0,0 UV-I 5 W/m -2,4 C -1,6 C 8,0 km/h (2 Bft)
08.01.2021 09:09 -1,6 C -1,1 C 94 % 1015,9 hPa 0,0 l/m 4,8 km/h (1 Bft) SW 225 0 min 0,0 UV-I 5 W/m -2,4 C -1,6 C 8,0 km/h (2 Bft)
08.01.2021 09:10 -1,6 C -1,1 C 94 % 1015,9 hPa 0,0 l/m 4,8 km/h (1 Bft) SW 225 0 min 0,0 UV-I 5 W/m -2,4 C -1,6 C 8,0 km/h (2 Bft)
08.01.2021 09:11 -1,6 C -1,1 C 94 % 1015,8 hPa 0,0 l/m 6,4 km/h (2 Bft) SW 225 0 min 0,0 UV-I 5 W/m -2,4 C -1,6 C 11,3 km/h (2 Bft)
08.01.2021 09:12 -1,6 C -1,1 C 94 % 1015,9 hPa 0,0 l/m 6,4 km/h (2 Bft) SW 225 0 min 0,0 UV-I 5 W/m -2,4 C -1,6 C 9,7 km/h (2 Bft)
08.01.2021 09:13 -1,6 C -1,1 C 94 % 1015,9 hPa 0,2 l/m 4,8 km/h (1 Bft) S-SW 202 0 min 0,0 UV-I 5 W/m -2,4 C -1,6 C 6,4 km/h (2 Bft)
08.01.2021 09:14 -1,6 C -1,1 C 94 % 1015,9 hPa 0,0 l/m 3,2 km/h (1 Bft) W-SW 247 0 min 0,0 UV-I 5 W/m -2,4 C -1,6 C 6,4 km/h (2 Bft)
08.01.2021 09:15 -1,6 C -1,1 C 94 % 1015,8 hPa 0,0 l/m 4,8 km/h (1 Bft) W-SW 247 0 min 0,0 UV-I 5 W/m -2,4 C -1,6 C 6,4 km/h (2 Bft)
08.01.2021 09:16 -1,6 C -1,1 C 94 % 1015,9 hPa 0,0 l/m 4,8 km/h (1 Bft) SW 225 0 min 0,0 UV-I 7 W/m -2,4 C -1,6 C 8,0 km/h (2 Bft)
08.01.2021 09:17 -1,5 C -1,1 C 94 % 1015,9 hPa 0,0 l/m 4,8 km/h (1 Bft) W-SW 247 0 min 0,0 UV-I 7 W/m -2,3 C -1,5 C 11,3 km/h (2 Bft)
08.01.2021 09:18 -1,6 C -1,1 C 94 % 1015,9 hPa 0,0 l/m 4,8 km/h (1 Bft) SW 225 0 min 0,0 UV-I 7 W/m -2,4 C -1,6 C 4,8 km/h (1 Bft)
08.01.2021 09:19 -1,6 C -1,1 C 94 % 1015,9 hPa 0,0 l/m 3,2 km/h (1 Bft) SW 225 0 min 0,0 UV-I 7 W/m -2,4 C -1,6 C 4,8 km/h (1 Bft)
08.01.2021 09:20 -1,6 C -0,6 C 94 % 1015,9 hPa 0,0 l/m 4,8 km/h (1 Bft) SW 225 0 min 0,0 UV-I 7 W/m -2,4 C -1,6 C 8,0 km/h (2 Bft)
08.01.2021 09:21 -1,6 C -0,6 C 94 % 1016,0 hPa 0,0 l/m 4,8 km/h (1 Bft) W-SW 247 0 min 0,0 UV-I 7 W/m -2,4 C -1,6 C 8,0 km/h (2 Bft)
08.01.2021 09:22 -1,5 C -0,6 C 94 % 1016,0 hPa 0,0 l/m 4,8 km/h (1 Bft) W-SW 247 0 min 0,0 UV-I 9 W/m -2,3 C -1,5 C 6,4 km/h (2 Bft)
08.01.2021 09:23 -1,5 C -0,6 C 94 % 1016,0 hPa 0,0 l/m 4,8 km/h (1 Bft) SW 225 0 min 0,0 UV-I 9 W/m -2,3 C -1,5 C 6,4 km/h (2 Bft)
08.01.2021 09:24 -1,5 C -0,6 C 94 % 1015,9 hPa 0,0 l/m 4,8 km/h (1 Bft) W-SW 247 0 min 0,0 UV-I 11 W/m -2,3 C -1,5 C 8,0 km/h (2 Bft)
08.01.2021 09:25 -1,5 C -0,6 C 94 % 1015,9 hPa 0,0 l/m 3,2 km/h (1 Bft) W-SW 247 0 min 0,0 UV-I 11 W/m -2,3 C -1,5 C 6,4 km/h (2 Bft)
08.01.2021 09:26 -1,5 C -0,6 C 94 % 1016,0 hPa 0,0 l/m 4,8 km/h (1 Bft) SW 225 0 min 0,0 UV-I 11 W/m -2,3 C -1,5 C 8,0 km/h (2 Bft)
08.01.2021 09:27 -1,4 C -0,6 C 94 % 1016,0 hPa 0,0 l/m 4,8 km/h (1 Bft) SW 225 0 min 0,0 UV-I 12 W/m -2,2 C -1,4 C 12,9 km/h (3 Bft)
08.01.2021 09:28 -1,4 C -0,6 C 94 % 1016,0 hPa 0,0 l/m 6,4 km/h (2 Bft) SW 225 0 min 0,0 UV-I 14 W/m -2,2 C -1,4 C 9,7 km/h (2 Bft)
08.01.2021 09:29 -1,4 C -0,6 C 94 % 1016,1 hPa 0,0 l/m 4,8 km/h (1 Bft) SW 225 0 min 0,0 UV-I 14 W/m -2,2 C -1,4 C 9,7 km/h (2 Bft)
08.01.2021 09:30 -1,4 C -0,6 C 94 % 1016,0 hPa 0,0 l/m 6,4 km/h (2 Bft) SW 225 0 min 0,0 UV-I 12 W/m -2,2 C -1,4 C 8,0 km/h (2 Bft)
08.01.2021 09:31 -1,4 C -0,6 C 94 % 1015,9 hPa 0,0 l/m 4,8 km/h (1 Bft) SW 225 0 min 0,0 UV-I 12 W/m -2,2 C -1,4 C 8,0 km/h (2 Bft)
08.01.2021 09:32 -1,4 C -0,6 C 94 % 1016,1 hPa 0,0 l/m 6,4 km/h (2 Bft) SW 225 0 min 0,0 UV-I 12 W/m -2,2 C -1,4 C 8,0 km/h (2 Bft)
08.01.2021 09:33 -1,4 C -0,6 C 94 % 1016,1 hPa 0,0 l/m 4,8 km/h (1 Bft) SW 225 0 min 0,0 UV-I 13 W/m -2,2 C -1,4 C 6,4 km/h (2 Bft)
08.01.2021 09:34 -1,4 C -0,6 C 94 % 1016,0 hPa 0,0 l/m 4,8 km/h (1 Bft) SW 225 0 min 0,0 UV-I 14 W/m -2,2 C -1,4 C 6,4 km/h (2 Bft)
08.01.2021 09:35 -1,4 C -0,6 C 94 % 1016,1 hPa 0,0 l/m 6,4 km/h (2 Bft) SW 225 0 min 0,0 UV-I 16 W/m -2,2 C -1,4 C 9,7 km/h (2 Bft)
08.01.2021 09:36 -1,4 C -0,6 C 94 % 1016,0 hPa 0,0 l/m 6,4 km/h (2 Bft) SW 225 0 min 0,0 UV-I 16 W/m -2,2 C -1,4 C 9,7 km/h (2 Bft)
08.01.2021 09:37 -1,4 C -0,6 C 94 % 1016,1 hPa 0,0 l/m 3,2 km/h (1 Bft) SW 225 0 min 0,0 UV-I 16 W/m -2,2 C -1,4 C 4,8 km/h (1 Bft)
08.01.2021 09:38 -1,4 C -0,6 C 94 % 1016,1 hPa 0,0 l/m 6,4 km/h (2 Bft) SW 225 0 min 0,0 UV-I 16 W/m -2,2 C -1,4 C 14,5 km/h (3 Bft)
08.01.2021 09:39 -1,3 C -0,6 C 94 % 1016,1 hPa 0,0 l/m 4,8 km/h (1 Bft) SW 225 0 min 0,0 UV-I 16 W/m -2,1 C -1,3 C 8,0 km/h (2 Bft)
08.01.2021 09:40 -1,3 C -0,6 C 94 % 1016,1 hPa 0,0 l/m 4,8 km/h (1 Bft) W-SW 247 0 min 0,0 UV-I 16 W/m -2,1 C -1,3 C 6,4 km/h (2 Bft)
08.01.2021 09:41 -1,3 C -0,6 C 94 % 1016,1 hPa 0,0 l/m 3,2 km/h (1 Bft) W-SW 247 0 min 0,0 UV-I 18 W/m -2,1 C -1,3 C 4,8 km/h (1 Bft)
08.01.2021 09:42 -1,3 C -0,6 C 94 % 1016,2 hPa 0,0 l/m 3,2 km/h (1 Bft) W-SW 247 0 min 0,0 UV-I 18 W/m -2,1 C -1,3 C 6,4 km/h (2 Bft)
08.01.2021 09:43 -1,3 C -0,6 C 94 % 1016,2 hPa 0,0 l/m 3,2 km/h (1 Bft) SW 225 0 min 0,0 UV-I 18 W/m -2,1 C -1,3 C 6,4 km/h (2 Bft)
08.01.2021 09:44 -1,3 C -0,6 C 94 % 1016,2 hPa 0,0 l/m 4,8 km/h (1 Bft) SW 225 0 min 0,0 UV-I 18 W/m -2,1 C -1,3 C 6,4 km/h (2 Bft)
08.01.2021 09:45 -1,3 C -0,6 C 94 % 1016,2 hPa 0,0 l/m 4,8 km/h (1 Bft) SW 225 0 min 0,0 UV-I 18 W/m -2,1 C -1,3 C 11,3 km/h (2 Bft)
08.01.2021 09:46 -1,3 C -0,6 C 94 % 1016,2 hPa 0,0 l/m 6,4 km/h (2 Bft) W-SW 247 0 min 0,0 UV-I 18 W/m -2,1 C -1,3 C 8,0 km/h (2 Bft)
08.01.2021 09:47 -1,3 C -0,6 C 94 % 1016,2 hPa 0,0 l/m 6,4 km/h (2 Bft) W-SW 247 0 min 0,0 UV-I 18 W/m -2,1 C -1,3 C 9,7 km/h (2 Bft)
08.01.2021 09:48 -1,3 C -0,6 C 94 % 1016,3 hPa 0,0 l/m 4,8 km/h (1 Bft) SW 225 0 min 0,0 UV-I 16 W/m -2,1 C -1,3 C 8,0 km/h (2 Bft)
08.01.2021 09:49 -1,2 C -0,6 C 94 % 1016,3 hPa 0,0 l/m 4,8 km/h (1 Bft) SW 225 0 min 0,0 UV-I 16 W/m -2,0 C -1,2 C 4,8 km/h (1 Bft)
08.01.2021 09:50 -1,2 C -0,6 C 94 % 1016,3 hPa 0,0 l/m 6,4 km/h (2 Bft) W-SW 247 0 min 0,0 UV-I 16 W/m -2,0 C -1,2 C 8,0 km/h (2 Bft)
08.01.2021 09:51 -1,2 C -0,6 C 94 % 1016,3 hPa 0,0 l/m 3,2 km/h (1 Bft) SW 225 0 min 0,0 UV-I 15 W/m -2,0 C -1,2 C 4,8 km/h (1 Bft)
08.01.2021 09:52 -1,2 C -0,6 C 94 % 1016,4 hPa 0,0 l/m 3,2 km/h (1 Bft) SW 225 0 min 0,0 UV-I 14 W/m -2,0 C -1,2 C 4,8 km/h (1 Bft)
08.01.2021 09:53 -1,2 C -0,6 C 94 % 1016,4 hPa 0,0 l/m 4,8 km/h (1 Bft) W-SW 247 0 min 0,0 UV-I 14 W/m -2,0 C -1,2 C 6,4 km/h (2 Bft)
08.01.2021 09:54 -1,2 C -0,6 C 94 % 1016,3 hPa 0,0 l/m 4,8 km/h (1 Bft) W-SW 247 0 min 0,0 UV-I 16 W/m -2,0 C -1,2 C 6,4 km/h (2 Bft)
08.01.2021 09:55 -1,2 C -0,6 C 94 % 1016,3 hPa 0,0 l/m 1,6 km/h (1 Bft) W 270 0 min 0,0 UV-I 16 W/m -2,0 C -1,2 C 3,2 km/h (1 Bft)
08.01.2021 09:56 -1,2 C -0,6 C 94 % 1016,4 hPa 0,0 l/m 4,8 km/h (1 Bft) W-SW 247 0 min 0,0 UV-I 16 W/m -2,0 C -1,2 C 12,9 km/h (3 Bft)
08.01.2021 09:57 -1,2 C -0,6 C 94 % 1016,3 hPa 0,2 l/m 6,4 km/h (2 Bft) SW 225 0 min 0,0 UV-I 16 W/m -2,0 C -1,2 C 9,7 km/h (2 Bft)
08.01.2021 09:58 -1,2 C -0,6 C 94 % 1016,4 hPa 0,0 l/m 6,4 km/h (2 Bft) SW 225 0 min 0,0 UV-I 18 W/m -2,0 C -1,2 C 11,3 km/h (2 Bft)
08.01.2021 09:59 -1,2 C -0,6 C 94 % 1016,3 hPa 0,0 l/m 6,4 km/h (2 Bft) SW 225 0 min 0,0 UV-I 18 W/m -2,0 C -1,2 C 8,0 km/h (2 Bft)
08.01.2021 10:00 -1,1 C -0,6 C 94 % 1016,4 hPa 0,0 l/m 3,2 km/h (1 Bft) SW 225 0 min 0,0 UV-I 18 W/m -1,9 C -1,1 C 4,8 km/h (1 Bft)
08.01.2021 10:01 -1,2 C -0,6 C 94 % 1016,3 hPa 0,0 l/m 4,8 km/h (1 Bft) SW 225 0 min 0,0 UV-I 18 W/m -2,0 C -1,2 C 6,4 km/h (2 Bft)
08.01.2021 10:02 -1,1 C -0,6 C 94 % 1016,3 hPa 0,0 l/m 4,8 km/h (1 Bft) SW 225 0 min 0,0 UV-I 19 W/m -1,9 C -1,1 C 8,0 km/h (2 Bft)
08.01.2021 10:03 -1,1 C -0,6 C 94 % 1016,3 hPa 0,0 l/m 4,8 km/h (1 Bft) SW 225 0 min 0,0 UV-I 19 W/m -1,9 C -1,1 C 6,4 km/h (2 Bft)
08.01.2021 10:04 -1,1 C -0,6 C 94 % 1016,4 hPa 0,0 l/m 6,4 km/h (2 Bft) SW 225 0 min 0,0 UV-I 19 W/m -1,9 C -1,1 C 9,7 km/h (2 Bft)
08.01.2021 10:05 -1,1 C -0,6 C 94 % 1016,4 hPa 0,0 l/m 6,4 km/h (2 Bft) SW 225 0 min 0,0 UV-I 19 W/m -1,9 C -1,1 C 9,7 km/h (2 Bft)
08.01.2021 10:06 -1,1 C -0,6 C 94 % 1016,4 hPa 0,0 l/m 4,8 km/h (1 Bft) SW 225 0 min 0,0 UV-I 21 W/m -1,9 C -1,1 C 6,4 km/h (2 Bft)
08.01.2021 10:07 -1,1 C -0,6 C 94 % 1016,4 hPa 0,0 l/m 6,4 km/h (2 Bft) W-SW 247 0 min 0,0 UV-I 21 W/m -1,9 C -1,1 C 9,7 km/h (2 Bft)
08.01.2021 10:08 -1,1 C -0,6 C 94 % 1016,5 hPa 0,0 l/m 3,2 km/h (1 Bft) W-SW 247 0 min 0,0 UV-I 22 W/m -1,9 C -1,1 C 4,8 km/h (1 Bft)
08.01.2021 10:09 -1,1 C -0,6 C 94 % 1016,5 hPa 0,0 l/m 3,2 km/h (1 Bft) W-SW 247 0 min 0,0 UV-I 25 W/m -1,9 C -1,1 C 4,8 km/h (1 Bft)
08.01.2021 10:10 -1,0 C -0,6 C 94 % 1016,4 hPa 0,0 l/m 9,7 km/h (2 Bft) W-SW 247 0 min 0,0 UV-I 25 W/m -1,8 C -4,3 C 14,5 km/h (3 Bft)
08.01.2021 10:11 -1,0 C -0,6 C 94 % 1016,4 hPa 0,0 l/m 6,4 km/h (2 Bft) S 180 0 min 0,0 UV-I 25 W/m -1,8 C -1,0 C 9,7 km/h (2 Bft)
08.01.2021 10:12 -1,0 C -0,6 C 94 % 1016,5 hPa 0,0 l/m 4,8 km/h (1 Bft) S 180 0 min 0,0 UV-I 25 W/m -1,8 C -1,0 C 8,0 km/h (2 Bft)
08.01.2021 10:13 -0,9 C -0,6 C 94 % 1016,5 hPa 0,0 l/m 6,4 km/h (2 Bft) W-SW 247 0 min 0,0 UV-I 25 W/m -1,7 C -0,9 C 8,0 km/h (2 Bft)
08.01.2021 10:16 -0,9 C -0,6 C 94 % 1016,5 hPa 0,0 l/m 8,6 km/h (2 Bft) W 269 0 min 0,0 UV-I 25 W/m -1,7 C -3,2 C 14,5 km/h (3 Bft)
08.01.2021 10:18 -0,9 C -0,6 C 94 % 1016,5 hPa 0,0 l/m 6,0 km/h (2 Bft) S-SW 206 0 min 0,0 UV-I 25 W/m -1,7 C -0,9 C 12,9 km/h (3 Bft)
08.01.2021 10:20 -0,8 C -0,6 C 94 % 1016,6 hPa 0,0 l/m 3,7 km/h (1 Bft) W-SW 243 0 min 0,0 UV-I 26 W/m -1,6 C -0,8 C 8,0 km/h (2 Bft)
08.01.2021 10:22 -0,8 C -0,6 C 94 % 1016,5 hPa 0,0 l/m 6,0 km/h (2 Bft) W-SW 252 0 min 0,0 UV-I 26 W/m -1,6 C -0,8 C 9,7 km/h (2 Bft)
08.01.2021 10:24 -0,8 C 0,0 C 94 % 1016,6 hPa 0,0 l/m 5,9 km/h (2 Bft) W-SW 243 0 min 0,0 UV-I 28 W/m -1,6 C -0,8 C 8,0 km/h (2 Bft)
08.01.2021 10:26 -0,7 C 0,0 C 94 % 1016,6 hPa 0,0 l/m 6,6 km/h (2 Bft) W-SW 243 0 min 0,0 UV-I 30 W/m -1,5 C -0,9 C 11,3 km/h (2 Bft)
08.01.2021 10:28 -0,7 C 0,0 C 94 % 1016,6 hPa 0,0 l/m 6,9 km/h (2 Bft) SW 225 0 min 0,0 UV-I 32 W/m -1,5 C -1,2 C 11,3 km/h (2 Bft)
08.01.2021 10:30 -0,7 C 0,0 C 94 % 1016,6 hPa 0,0 l/m 6,5 km/h (2 Bft) W-SW 252 0 min 0,0 UV-I 35 W/m -1,5 C -0,8 C 11,3 km/h (2 Bft)
08.01.2021 10:32 -0,6 C 0,0 C 94 % 1016,6 hPa 0,0 l/m 7,2 km/h (2 Bft) W-SW 246 0 min 0,0 UV-I 39 W/m -1,4 C -1,4 C 12,9 km/h (3 Bft)
08.01.2021 10:34 -0,6 C 0,0 C 94 % 1016,6 hPa 0,0 l/m 4,6 km/h (1 Bft) W-SW 242 0 min 0,0 UV-I 40 W/m -1,4 C -0,6 C 6,4 km/h (2 Bft)
08.01.2021 10:36 -0,6 C 0,0 C 94 % 1016,7 hPa 0,0 l/m 4,2 km/h (1 Bft) W-SW 248 0 min 0,0 UV-I 39 W/m -1,4 C -0,6 C 6,4 km/h (2 Bft)
08.01.2021 10:38 -0,5 C 0,0 C 94 % 1016,7 hPa 0,0 l/m 7,1 km/h (2 Bft) SW 219 0 min 0,0 UV-I 37 W/m -1,3 C -1,2 C 16,1 km/h (3 Bft)
08.01.2021 10:40 -0,4 C 0,0 C 94 % 1016,7 hPa 0,0 l/m 5,8 km/h (2 Bft) SW 232 0 min 0,0 UV-I 35 W/m -1,2 C -0,4 C 8,0 km/h (2 Bft)
08.01.2021 10:42 -0,4 C 0,0 C 94 % 1016,7 hPa 0,0 l/m 5,0 km/h (1 Bft) S-SW 209 0 min 0,0 UV-I 35 W/m -1,2 C -0,4 C 9,7 km/h (2 Bft)
08.01.2021 10:44 -0,3 C 0,0 C 94 % 1016,7 hPa 0,0 l/m 6,9 km/h (2 Bft) W-SW 243 0 min 0,0 UV-I 35 W/m -1,1 C -0,8 C 9,7 km/h (2 Bft)
08.01.2021 10:46 -0,3 C 0,0 C 94 % 1016,8 hPa 0,0 l/m 5,0 km/h (1 Bft) W 269 0 min 0,0 UV-I 33 W/m -1,1 C -0,3 C 12,9 km/h (3 Bft)
08.01.2021 10:48 -0,3 C 0,0 C 93 % 1016,9 hPa 0,0 l/m 4,7 km/h (1 Bft) W-SW 243 0 min 0,0 UV-I 33 W/m -1,3 C -0,3 C 8,0 km/h (2 Bft)
08.01.2021 10:50 -0,3 C 0,0 C 93 % 1016,8 hPa 0,0 l/m 7,1 km/h (2 Bft) SW 228 0 min 0,0 UV-I 33 W/m -1,3 C -1,0 C 12,9 km/h (3 Bft)
08.01.2021 10:52 -0,3 C 0,0 C 93 % 1016,8 hPa 0,0 l/m 5,4 km/h (1 Bft) W 259 0 min 0,0 UV-I 33 W/m -1,3 C -0,3 C 8,0 km/h (2 Bft)
08.01.2021 10:54 -0,2 C 0,0 C 93 % 1016,8 hPa 0,0 l/m 5,5 km/h (1 Bft) S-SW 201 0 min 0,0 UV-I 32 W/m -1,2 C -0,2 C 8,0 km/h (2 Bft)
08.01.2021 10:56 -0,2 C 0,0 C 93 % 1016,8 hPa 0,0 l/m 3,8 km/h (1 Bft) SW 229 0 min 0,0 UV-I 32 W/m -1,2 C -0,2 C 8,0 km/h (2 Bft)
08.01.2021 10:58 -0,2 C 0,0 C 93 % 1016,8 hPa 0,0 l/m 4,6 km/h (1 Bft) SW 236 0 min 0,0 UV-I 32 W/m -1,2 C -0,2 C 8,0 km/h (2 Bft)
08.01.2021 11:00 -0,1 C 0,0 C 93 % 1016,8 hPa 0,0 l/m 5,7 km/h (1 Bft) W-SW 237 0 min 0,0 UV-I 32 W/m -1,1 C -0,1 C 12,9 km/h (3 Bft)
08.01.2021 11:02 -0,1 C 0,0 C 93 % 1016,9 hPa 0,0 l/m 5,2 km/h (1 Bft) SW 229 0 min 0,0 UV-I 33 W/m -1,1 C -0,1 C 9,7 km/h (2 Bft)
08.01.2021 11:04 -0,1 C 0,0 C 93 % 1017,0 hPa 0,0 l/m 3,0 km/h (1 Bft) SW 232 0 min 0,0 UV-I 35 W/m -1,1 C -0,1 C 4,8 km/h (1 Bft)
08.01.2021 11:06 -0,1 C 0,0 C 93 % 1016,9 hPa 0,0 l/m 3,9 km/h (1 Bft) S-SW 207 0 min 0,0 UV-I 37 W/m -1,1 C -0,1 C 6,4 km/h (2 Bft)
08.01.2021 11:08 0,0 C 0,0 C 93 % 1017,0 hPa 0,0 l/m 4,1 km/h (1 Bft) W-SW 242 0 min 0,0 UV-I 33 W/m -1,0 C 0,0 C 6,4 km/h (2 Bft)
08.01.2021 11:10 0,0 C 0,0 C 93 % 1016,9 hPa 0,0 l/m 2,5 km/h (1 Bft) W-SW 237 0 min 0,0 UV-I 29 W/m -1,0 C 0,0 C 4,8 km/h (1 Bft)
08.01.2021 11:12 0,1 C 0,0 C 93 % 1016,9 hPa 0,0 l/m 3,3 km/h (1 Bft) W-SW 257 0 min 0,0 UV-I 28 W/m -0,9 C 0,1 C 6,4 km/h (2 Bft)
08.01.2021 11:14 0,1 C 0,0 C 93 % 1017,0 hPa 0,0 l/m 3,7 km/h (1 Bft) W-SW 245 0 min 0,0 UV-I 31 W/m -0,9 C 0,1 C 8,0 km/h (2 Bft)
08.01.2021 11:16 0,1 C 0,0 C 92 % 1016,9 hPa 0,0 l/m 3,7 km/h (1 Bft) SW 220 0 min 0,0 UV-I 32 W/m -1,0 C 0,1 C 6,4 km/h (2 Bft)
08.01.2021 11:17 0,1 C 0,0 C 92 % 1016,9 hPa 0,0 l/m 3,2 km/h (1 Bft) SW 225 0 min 0,0 UV-I 33 W/m -1,0 C 0,1 C 4,8 km/h (1 Bft)
08.01.2021 11:18 0,1 C 0,0 C 92 % 1016,9 hPa 0,0 l/m 1,6 km/h (1 Bft) SW 225 0 min 0,0 UV-I 34 W/m -1,0 C 0,1 C 4,8 km/h (1 Bft)
08.01.2021 11:19 0,2 C 0,0 C 92 % 1016,9 hPa 0,0 l/m 3,2 km/h (1 Bft) SW 225 0 min 0,0 UV-I 35 W/m -0,9 C 0,2 C 3,2 km/h (1 Bft)
08.01.2021 11:20 0,2 C 0,0 C 92 % 1017,0 hPa 0,0 l/m 3,2 km/h (1 Bft) SW 225 0 min 0,0 UV-I 35 W/m -0,9 C 0,2 C 6,4 km/h (2 Bft)
08.01.2021 11:21 0,2 C 0,0 C 92 % 1017,0 hPa 0,0 l/m 3,2 km/h (1 Bft) W-SW 247 0 min 0,0 UV-I 35 W/m -0,9 C 0,2 C 3,2 km/h (1 Bft)
08.01.2021 11:22 0,2 C 0,0 C 92 % 1016,9 hPa 0,0 l/m 2,6 km/h (1 Bft) W-SW 242 0 min 0,0 UV-I 33 W/m -0,9 C 0,2 C 3,2 km/h (1 Bft)
08.01.2021 11:24 0,2 C 0,0 C 92 % 1017,0 hPa 0,0 l/m 5,8 km/h (2 Bft) W-SW 240 0 min 0,0 UV-I 33 W/m -0,9 C 0,2 C 8,0 km/h (2 Bft)
08.01.2021 11:26 0,3 C 0,0 C 92 % 1017,0 hPa 0,0 l/m 4,0 km/h (1 Bft) SW 229 0 min 0,0 UV-I 32 W/m -0,8 C 0,3 C 6,4 km/h (2 Bft)
08.01.2021 11:28 0,3 C 0,0 C 92 % 1016,9 hPa 0,0 l/m 2,9 km/h (1 Bft) SW 229 0 min 0,0 UV-I 32 W/m -0,8 C 0,3 C 4,8 km/h (1 Bft)
08.01.2021 11:30 0,3 C 0,0 C 92 % 1017,0 hPa 0,0 l/m 3,9 km/h (1 Bft) SW 219 0 min 0,0 UV-I 32 W/m -0,8 C 0,3 C 8,0 km/h (2 Bft)
08.01.2021 11:32 0,3 C 0,0 C 91 % 1017,1 hPa 0,0 l/m 3,9 km/h (1 Bft) SW 236 0 min 0,0 UV-I 32 W/m -1,0 C 0,3 C 6,4 km/h (2 Bft)
08.01.2021 11:34 0,3 C 0,0 C 92 % 1017,1 hPa 0,0 l/m 4,1 km/h (1 Bft) SW 215 0 min 0,0 UV-I 30 W/m -0,8 C 0,3 C 6,4 km/h (2 Bft)
08.01.2021 11:36 0,3 C 0,0 C 91 % 1017,0 hPa 0,0 l/m 3,9 km/h (1 Bft) W-SW 255 0 min 0,0 UV-I 30 W/m -1,0 C 0,3 C 6,4 km/h (2 Bft)
08.01.2021 11:38 0,3 C 0,0 C 91 % 1017,1 hPa 0,0 l/m 3,0 km/h (1 Bft) W-SW 248 0 min 0,0 UV-I 30 W/m -1,0 C 0,3 C 4,8 km/h (1 Bft)
08.01.2021 11:40 0,4 C 0,0 C 91 % 1017,1 hPa 0,0 l/m 3,4 km/h (1 Bft) W-SW 248 0 min 0,0 UV-I 31 W/m -0,9 C 0,4 C 4,8 km/h (1 Bft)
08.01.2021 11:42 0,4 C 0,0 C 91 % 1017,0 hPa 0,0 l/m 3,4 km/h (1 Bft) SW 234 0 min 0,0 UV-I 32 W/m -0,9 C 0,4 C 6,4 km/h (2 Bft)
08.01.2021 11:44 0,4 C 0,0 C 91 % 1017,0 hPa 0,0 l/m 3,2 km/h (1 Bft) W-SW 248 0 min 0,0 UV-I 33 W/m -0,9 C 0,4 C 6,4 km/h (2 Bft)
08.01.2021 11:46 0,4 C 0,0 C 91 % 1017,0 hPa 0,0 l/m 4,7 km/h (1 Bft) SW 229 0 min 0,0 UV-I 33 W/m -0,9 C 0,4 C 8,0 km/h (2 Bft)
08.01.2021 11:48 0,4 C 0,0 C 91 % 1017,1 hPa 0,0 l/m 5,8 km/h (2 Bft) W-SW 247 0 min 0,0 UV-I 33 W/m -0,9 C 0,4 C 11,3 km/h (2 Bft)
08.01.2021 11:50 0,4 C 0,0 C 91 % 1017,1 hPa 0,0 l/m 4,9 km/h (1 Bft) SW 225 0 min 0,0 UV-I 33 W/m -0,9 C 0,4 C 8,0 km/h (2 Bft)
08.01.2021 11:52 0,4 C 0,0 C 91 % 1017,1 hPa 0,0 l/m 4,0 km/h (1 Bft) SW 221 0 min 0,0 UV-I 33 W/m -0,9 C 0,4 C 6,4 km/h (2 Bft)
08.01.2021 11:54 0,4 C 0,0 C 91 % 1017,1 hPa 0,0 l/m 3,6 km/h (1 Bft) SW 229 0 min 0,0 UV-I 31 W/m -0,9 C 0,4 C 4,8 km/h (1 Bft)
08.01.2021 11:56 0,4 C 0,0 C 91 % 1017,0 hPa 0,0 l/m 2,6 km/h (1 Bft) SW 229 0 min 0,0 UV-I 27 W/m -0,9 C 0,4 C 6,4 km/h (2 Bft)
08.01.2021 11:58 0,4 C 0,0 C 91 % 1017,1 hPa 0,0 l/m 3,3 km/h (1 Bft) SW 229 0 min 0,0 UV-I 26 W/m -0,9 C 0,4 C 4,8 km/h (1 Bft)
08.01.2021 12:00 0,4 C 0,0 C 91 % 1017,1 hPa 0,0 l/m 5,1 km/h (1 Bft) W-SW 238 0 min 0,0 UV-I 28 W/m -0,9 C 0,4 C 8,0 km/h (2 Bft)
08.01.2021 12:02 0,4 C 0,0 C 90 % 1017,1 hPa 0,0 l/m 4,1 km/h (1 Bft) SW 225 0 min 0,0 UV-I 28 W/m -1,0 C 0,4 C 8,0 km/h (2 Bft)
08.01.2021 12:04 0,4 C 0,0 C 90 % 1017,1 hPa 0,0 l/m 3,1 km/h (1 Bft) SW 225 0 min 0,0 UV-I 28 W/m -1,0 C 0,4 C 4,8 km/h (1 Bft)
08.01.2021 12:06 0,4 C 0,0 C 90 % 1017,1 hPa 0,0 l/m 4,4 km/h (1 Bft) SW 217 0 min 0,0 UV-I 28 W/m -1,0 C 0,4 C 8,0 km/h (2 Bft)
08.01.2021 12:08 0,4 C 0,0 C 90 % 1017,1 hPa 0,0 l/m 5,1 km/h (1 Bft) SW 219 0 min 0,0 UV-I 30 W/m -1,0 C 0,4 C 8,0 km/h (2 Bft)
08.01.2021 12:10 0,4 C 0,0 C 90 % 1017,1 hPa 0,0 l/m 4,9 km/h (1 Bft) SW 215 0 min 0,0 UV-I 32 W/m -1,0 C 0,4 C 8,0 km/h (2 Bft)
08.01.2021 12:12 0,4 C 0,0 C 90 % 1017,2 hPa 0,0 l/m 5,3 km/h (1 Bft) S-SW 212 0 min 0,0 UV-I 32 W/m -1,0 C 0,4 C 8,0 km/h (2 Bft)
08.01.2021 12:14 0,4 C 0,0 C 90 % 1017,0 hPa 0,0 l/m 5,2 km/h (1 Bft) SW 232 0 min 0,0 UV-I 32 W/m -1,0 C 0,4 C 6,4 km/h (2 Bft)
08.01.2021 12:16 0,4 C 0,0 C 90 % 1017,1 hPa 0,0 l/m 4,6 km/h (1 Bft) S 188 0 min 0,0 UV-I 33 W/m -1,0 C 0,4 C 6,4 km/h (2 Bft)
08.01.2021 12:18 0,4 C 0,0 C 90 % 1017,0 hPa 0,0 l/m 4,6 km/h (1 Bft) SW 219 0 min 0,0 UV-I 33 W/m -1,0 C 0,4 C 8,0 km/h (2 Bft)
08.01.2021 12:20 0,4 C 0,0 C 90 % 1017,0 hPa 0,0 l/m 4,0 km/h (1 Bft) SW 223 0 min 0,0 UV-I 33 W/m -1,0 C 0,4 C 6,4 km/h (2 Bft)
08.01.2021 12:22 0,4 C 0,0 C 90 % 1017,0 hPa 0,0 l/m 4,8 km/h (1 Bft) W 259 0 min 0,0 UV-I 33 W/m -1,0 C 0,4 C 6,4 km/h (2 Bft)
08.01.2021 12:24 0,4 C 0,0 C 90 % 1016,9 hPa 0,0 l/m 5,6 km/h (1 Bft) W-SW 249 0 min 0,0 UV-I 33 W/m -1,0 C 0,4 C 9,7 km/h (2 Bft)
08.01.2021 12:26 0,4 C 0,0 C 90 % 1016,9 hPa 0,0 l/m 3,8 km/h (1 Bft) W-SW 248 0 min 0,0 UV-I 33 W/m -1,0 C 0,4 C 4,8 km/h (1 Bft)
08.01.2021 12:28 0,4 C 0,0 C 90 % 1017,0 hPa 0,0 l/m 4,4 km/h (1 Bft) SW 236 0 min 0,0 UV-I 33 W/m -1,0 C 0,4 C 6,4 km/h (2 Bft)
08.01.2021 12:30 0,4 C 0,0 C 90 % 1017,0 hPa 0,0 l/m 4,8 km/h (1 Bft) SW 227 0 min 0,0 UV-I 35 W/m -1,0 C 0,4 C 8,0 km/h (2 Bft)
08.01.2021 12:32 0,4 C 0,0 C 90 % 1016,9 hPa 0,0 l/m 4,2 km/h (1 Bft) S-SW 212 0 min 0,0 UV-I 34 W/m -1,0 C 0,4 C 6,4 km/h (2 Bft)
08.01.2021 12:34 0,4 C 0,0 C 90 % 1016,9 hPa 0,0 l/m 4,3 km/h (1 Bft) S-SW 213 0 min 0,0 UV-I 33 W/m -1,0 C 0,4 C 6,4 km/h (2 Bft)
08.01.2021 12:36 0,5 C 0,0 C 90 % 1016,9 hPa 0,0 l/m 3,1 km/h (1 Bft) SW 222 0 min 0,0 UV-I 33 W/m -0,9 C 0,5 C 4,8 km/h (1 Bft)
08.01.2021 12:38 0,5 C 0,0 C 90 % 1016,9 hPa 0,0 l/m 5,3 km/h (1 Bft) SW 219 0 min 0,0 UV-I 33 W/m -0,9 C 0,5 C 9,7 km/h (2 Bft)
08.01.2021 12:40 0,5 C 0,0 C 90 % 1017,0 hPa 0,0 l/m 4,0 km/h (1 Bft) W-SW 240 0 min 0,0 UV-I 35 W/m -0,9 C 0,5 C 8,0 km/h (2 Bft)
08.01.2021 12:42 0,5 C 0,0 C 90 % 1017,0 hPa 0,0 l/m 1,7 km/h (1 Bft) W-SW 246 0 min 0,0 UV-I 35 W/m -0,9 C 0,5 C 4,8 km/h (1 Bft)
08.01.2021 12:44 0,5 C 0,0 C 90 % 1017,0 hPa 0,0 l/m 3,0 km/h (1 Bft) W-SW 239 0 min 0,0 UV-I 35 W/m -0,9 C 0,5 C 6,4 km/h (2 Bft)
08.01.2021 12:46 0,5 C 0,0 C 90 % 1017,0 hPa 0,0 l/m 1,2 km/h (1 Bft) W-SW 240 0 min 0,0 UV-I 35 W/m -0,9 C 0,5 C 3,2 km/h (1 Bft)
08.01.2021 12:48 0,6 C 0,0 C 90 % 1017,0 hPa 0,0 l/m 1,2 km/h (1 Bft) W-SW 248 0 min 0,0 UV-I 35 W/m -0,8 C 0,6 C 4,8 km/h (1 Bft)
08.01.2021 12:50 0,6 C 0,0 C 90 % 1016,9 hPa 0,0 l/m 2,5 km/h (1 Bft) W-SW 248 0 min 0,0 UV-I 37 W/m -0,8 C 0,6 C 4,8 km/h (1 Bft)
08.01.2021 12:52 0,6 C 0,0 C 90 % 1017,1 hPa 0,0 l/m 1,1 km/h (1 Bft) W-SW 248 0 min 0,0 UV-I 40 W/m -0,8 C 0,6 C 4,8 km/h (1 Bft)
08.01.2021 12:54 0,6 C 0,0 C 90 % 1017,0 hPa 0,0 l/m 1,6 km/h (1 Bft) W-SW 250 0 min 0,0 UV-I 42 W/m -0,8 C 0,6 C 4,8 km/h (1 Bft)
08.01.2021 12:56 0,7 C 0,0 C 90 % 1016,9 hPa 0,0 l/m 0,5 km/h (0 Bft) W 260 0 min 0,0 UV-I 47 W/m -0,7 C 0,7 C 4,8 km/h (1 Bft)
08.01.2021 12:58 0,7 C 0,0 C 91 % 1017,1 hPa 0,0 l/m 3,4 km/h (1 Bft) W-SW 248 0 min 0,0 UV-I 52 W/m -0,6 C 0,7 C 9,7 km/h (2 Bft)
08.01.2021 13:00 0,7 C 0,0 C 91 % 1017,0 hPa 0,0 l/m 1,6 km/h (1 Bft) W-SW 244 0 min 0,9 UV-I 59 W/m -0,6 C 0,7 C 6,4 km/h (2 Bft)
08.01.2021 13:02 0,8 C 0,0 C 91 % 1017,0 hPa 0,0 l/m 1,1 km/h (1 Bft) SW 236 0 min 0,9 UV-I 63 W/m -0,5 C 0,8 C 3,2 km/h (1 Bft)
08.01.2021 13:04 0,9 C 0,0 C 90 % 1017,0 hPa 0,0 l/m 2,0 km/h (1 Bft) W-SW 253 0 min 0,9 UV-I 63 W/m -0,6 C 0,9 C 6,4 km/h (2 Bft)
08.01.2021 13:06 0,9 C 0,0 C 90 % 1017,1 hPa 0,0 l/m 0,5 km/h (0 Bft) SW 228 0 min 0,9 UV-I 64 W/m -0,6 C 0,9 C 3,2 km/h (1 Bft)
08.01.2021 13:08 1,0 C 0,0 C 90 % 1017,0 hPa 0,0 l/m 3,3 km/h (1 Bft) W-SW 242 0 min 0,8 UV-I 68 W/m -0,5 C 1,0 C 11,3 km/h (2 Bft)
08.01.2021 13:10 1,1 C 0,0 C 90 % 1017,0 hPa 0,0 l/m 0,8 km/h (0 Bft) W-SW 252 0 min 0,9 UV-I 74 W/m -0,4 C 1,1 C 6,4 km/h (2 Bft)
08.01.2021 13:12 1,1 C 0,0 C 90 % 1017,0 hPa 0,0 l/m 2,4 km/h (1 Bft) W-SW 258 0 min 0,9 UV-I 78 W/m -0,4 C 1,1 C 9,7 km/h (2 Bft)
08.01.2021 13:14 1,1 C 0,0 C 90 % 1017,0 hPa 0,0 l/m 2,4 km/h (1 Bft) W-SW 252 0 min 0,9 UV-I 82 W/m -0,4 C 1,1 C 9,7 km/h (2 Bft)
08.01.2021 13:16 1,1 C 0,0 C 90 % 1017,1 hPa 0,0 l/m 2,2 km/h (1 Bft) SW 229 0 min 0,9 UV-I 77 W/m -0,4 C 1,1 C 8,0 km/h (2 Bft)
08.01.2021 13:18 1,1 C 0,0 C 90 % 1017,1 hPa 0,0 l/m 3,0 km/h (1 Bft) W-SW 240 0 min 0,9 UV-I 76 W/m -0,4 C 1,1 C 11,3 km/h (2 Bft)
08.01.2021 13:20 1,1 C 0,0 C 90 % 1017,0 hPa 0,0 l/m 0,0 km/h (0 Bft) W 281 0 min 0,9 UV-I 79 W/m -0,4 C 1,1 C 0,0 km/h (0 Bft)
08.01.2021 13:22 1,1 C 0,0 C 90 % 1017,0 hPa 0,0 l/m 0,0 km/h (0 Bft) SW 234 0 min 0,9 UV-I 77 W/m -0,4 C 1,1 C 0,0 km/h (0 Bft)
08.01.2021 13:24 1,1 C 0,0 C 90 % 1017,0 hPa 0,0 l/m 0,0 km/h (0 Bft) W-SW 257 0 min 0,8 UV-I 76 W/m -0,4 C 1,1 C 0,0 km/h (0 Bft)
08.01.2021 13:26 1,1 C 0,0 C 90 % 1017,0 hPa 0,0 l/m 0,0 km/h (0 Bft) W-SW 243 0 min 0,8 UV-I 73 W/m -0,4 C 1,1 C 0,0 km/h (0 Bft)
08.01.2021 13:28 1,1 C 0,0 C 90 % 1017,0 hPa 0,0 l/m 0,0 km/h (0 Bft) SW 235 0 min 0,8 UV-I 69 W/m -0,4 C 1,1 C 0,0 km/h (0 Bft)
08.01.2021 13:30 1,1 C 0,0 C 90 % 1017,0 hPa 0,0 l/m 0,0 km/h (0 Bft) W 259 0 min 0,7 UV-I 63 W/m -0,4 C 1,1 C 0,0 km/h (0 Bft)
08.01.2021 13:32 1,0 C 0,0 C 89 % 1017,0 hPa 0,0 l/m 0,0 km/h (0 Bft) W-SW 258 0 min 0,7 UV-I 62 W/m -0,6 C 1,0 C 0,0 km/h (0 Bft)
08.01.2021 13:34 1,0 C 0,0 C 89 % 1016,9 hPa 0,0 l/m 0,0 km/h (0 Bft) W 267 0 min 0,6 UV-I 58 W/m -0,6 C 1,0 C 0,0 km/h (0 Bft)
08.01.2021 13:36 1,0 C 0,0 C 89 % 1017,0 hPa 0,0 l/m 0,0 km/h (0 Bft) SW 233 0 min 0,0 UV-I 51 W/m -0,6 C 1,0 C 0,0 km/h (0 Bft)
08.01.2021 13:38 0,9 C 0,0 C 89 % 1017,0 hPa 0,0 l/m 0,0 km/h (0 Bft) W 260 0 min 0,0 UV-I 45 W/m -0,7 C 0,9 C 0,0 km/h (0 Bft)
08.01.2021 13:40 0,9 C 0,0 C 89 % 1017,1 hPa 0,0 l/m 0,0 km/h (0 Bft) SW 230 0 min 0,0 UV-I 45 W/m -0,7 C 0,9 C 0,0 km/h (0 Bft)
08.01.2021 13:42 0,8 C 0,0 C 89 % 1017,1 hPa 0,0 l/m 0,0 km/h (0 Bft) W 267 0 min 0,0 UV-I 41 W/m -0,8 C 0,8 C 0,0 km/h (0 Bft)
08.01.2021 13:44 0,8 C 0,0 C 89 % 1017,1 hPa 0,0 l/m 0,0 km/h (0 Bft) W-SW 242 0 min 0,0 UV-I 40 W/m -0,8 C 0,8 C 0,0 km/h (0 Bft)
08.01.2021 13:46 0,8 C 0,0 C 89 % 1017,2 hPa 0,0 l/m 0,0 km/h (0 Bft) W-SW 245 0 min 0,0 UV-I 40 W/m -0,8 C 0,8 C 0,0 km/h (0 Bft)
08.01.2021 13:48 0,8 C 0,0 C 90 % 1017,1 hPa 0,0 l/m 0,0 km/h (0 Bft) W-SW 245 0 min 0,0 UV-I 42 W/m -0,6 C 0,8 C 0,0 km/h (0 Bft)
08.01.2021 13:50 0,7 C 0,0 C 90 % 1017,2 hPa 0,0 l/m 0,0 km/h (0 Bft) W 259 0 min 0,0 UV-I 48 W/m -0,7 C 0,7 C 0,0 km/h (0 Bft)
08.01.2021 13:52 0,7 C 0,0 C 90 % 1017,2 hPa 0,0 l/m 0,0 km/h (0 Bft) W-SW 252 0 min 0,3 UV-I 55 W/m -0,7 C 0,7 C 0,0 km/h (0 Bft)
08.01.2021 13:54 0,7 C 0,0 C 90 % 1017,2 hPa 0,0 l/m 0,0 km/h (0 Bft) SW 236 0 min 0,6 UV-I 63 W/m -0,7 C 0,7 C 0,0 km/h (0 Bft)
08.01.2021 13:56 0,7 C 0,0 C 90 % 1017,1 hPa 0,0 l/m 0,0 km/h (0 Bft) W-SW 253 0 min 0,6 UV-I 67 W/m -0,7 C 0,7 C 0,0 km/h (0 Bft)
08.01.2021 13:58 0,7 C 0,0 C 90 % 1017,2 hPa 0,0 l/m 0,0 km/h (0 Bft) W-SW 239 0 min 0,6 UV-I 67 W/m -0,7 C 0,7 C 0,0 km/h (0 Bft)
08.01.2021 14:00 0,7 C 0,0 C 90 % 1017,2 hPa 0,0 l/m 0,0 km/h (0 Bft) W-SW 243 0 min 0,6 UV-I 73 W/m -0,7 C 0,7 C 0,0 km/h (0 Bft)
08.01.2021 14:02 0,7 C 0,0 C 90 % 1017,2 hPa 0,0 l/m 0,0 km/h (0 Bft) W 260 0 min 0,7 UV-I 83 W/m -0,7 C 0,7 C 0,0 km/h (0 Bft)
08.01.2021 14:04 0,8 C 0,0 C 90 % 1017,2 hPa 0,0 l/m 0,0 km/h (0 Bft) W-SW 250 0 min 0,6 UV-I 86 W/m -0,6 C 0,8 C 0,0 km/h (0 Bft)
08.01.2021 14:06 0,8 C 0,0 C 90 % 1017,2 hPa 0,0 l/m 0,0 km/h (0 Bft) W-SW 254 0 min 0,7 UV-I 93 W/m -0,6 C 0,8 C 0,0 km/h (0 Bft)
08.01.2021 14:08 0,8 C 0,0 C 90 % 1017,1 hPa 0,0 l/m 0,0 km/h (0 Bft) W-SW 239 0 min 0,7 UV-I 102 W/m -0,6 C 0,8 C 0,0 km/h (0 Bft)
08.01.2021 14:10 0,8 C 0,0 C 90 % 1017,1 hPa 0,0 l/m 0,0 km/h (0 Bft) W-SW 252 0 min 0,7 UV-I 108 W/m -0,6 C 0,8 C 0,0 km/h (0 Bft)
08.01.2021 14:12 0,8 C 0,0 C 90 % 1017,1 hPa 0,0 l/m 0,0 km/h (0 Bft) W-SW 248 0 min 0,7 UV-I 108 W/m -0,6 C 0,8 C 0,0 km/h (0 Bft)
08.01.2021 14:14 0,9 C 0,0 C 90 % 1017,1 hPa 0,0 l/m 0,0 km/h (0 Bft) W 261 0 min 0,7 UV-I 110 W/m -0,6 C 0,9 C 0,0 km/h (0 Bft)
08.01.2021 14:16 0,9 C 0,0 C 90 % 1017,1 hPa 0,0 l/m 0,0 km/h (0 Bft) W-SW 244 0 min 0,7 UV-I 111 W/m -0,6 C 0,9 C 0,0 km/h (0 Bft)
08.01.2021 14:18 0,9 C 0,0 C 90 % 1017,1 hPa 0,0 l/m 0,0 km/h (0 Bft) W-SW 257 0 min 0,7 UV-I 106 W/m -0,6 C 0,9 C 0,0 km/h (0 Bft)
08.01.2021 14:20 0,9 C 0,0 C 90 % 1017,1 hPa 0,0 l/m 0,0 km/h (0 Bft) SW 235 0 min 0,7 UV-I 102 W/m -0,6 C 0,9 C 0,0 km/h (0 Bft)
08.01.2021 14:22 0,9 C 0,0 C 90 % 1017,1 hPa 0,0 l/m 0,0 km/h (0 Bft) W-SW 243 0 min 0,6 UV-I 94 W/m -0,6 C 0,9 C 0,0 km/h (0 Bft)
08.01.2021 14:24 0,9 C 0,0 C 90 % 1017,1 hPa 0,0 l/m 0,0 km/h (0 Bft) W-SW 246 0 min 0,6 UV-I 88 W/m -0,6 C 0,9 C 0,0 km/h (0 Bft)
08.01.2021 14:26 0,9 C 0,0 C 90 % 1017,1 hPa 0,0 l/m 0,0 km/h (0 Bft) W-SW 246 0 min 0,6 UV-I 87 W/m -0,6 C 0,9 C 0,0 km/h (0 Bft)
08.01.2021 14:28 0,9 C 0,0 C 89 % 1017,1 hPa 0,0 l/m 0,0 km/h (0 Bft) W 263 0 min 0,6 UV-I 89 W/m -0,7 C 0,9 C 0,0 km/h (0 Bft)
08.01.2021 14:30 0,9 C 0,0 C 89 % 1017,0 hPa 0,0 l/m 0,0 km/h (0 Bft) W-SW 251 0 min 0,6 UV-I 89 W/m -0,7 C 0,9 C 0,0 km/h (0 Bft)
08.01.2021 14:32 0,9 C 0,0 C 89 % 1017,0 hPa 0,0 l/m 0,0 km/h (0 Bft) W-SW 244 0 min 0,5 UV-I 83 W/m -0,7 C 0,9 C 0,0 km/h (0 Bft)
08.01.2021 14:34 0,9 C 0,0 C 90 % 1017,1 hPa 0,0 l/m 0,0 km/h (0 Bft) W-SW 248 0 min 0,5 UV-I 77 W/m -0,6 C 0,9 C 0,0 km/h (0 Bft)
08.01.2021 14:36 0,8 C 0,0 C 90 % 1017,1 hPa 0,0 l/m 0,0 km/h (0 Bft) SW 228 0 min 0,5 UV-I 67 W/m -0,6 C 0,8 C 0,0 km/h (0 Bft)
08.01.2021 14:38 0,8 C 0,0 C 90 % 1017,0 hPa 0,0 l/m 0,0 km/h (0 Bft) W-SW 240 0 min 0,5 UV-I 58 W/m -0,6 C 0,8 C 0,0 km/h (0 Bft)
08.01.2021 14:40 0,8 C 0,0 C 90 % 1017,1 hPa 0,0 l/m 0,0 km/h (0 Bft) W 259 0 min 0,0 UV-I 48 W/m -0,6 C 0,8 C 0,0 km/h (0 Bft)
08.01.2021 14:42 0,7 C 0,0 C 90 % 1017,1 hPa 0,0 l/m 0,0 km/h (0 Bft) SW 233 0 min 0,0 UV-I 44 W/m -0,7 C 0,7 C 0,0 km/h (0 Bft)
08.01.2021 14:44 0,7 C 0,0 C 90 % 1017,1 hPa 0,0 l/m 0,0 km/h (0 Bft) W-SW 248 0 min 0,0 UV-I 47 W/m -0,7 C 0,7 C 0,0 km/h (0 Bft)
08.01.2021 14:46 0,7 C 0,0 C 90 % 1017,1 hPa 0,0 l/m 0,0 km/h (0 Bft) W-SW 242 0 min 0,0 UV-I 48 W/m -0,7 C 0,7 C 0,0 km/h (0 Bft)
08.01.2021 14:48 0,7 C 0,0 C 90 % 1017,1 hPa 0,0 l/m 0,0 km/h (0 Bft) W-SW 242 0 min 0,0 UV-I 51 W/m -0,7 C 0,7 C 0,0 km/h (0 Bft)
08.01.2021 14:50 0,6 C 0,0 C 90 % 1017,1 hPa 0,0 l/m 0,0 km/h (0 Bft) W 263 0 min 0,0 UV-I 54 W/m -0,8 C 0,6 C 0,0 km/h (0 Bft)
08.01.2021 14:52 0,6 C 0,0 C 90 % 1017,2 hPa 0,0 l/m 0,0 km/h (0 Bft) W 261 0 min 0,0 UV-I 56 W/m -0,8 C 0,6 C 0,0 km/h (0 Bft)
08.01.2021 14:54 0,6 C 0,0 C 90 % 1017,2 hPa 0,0 l/m 0,0 km/h (0 Bft) SW 226 0 min 0,0 UV-I 53 W/m -0,8 C 0,6 C 0,0 km/h (0 Bft)
08.01.2021 14:56 0,6 C 0,0 C 90 % 1017,2 hPa 0,0 l/m 0,0 km/h (0 Bft) W-SW 240 0 min 0,0 UV-I 54 W/m -0,8 C 0,6 C 0,0 km/h (0 Bft)
08.01.2021 14:58 0,5 C 0,0 C 90 % 1017,2 hPa 0,0 l/m 0,0 km/h (0 Bft) W-SW 256 0 min 0,0 UV-I 59 W/m -0,9 C 0,5 C 0,0 km/h (0 Bft)
08.01.2021 15:00 0,5 C 0,0 C 90 % 1017,2 hPa 0,0 l/m 0,0 km/h (0 Bft) W-SW 250 0 min 0,0 UV-I 63 W/m -0,9 C 0,5 C 0,0 km/h (0 Bft)
08.01.2021 15:02 0,4 C 0,0 C 90 % 1017,3 hPa 0,0 l/m 0,0 km/h (0 Bft) W-SW 245 0 min 0,0 UV-I 66 W/m -1,0 C 0,4 C 0,0 km/h (0 Bft)
08.01.2021 15:04 0,5 C 0,0 C 90 % 1017,3 hPa 0,0 l/m 0,0 km/h (0 Bft) W 273 0 min 0,0 UV-I 67 W/m -0,9 C 0,5 C 0,0 km/h (0 Bft)
08.01.2021 15:06 0,4 C 0,0 C 91 % 1017,3 hPa 0,0 l/m 0,0 km/h (0 Bft) W 263 0 min 0,0 UV-I 67 W/m -0,9 C 0,4 C 0,0 km/h (0 Bft)
08.01.2021 15:08 0,5 C 0,0 C 91 % 1017,3 hPa 0,0 l/m 0,0 km/h (0 Bft) W-SW 252 0 min 0,0 UV-I 69 W/m -0,8 C 0,5 C 0,0 km/h (0 Bft)
08.01.2021 15:10 0,4 C 0,0 C 91 % 1017,4 hPa 0,0 l/m 0,0 km/h (0 Bft) W-SW 253 0 min 0,0 UV-I 68 W/m -0,9 C 0,4 C 0,0 km/h (0 Bft)
08.01.2021 15:12 0,4 C 0,0 C 91 % 1017,4 hPa 0,0 l/m 0,0 km/h (0 Bft) W-SW 246 0 min 0,0 UV-I 62 W/m -0,9 C 0,4 C 0,0 km/h (0 Bft)
08.01.2021 15:14 0,4 C 0,0 C 91 % 1017,3 hPa 0,0 l/m 0,0 km/h (0 Bft) W 268 0 min 0,0 UV-I 57 W/m -0,9 C 0,4 C 0,0 km/h (0 Bft)
08.01.2021 15:16 0,4 C 0,0 C 91 % 1017,3 hPa 0,0 l/m 0,0 km/h (0 Bft) W-SW 238 0 min 0,0 UV-I 53 W/m -0,9 C 0,4 C 0,0 km/h (0 Bft)
08.01.2021 15:18 0,4 C 0,0 C 91 % 1017,4 hPa 0,0 l/m 0,0 km/h (0 Bft) SW 234 0 min 0,0 UV-I 50 W/m -0,9 C 0,4 C 0,0 km/h (0 Bft)
08.01.2021 15:20 0,4 C 0,0 C 91 % 1017,3 hPa 0,0 l/m 0,0 km/h (0 Bft) W-SW 252 0 min 0,0 UV-I 51 W/m -0,9 C 0,4 C 0,0 km/h (0 Bft)
08.01.2021 15:22 0,4 C 0,0 C 91 % 1017,4 hPa 0,0 l/m 0,0 km/h (0 Bft) W-SW 254 0 min 0,0 UV-I 57 W/m -0,9 C 0,4 C 0,0 km/h (0 Bft)
08.01.2021 15:24 0,4 C 0,0 C 91 % 1017,4 hPa 0,0 l/m 0,0 km/h (0 Bft) W 269 0 min 0,0 UV-I 59 W/m -0,9 C 0,4 C 0,0 km/h (0 Bft)
08.01.2021 15:26 0,4 C 0,0 C 91 % 1017,4 hPa 0,0 l/m 0,0 km/h (0 Bft) SW 236 0 min 0,0 UV-I 56 W/m -0,9 C 0,4 C 0,0 km/h (0 Bft)
08.01.2021 15:28 0,4 C 0,0 C 91 % 1017,4 hPa 0,0 l/m 0,0 km/h (0 Bft) SW 236 0 min 0,0 UV-I 52 W/m -0,9 C 0,4 C 0,0 km/h (0 Bft)
08.01.2021 15:30 0,4 C 0,0 C 91 % 1017,4 hPa 0,0 l/m 0,0 km/h (0 Bft) SW 236 0 min 0,0 UV-I 51 W/m -0,9 C 0,4 C 0,0 km/h (0 Bft)
08.01.2021 15:32 0,4 C 0,0 C 91 % 1017,5 hPa 0,0 l/m 0,0 km/h (0 Bft) SW 236 0 min 0,0 UV-I 51 W/m -0,9 C 0,4 C 0,0 km/h (0 Bft)
08.01.2021 15:34 0,4 C 0,0 C 91 % 1017,5 hPa 0,0 l/m 0,0 km/h (0 Bft) W-SW 238 0 min 0,0 UV-I 50 W/m -0,9 C 0,4 C 0,0 km/h (0 Bft)
08.01.2021 15:36 0,4 C 0,0 C 91 % 1017,5 hPa 0,0 l/m 0,0 km/h (0 Bft) W-SW 237 0 min 0,0 UV-I 52 W/m -0,9 C 0,4 C 0,0 km/h (0 Bft)
08.01.2021 15:38 0,4 C 0,0 C 91 % 1017,6 hPa 0,0 l/m 0,0 km/h (0 Bft) W-SW 237 0 min 0,0 UV-I 49 W/m -0,9 C 0,4 C 0,0 km/h (0 Bft)
08.01.2021 15:40 0,4 C 0,0 C 91 % 1017,6 hPa 0,0 l/m 0,0 km/h (0 Bft) W 280 0 min 0,0 UV-I 44 W/m -0,9 C 0,4 C 0,0 km/h (0 Bft)
08.01.2021 15:42 0,4 C 0,0 C 91 % 1017,5 hPa 0,0 l/m 0,0 km/h (0 Bft) W 259 0 min 0,0 UV-I 42 W/m -0,9 C 0,4 C 0,0 km/h (0 Bft)
08.01.2021 15:44 0,4 C 0,0 C 91 % 1017,7 hPa 0,0 l/m 0,0 km/h (0 Bft) W-SW 257 0 min 0,0 UV-I 42 W/m -0,9 C 0,4 C 0,0 km/h (0 Bft)
08.01.2021 15:46 0,4 C 0,0 C 91 % 1017,6 hPa 0,0 l/m 0,0 km/h (0 Bft) W 265 0 min 0,0 UV-I 40 W/m -0,9 C 0,4 C 0,0 km/h (0 Bft)
08.01.2021 15:48 0,4 C 0,0 C 91 % 1017,7 hPa 0,0 l/m 0,0 km/h (0 Bft) W-SW 240 0 min 0,0 UV-I 39 W/m -0,9 C 0,4 C 0,0 km/h (0 Bft)
08.01.2021 15:50 0,4 C 0,0 C 91 % 1017,6 hPa 0,0 l/m 0,0 km/h (0 Bft) W-SW 254 0 min 0,0 UV-I 36 W/m -0,9 C 0,4 C 0,0 km/h (0 Bft)
08.01.2021 15:52 0,4 C 0,0 C 91 % 1017,8 hPa 0,0 l/m 0,0 km/h (0 Bft) SW 220 0 min 0,0 UV-I 33 W/m -0,9 C 0,4 C 0,0 km/h (0 Bft)
08.01.2021 15:54 0,3 C 0,0 C 91 % 1017,8 hPa 0,0 l/m 0,0 km/h (0 Bft) W-SW 243 0 min 0,0 UV-I 33 W/m -1,0 C 0,3 C 0,0 km/h (0 Bft)
08.01.2021 15:56 0,3 C 0,0 C 91 % 1017,8 hPa 0,0 l/m 0,0 km/h (0 Bft) W-SW 242 0 min 0,0 UV-I 33 W/m -1,0 C 0,3 C 0,0 km/h (0 Bft)
08.01.2021 15:58 0,3 C 0,0 C 91 % 1017,6 hPa 0,0 l/m 0,0 km/h (0 Bft) W-SW 244 0 min 0,0 UV-I 33 W/m -1,0 C 0,3 C 0,0 km/h (0 Bft)
08.01.2021 16:00 0,3 C 0,0 C 91 % 1017,8 hPa 0,0 l/m 0,0 km/h (0 Bft) W-SW 243 0 min 0,0 UV-I 32 W/m -1,0 C 0,3 C 0,0 km/h (0 Bft)
08.01.2021 16:02 0,3 C 0,0 C 91 % 1017,8 hPa 0,0 l/m 0,0 km/h (0 Bft) W 263 0 min 0,0 UV-I 30 W/m -1,0 C 0,3 C 0,0 km/h (0 Bft)
08.01.2021 16:04 0,3 C 0,0 C 91 % 1017,7 hPa 0,0 l/m 0,0 km/h (0 Bft) W-SW 246 0 min 0,0 UV-I 25 W/m -1,0 C 0,3 C 0,0 km/h (0 Bft)
08.01.2021 16:06 0,3 C 0,0 C 91 % 1017,8 hPa 0,0 l/m 0,0 km/h (0 Bft) W-SW 246 0 min 0,0 UV-I 23 W/m -1,0 C 0,3 C 0,0 km/h (0 Bft)
08.01.2021 16:08 0,3 C 0,0 C 91 % 1017,8 hPa 0,0 l/m 0,0 km/h (0 Bft) W-SW 258 0 min 0,0 UV-I 20 W/m -1,0 C 0,3 C 0,0 km/h (0 Bft)
08.01.2021 16:10 0,2 C 0,0 C 91 % 1017,9 hPa 0,0 l/m 0,0 km/h (0 Bft) W-SW 247 0 min 0,0 UV-I 19 W/m -1,1 C 0,2 C 0,0 km/h (0 Bft)
08.01.2021 16:12 0,2 C 0,0 C 91 % 1017,8 hPa 0,0 l/m 0,0 km/h (0 Bft) SW 230 0 min 0,0 UV-I 18 W/m -1,1 C 0,2 C 0,0 km/h (0 Bft)
08.01.2021 16:14 0,2 C 0,0 C 91 % 1017,8 hPa 0,0 l/m 0,0 km/h (0 Bft) W-SW 253 0 min 0,0 UV-I 17 W/m -1,1 C 0,2 C 0,0 km/h (0 Bft)
08.01.2021 16:16 0,2 C 0,0 C 91 % 1017,8 hPa 0,0 l/m 0,0 km/h (0 Bft) W-SW 246 0 min 0,0 UV-I 14 W/m -1,1 C 0,2 C 0,0 km/h (0 Bft)
08.01.2021 16:18 0,1 C 0,0 C 91 % 1017,9 hPa 0,0 l/m 0,0 km/h (0 Bft) W-SW 248 0 min 0,0 UV-I 13 W/m -1,2 C 0,1 C 0,0 km/h (0 Bft)
08.01.2021 16:20 0,1 C 0,0 C 91 % 1017,9 hPa 0,0 l/m 0,0 km/h (0 Bft) W-SW 243 0 min 0,0 UV-I 12 W/m -1,2 C 0,1 C 0,0 km/h (0 Bft)
08.01.2021 16:22 0,1 C 0,0 C 91 % 1017,9 hPa 0,0 l/m 0,0 km/h (0 Bft) SW 235 0 min 0,0 UV-I 12 W/m -1,2 C 0,1 C 0,0 km/h (0 Bft)
08.01.2021 16:24 0,1 C 0,0 C 91 % 1017,9 hPa 0,0 l/m 0,0 km/h (0 Bft) W-SW 255 0 min 0,0 UV-I 11 W/m -1,2 C 0,1 C 0,0 km/h (0 Bft)
08.01.2021 16:26 0,0 C 0,0 C 91 % 1017,9 hPa 0,0 l/m 0,0 km/h (0 Bft) W-SW 246 0 min 0,0 UV-I 10 W/m -1,3 C 0,0 C 0,0 km/h (0 Bft)
08.01.2021 16:28 0,0 C 0,0 C 91 % 1018,0 hPa 0,0 l/m 0,0 km/h (0 Bft) W-SW 246 0 min 0,0 UV-I 9 W/m -1,3 C 0,0 C 0,0 km/h (0 Bft)
08.01.2021 16:30 0,0 C 0,0 C 91 % 1018,0 hPa 0,0 l/m 0,0 km/h (0 Bft) W-SW 243 0 min 0,0 UV-I 9 W/m -1,3 C 0,0 C 0,0 km/h (0 Bft)
08.01.2021 16:32 -0,1 C 0,0 C 91 % 1018,0 hPa 0,0 l/m 0,0 km/h (0 Bft) W-SW 250 0 min 0,0 UV-I 7 W/m -1,4 C -0,1 C 0,0 km/h (0 Bft)
08.01.2021 16:34 -0,1 C 0,0 C 91 % 1018,1 hPa 0,0 l/m 0,0 km/h (0 Bft) W-SW 246 0 min 0,0 UV-I 5 W/m -1,4 C -0,1 C 0,0 km/h (0 Bft)
08.01.2021 16:36 -0,1 C 0,0 C 92 % 1018,1 hPa 0,0 l/m 0,0 km/h (0 Bft) W-SW 252 0 min 0,0 UV-I 5 W/m -1,2 C -0,1 C 0,0 km/h (0 Bft)
08.01.2021 16:38 -0,1 C 0,0 C 91 % 1018,2 hPa 0,0 l/m 0,0 km/h (0 Bft) W-SW 252 0 min 0,0 UV-I 5 W/m -1,4 C -0,1 C 0,0 km/h (0 Bft)
08.01.2021 16:40 -0,1 C 0,0 C 91 % 1018,2 hPa 0,0 l/m 0,0 km/h (0 Bft) W-SW 252 0 min 0,0 UV-I 1 W/m -1,4 C -0,1 C 0,0 km/h (0 Bft)
08.01.2021 16:42 -0,1 C 0,0 C 91 % 1018,2 hPa 0,0 l/m 0,0 km/h (0 Bft) W-SW 252 0 min 0,0 UV-I 0 W/m -1,4 C -0,1 C 0,0 km/h (0 Bft)
08.01.2021 16:44 -0,1 C 0,0 C 92 % 1018,2 hPa 0,0 l/m 0,0 km/h (0 Bft) W-SW 252 0 min 0,0 UV-I 0 W/m -1,2 C -0,1 C 0,0 km/h (0 Bft)
08.01.2021 16:46 -0,2 C 0,0 C 92 % 1018,3 hPa 0,0 l/m 0,0 km/h (0 Bft) W-SW 252 0 min 0,0 UV-I 0 W/m -1,3 C -0,2 C 0,0 km/h (0 Bft)
08.01.2021 16:48 -0,2 C 0,0 C 92 % 1018,3 hPa 0,0 l/m 0,0 km/h (0 Bft) W-SW 252 0 min 0,0 UV-I 0 W/m -1,3 C -0,2 C 0,0 km/h (0 Bft)
08.01.2021 16:50 -0,2 C 0,0 C 92 % 1018,4 hPa 0,0 l/m 0,0 km/h (0 Bft) W-SW 252 0 min 0,0 UV-I 0 W/m -1,3 C -0,2 C 0,0 km/h (0 Bft)
08.01.2021 16:52 -0,2 C 0,0 C 92 % 1018,5 hPa 0,0 l/m 0,0 km/h (0 Bft) W-SW 245 0 min 0,0 UV-I 0 W/m -1,3 C -0,2 C 0,0 km/h (0 Bft)
08.01.2021 16:54 -0,2 C 0,0 C 92 % 1018,4 hPa 0,0 l/m 0,0 km/h (0 Bft) W-SW 257 0 min 0,0 UV-I 0 W/m -1,3 C -0,2 C 0,0 km/h (0 Bft)
08.01.2021 16:56 -0,3 C 0,0 C 92 % 1018,5 hPa 0,0 l/m 0,0 km/h (0 Bft) W-SW 240 0 min 0,0 UV-I 0 W/m -1,4 C -0,3 C 0,0 km/h (0 Bft)
08.01.2021 16:58 -0,3 C 0,0 C 92 % 1018,5 hPa 0,0 l/m 0,0 km/h (0 Bft) W-SW 240 0 min 0,0 UV-I 0 W/m -1,4 C -0,3 C 0,0 km/h (0 Bft)
08.01.2021 17:00 -0,3 C 0,0 C 92 % 1018,5 hPa 0,0 l/m 0,0 km/h (0 Bft) SW 236 0 min 0,0 UV-I 0 W/m -1,4 C -0,3 C 0,0 km/h (0 Bft)
08.01.2021 17:02 -0,3 C 0,0 C 92 % 1018,5 hPa 0,0 l/m 0,0 km/h (0 Bft) W 260 0 min 0,0 UV-I 0 W/m -1,4 C -0,3 C 0,0 km/h (0 Bft)
08.01.2021 17:04 -0,3 C 0,0 C 92 % 1018,5 hPa 0,0 l/m 0,0 km/h (0 Bft) W-SW 248 0 min 0,0 UV-I 0 W/m -1,4 C -0,3 C 0,0 km/h (0 Bft)
08.01.2021 17:06 -0,3 C 0,0 C 92 % 1018,5 hPa 0,0 l/m 0,0 km/h (0 Bft) W-SW 238 0 min 0,0 UV-I 0 W/m -1,4 C -0,3 C 0,0 km/h (0 Bft)
08.01.2021 17:08 -0,3 C 0,0 C 92 % 1018,5 hPa 0,0 l/m 0,0 km/h (0 Bft) W-SW 248 0 min 0,0 UV-I 0 W/m -1,4 C -0,3 C 0,0 km/h (0 Bft)
08.01.2021 17:10 -0,3 C 0,0 C 92 % 1018,5 hPa 0,0 l/m 0,0 km/h (0 Bft) W-SW 246 0 min 0,0 UV-I 0 W/m -1,4 C -0,3 C 0,0 km/h (0 Bft)
08.01.2021 17:12 -0,3 C 0,0 C 92 % 1018,5 hPa 0,0 l/m 0,0 km/h (0 Bft) W-SW 239 0 min 0,0 UV-I 0 W/m -1,4 C -0,3 C 0,0 km/h (0 Bft)
08.01.2021 17:14 -0,3 C 0,0 C 92 % 1018,6 hPa 0,0 l/m 0,0 km/h (0 Bft) W-SW 254 0 min 0,0 UV-I 0 W/m -1,4 C -0,3 C 0,0 km/h (0 Bft)
08.01.2021 17:16 -0,3 C 0,0 C 92 % 1018,6 hPa 0,0 l/m 0,0 km/h (0 Bft) W-SW 252 0 min 0,0 UV-I 0 W/m -1,4 C -0,3 C 0,0 km/h (0 Bft)
08.01.2021 17:18 -0,4 C 0,0 C 92 % 1018,6 hPa 0,0 l/m 0,0 km/h (0 Bft) W-SW 258 0 min 0,0 UV-I 0 W/m -1,5 C -0,4 C 0,0 km/h (0 Bft)
08.01.2021 17:20 -0,4 C 0,0 C 92 % 1018,7 hPa 0,0 l/m 0,0 km/h (0 Bft) W-SW 248 0 min 0,0 UV-I 0 W/m -1,5 C -0,4 C 0,0 km/h (0 Bft)
08.01.2021 17:22 -0,4 C 0,0 C 92 % 1018,6 hPa 0,0 l/m 0,0 km/h (0 Bft) W-SW 244 0 min 0,0 UV-I 0 W/m -1,5 C -0,4 C 0,0 km/h (0 Bft)
08.01.2021 17:24 -0,4 C 0,0 C 92 % 1018,7 hPa 0,0 l/m 0,0 km/h (0 Bft) SW 232 0 min 0,0 UV-I 0 W/m -1,5 C -0,4 C 0,0 km/h (0 Bft)
08.01.2021 17:26 -0,4 C 0,0 C 92 % 1018,6 hPa 0,0 l/m 0,0 km/h (0 Bft) SW 232 0 min 0,0 UV-I 0 W/m -1,5 C -0,4 C 0,0 km/h (0 Bft)
08.01.2021 17:28 -0,4 C 0,0 C 93 % 1018,7 hPa 0,0 l/m 0,0 km/h (0 Bft) W-SW 239 0 min 0,0 UV-I 0 W/m -1,4 C -0,4 C 0,0 km/h (0 Bft)
08.01.2021 17:30 -0,4 C 0,0 C 93 % 1018,8 hPa 0,0 l/m 0,0 km/h (0 Bft) W-SW 239 0 min 0,0 UV-I 0 W/m -1,4 C -0,4 C 0,0 km/h (0 Bft)
08.01.2021 17:32 -0,4 C 0,0 C 93 % 1018,7 hPa 0,0 l/m 0,0 km/h (0 Bft) W-SW 239 0 min 0,0 UV-I 0 W/m -1,4 C -0,4 C 0,0 km/h (0 Bft)
08.01.2021 17:34 -0,4 C 0,0 C 93 % 1018,7 hPa 0,0 l/m 0,0 km/h (0 Bft) W-SW 239 0 min 0,0 UV-I 0 W/m -1,4 C -0,4 C 0,0 km/h (0 Bft)
08.01.2021 17:36 -0,4 C 0,0 C 93 % 1018,8 hPa 0,0 l/m 0,0 km/h (0 Bft) W-SW 239 0 min 0,0 UV-I 0 W/m -1,4 C -0,4 C 0,0 km/h (0 Bft)
08.01.2021 17:38 -0,4 C 0,0 C 93 % 1018,8 hPa 0,0 l/m 0,0 km/h (0 Bft) W-SW 239 0 min 0,0 UV-I 0 W/m -1,4 C -0,4 C 0,0 km/h (0 Bft)
08.01.2021 17:40 -0,4 C 0,0 C 93 % 1018,8 hPa 0,0 l/m 0,0 km/h (0 Bft) W-SW 239 0 min 0,0 UV-I 0 W/m -1,4 C -0,4 C 0,0 km/h (0 Bft)
08.01.2021 17:42 -0,5 C 0,0 C 93 % 1018,9 hPa 0,0 l/m 0,0 km/h (0 Bft) W-SW 239 0 min 0,0 UV-I 0 W/m -1,5 C -0,5 C 0,0 km/h (0 Bft)
08.01.2021 17:44 -0,5 C 0,0 C 93 % 1019,0 hPa 0,0 l/m 0,0 km/h (0 Bft) W-SW 239 0 min 0,0 UV-I 0 W/m -1,5 C -0,5 C 0,0 km/h (0 Bft)
08.01.2021 17:46 -0,5 C 0,0 C 93 % 1019,0 hPa 0,0 l/m 0,0 km/h (0 Bft) W-SW 239 0 min 0,0 UV-I 0 W/m -1,5 C -0,5 C 0,0 km/h (0 Bft)
08.01.2021 17:48 -0,5 C 0,0 C 93 % 1019,0 hPa 0,0 l/m 0,0 km/h (0 Bft) W-SW 239 0 min 0,0 UV-I 0 W/m -1,5 C -0,5 C 0,0 km/h (0 Bft)
08.01.2021 17:50 -0,5 C 0,0 C 93 % 1019,0 hPa 0,0 l/m 0,0 km/h (0 Bft) W-SW 239 0 min 0,0 UV-I 0 W/m -1,5 C -0,5 C 0,0 km/h (0 Bft)
08.01.2021 17:52 -0,5 C 0,0 C 93 % 1019,1 hPa 0,0 l/m 0,0 km/h (0 Bft) W-SW 239 0 min 0,0 UV-I 0 W/m -1,5 C -0,5 C 0,0 km/h (0 Bft)
08.01.2021 17:54 -0,5 C 0,0 C 93 % 1019,1 hPa 0,0 l/m 0,0 km/h (0 Bft) W-SW 239 0 min 0,0 UV-I 0 W/m -1,5 C -0,5 C 0,0 km/h (0 Bft)
08.01.2021 17:56 -0,5 C 0,0 C 93 % 1019,1 hPa 0,0 l/m 0,0 km/h (0 Bft) W-SW 239 0 min 0,0 UV-I 0 W/m -1,5 C -0,5 C 0,0 km/h (0 Bft)
08.01.2021 17:58 -0,5 C 0,0 C 93 % 1019,1 hPa 0,0 l/m 0,0 km/h (0 Bft) W-SW 239 0 min 0,0 UV-I 0 W/m -1,5 C -0,5 C 0,0 km/h (0 Bft)
08.01.2021 18:00 -0,5 C 0,0 C 93 % 1019,0 hPa 0,0 l/m 0,0 km/h (0 Bft) W-SW 239 0 min 0,0 UV-I 0 W/m -1,5 C -0,5 C 0,0 km/h (0 Bft)
08.01.2021 18:02 -0,5 C 0,0 C 93 % 1019,1 hPa 0,0 l/m 0,0 km/h (0 Bft) W-SW 239 0 min 0,0 UV-I 0 W/m -1,5 C -0,5 C 0,0 km/h (0 Bft)
08.01.2021 18:04 -0,6 C 0,0 C 93 % 1019,1 hPa 0,0 l/m 0,0 km/h (0 Bft) W-SW 239 0 min 0,0 UV-I 0 W/m -1,6 C -0,6 C 0,0 km/h (0 Bft)
08.01.2021 18:06 -0,6 C 0,0 C 93 % 1019,1 hPa 0,0 l/m 0,0 km/h (0 Bft) W-SW 239 0 min 0,0 UV-I 0 W/m -1,6 C -0,6 C 0,0 km/h (0 Bft)
08.01.2021 18:08 -0,5 C 0,0 C 93 % 1019,1 hPa 0,0 l/m 0,0 km/h (0 Bft) W-SW 239 0 min 0,0 UV-I 0 W/m -1,5 C -0,5 C 0,0 km/h (0 Bft)
08.01.2021 18:10 -0,6 C 0,0 C 93 % 1019,2 hPa 0,0 l/m 0,0 km/h (0 Bft) W-SW 239 0 min 0,0 UV-I 0 W/m -1,6 C -0,6 C 0,0 km/h (0 Bft)
08.01.2021 18:12 -0,6 C 0,0 C 93 % 1019,1 hPa 0,0 l/m 0,0 km/h (0 Bft) W-SW 239 0 min 0,0 UV-I 0 W/m -1,6 C -0,6 C 0,0 km/h (0 Bft)
08.01.2021 18:14 -0,6 C 0,0 C 93 % 1019,1 hPa 0,0 l/m 0,0 km/h (0 Bft) W-SW 239 0 min 0,0 UV-I 0 W/m -1,6 C -0,6 C 0,0 km/h (0 Bft)
08.01.2021 18:16 -0,6 C 0,0 C 93 % 1019,2 hPa 0,0 l/m 0,0 km/h (0 Bft) W-SW 239 0 min 0,0 UV-I 0 W/m -1,6 C -0,6 C 0,0 km/h (0 Bft)
08.01.2021 18:18 -0,6 C 0,0 C 93 % 1019,2 hPa 0,0 l/m 0,0 km/h (0 Bft) W-SW 239 0 min 0,0 UV-I 0 W/m -1,6 C -0,6 C 0,0 km/h (0 Bft)
08.01.2021 18:20 -0,6 C 0,0 C 93 % 1019,2 hPa 0,0 l/m 0,0 km/h (0 Bft) W-SW 239 0 min 0,0 UV-I 0 W/m -1,6 C -0,6 C 0,0 km/h (0 Bft)
08.01.2021 18:22 -0,6 C 0,0 C 93 % 1019,2 hPa 0,0 l/m 0,0 km/h (0 Bft) W-SW 239 0 min 0,0 UV-I 0 W/m -1,6 C -0,6 C 0,0 km/h (0 Bft)
08.01.2021 18:24 -0,6 C 0,0 C 93 % 1019,2 hPa 0,0 l/m 0,0 km/h (0 Bft) W-SW 239 0 min 0,0 UV-I 0 W/m -1,6 C -0,6 C 0,0 km/h (0 Bft)
08.01.2021 18:26 -0,6 C 0,0 C 93 % 1019,2 hPa 0,0 l/m 0,0 km/h (0 Bft) W-SW 239 0 min 0,0 UV-I 0 W/m -1,6 C -0,6 C 0,0 km/h (0 Bft)
08.01.2021 18:28 -0,6 C 0,0 C 93 % 1019,2 hPa 0,0 l/m 0,0 km/h (0 Bft) W-SW 239 0 min 0,0 UV-I 0 W/m -1,6 C -0,6 C 0,0 km/h (0 Bft)
08.01.2021 18:30 -0,6 C 0,0 C 93 % 1019,3 hPa 0,0 l/m 0,0 km/h (0 Bft) W-SW 239 0 min 0,0 UV-I 0 W/m -1,6 C -0,6 C 0,0 km/h (0 Bft)
08.01.2021 18:32 -0,6 C 0,0 C 93 % 1019,3 hPa 0,0 l/m 0,0 km/h (0 Bft) W-SW 239 0 min 0,0 UV-I 0 W/m -1,6 C -0,6 C 0,0 km/h (0 Bft)
08.01.2021 18:34 -0,6 C 0,0 C 93 % 1019,3 hPa 0,0 l/m 0,0 km/h (0 Bft) W-SW 239 0 min 0,0 UV-I 0 W/m -1,6 C -0,6 C 0,0 km/h (0 Bft)
08.01.2021 18:36 -0,6 C 0,0 C 93 % 1019,4 hPa 0,0 l/m 0,0 km/h (0 Bft) W-SW 239 0 min 0,0 UV-I 0 W/m -1,6 C -0,6 C 0,0 km/h (0 Bft)
08.01.2021 18:38 -0,6 C 0,0 C 93 % 1019,4 hPa 0,0 l/m 0,0 km/h (0 Bft) W-SW 239 0 min 0,0 UV-I 0 W/m -1,6 C -0,6 C 0,0 km/h (0 Bft)
08.01.2021 18:40 -0,6 C 0,0 C 93 % 1019,4 hPa 0,0 l/m 0,0 km/h (0 Bft) W-SW 239 0 min 0,0 UV-I 0 W/m -1,6 C -0,6 C 0,0 km/h (0 Bft)
08.01.2021 18:42 -0,6 C 0,0 C 93 % 1019,4 hPa 0,0 l/m 0,0 km/h (0 Bft) W-SW 239 0 min 0,0 UV-I 0 W/m -1,6 C -0,6 C 0,0 km/h (0 Bft)
08.01.2021 18:44 -0,6 C 0,0 C 93 % 1019,5 hPa 0,0 l/m 0,0 km/h (0 Bft) W-SW 239 0 min 0,0 UV-I 0 W/m -1,6 C -0,6 C 0,0 km/h (0 Bft)
08.01.2021 18:46 -0,6 C 0,0 C 93 % 1019,5 hPa 0,0 l/m 0,0 km/h (0 Bft) W-SW 239 0 min 0,0 UV-I 0 W/m -1,6 C -0,6 C 0,0 km/h (0 Bft)
08.01.2021 18:48 -0,6 C 0,0 C 93 % 1019,4 hPa 0,0 l/m 0,0 km/h (0 Bft) W-SW 239 0 min 0,0 UV-I 0 W/m -1,6 C -0,6 C 0,0 km/h (0 Bft)
08.01.2021 18:50 -0,6 C 0,0 C 93 % 1019,4 hPa 0,0 l/m 0,0 km/h (0 Bft) W-SW 239 0 min 0,0 UV-I 0 W/m -1,6 C -0,6 C 0,0 km/h (0 Bft)
08.01.2021 18:52 -0,6 C 0,0 C 93 % 1019,4 hPa 0,0 l/m 0,0 km/h (0 Bft) W-SW 239 0 min 0,0 UV-I 0 W/m -1,6 C -0,6 C 0,0 km/h (0 Bft)
08.01.2021 18:54 -0,6 C 0,0 C 93 % 1019,5 hPa 0,0 l/m 0,0 km/h (0 Bft) W-SW 239 0 min 0,0 UV-I 0 W/m -1,6 C -0,6 C 0,0 km/h (0 Bft)
08.01.2021 18:56 -0,6 C 0,0 C 93 % 1019,5 hPa 0,0 l/m 0,0 km/h (0 Bft) W-SW 239 0 min 0,0 UV-I 0 W/m -1,6 C -0,6 C 0,0 km/h (0 Bft)
08.01.2021 18:58 -0,7 C 0,0 C 93 % 1019,6 hPa 0,0 l/m 0,0 km/h (0 Bft) W-SW 239 0 min 0,0 UV-I 0 W/m -1,7 C -0,7 C 0,0 km/h (0 Bft)
08.01.2021 19:00 -0,6 C 0,0 C 93 % 1019,5 hPa 0,0 l/m 0,0 km/h (0 Bft) W-SW 239 0 min 0,0 UV-I 0 W/m -1,6 C -0,6 C 0,0 km/h (0 Bft)
08.01.2021 19:02 -0,7 C 0,0 C 93 % 1019,6 hPa 0,0 l/m 0,0 km/h (0 Bft) W-SW 239 0 min 0,0 UV-I 0 W/m -1,7 C -0,7 C 0,0 km/h (0 Bft)
08.01.2021 19:04 -0,6 C 0,0 C 93 % 1019,5 hPa 0,0 l/m 0,0 km/h (0 Bft) W-SW 239 0 min 0,0 UV-I 0 W/m -1,6 C -0,6 C 0,0 km/h (0 Bft)
08.01.2021 19:06 -0,6 C 0,0 C 93 % 1019,5 hPa 0,0 l/m 0,0 km/h (0 Bft) W-SW 239 0 min 0,0 UV-I 0 W/m -1,6 C -0,6 C 0,0 km/h (0 Bft)
08.01.2021 19:08 -0,7 C 0,0 C 93 % 1019,5 hPa 0,0 l/m 0,0 km/h (0 Bft) W-SW 239 0 min 0,0 UV-I 0 W/m -1,7 C -0,7 C 0,0 km/h (0 Bft)
08.01.2021 19:10 -0,7 C 0,0 C 93 % 1019,6 hPa 0,0 l/m 0,0 km/h (0 Bft) W-SW 239 0 min 0,0 UV-I 0 W/m -1,7 C -0,7 C 0,0 km/h (0 Bft)
08.01.2021 19:12 -0,6 C 0,0 C 93 % 1019,7 hPa 0,0 l/m 0,0 km/h (0 Bft) W-SW 239 0 min 0,0 UV-I 0 W/m -1,6 C -0,6 C 0,0 km/h (0 Bft)
08.01.2021 19:14 -0,6 C 0,0 C 93 % 1019,7 hPa 0,0 l/m 0,0 km/h (0 Bft) W-SW 239 0 min 0,0 UV-I 0 W/m -1,6 C -0,6 C 0,0 km/h (0 Bft)
08.01.2021 19:16 -0,6 C 0,0 C 93 % 1019,7 hPa 0,0 l/m 0,0 km/h (0 Bft) W-SW 239 0 min 0,0 UV-I 0 W/m -1,6 C -0,6 C 0,0 km/h (0 Bft)
08.01.2021 19:18 -0,6 C 0,0 C 93 % 1019,7 hPa 0,0 l/m 0,0 km/h (0 Bft) W-SW 239 0 min 0,0 UV-I 0 W/m -1,6 C -0,6 C 0,0 km/h (0 Bft)
08.01.2021 19:20 -0,6 C 0,0 C 93 % 1019,7 hPa 0,0 l/m 0,0 km/h (0 Bft) W-SW 239 0 min 0,0 UV-I 0 W/m -1,6 C -0,6 C 0,0 km/h (0 Bft)
08.01.2021 19:22 -0,6 C 0,0 C 93 % 1019,7 hPa 0,0 l/m 0,0 km/h (0 Bft) W-SW 239 0 min 0,0 UV-I 0 W/m -1,6 C -0,6 C 0,0 km/h (0 Bft)
08.01.2021 19:24 -0,7 C 0,0 C 93 % 1019,7 hPa 0,0 l/m 0,0 km/h (0 Bft) W-SW 239 0 min 0,0 UV-I 0 W/m -1,7 C -0,7 C 0,0 km/h (0 Bft)
08.01.2021 19:26 -0,7 C 0,0 C 93 % 1019,8 hPa 0,0 l/m 0,0 km/h (0 Bft) W-SW 239 0 min 0,0 UV-I 0 W/m -1,7 C -0,7 C 0,0 km/h (0 Bft)
08.01.2021 19:28 -0,7 C 0,0 C 93 % 1019,8 hPa 0,0 l/m 0,0 km/h (0 Bft) W-SW 239 0 min 0,0 UV-I 0 W/m -1,7 C -0,7 C 0,0 km/h (0 Bft)
08.01.2021 19:30 -0,7 C 0,0 C 93 % 1019,9 hPa 0,0 l/m 0,0 km/h (0 Bft) W-SW 239 0 min 0,0 UV-I 0 W/m -1,7 C -0,7 C 0,0 km/h (0 Bft)
08.01.2021 19:32 -0,7 C 0,0 C 93 % 1019,8 hPa 0,0 l/m 0,0 km/h (0 Bft) W-SW 239 0 min 0,0 UV-I 0 W/m -1,7 C -0,7 C 0,0 km/h (0 Bft)
08.01.2021 19:34 -0,7 C 0,0 C 93 % 1019,9 hPa 0,0 l/m 0,0 km/h (0 Bft) W-SW 239 0 min 0,0 UV-I 0 W/m -1,7 C -0,7 C 0,0 km/h (0 Bft)
08.01.2021 19:36 -0,7 C 0,0 C 93 % 1019,9 hPa 0,0 l/m 0,0 km/h (0 Bft) W-SW 239 0 min 0,0 UV-I 0 W/m -1,7 C -0,7 C 0,0 km/h (0 Bft)
08.01.2021 19:38 -0,7 C 0,0 C 93 % 1019,9 hPa 0,0 l/m 0,0 km/h (0 Bft) W-SW 239 0 min 0,0 UV-I 0 W/m -1,7 C -0,7 C 0,0 km/h (0 Bft)
08.01.2021 19:40 -0,7 C 0,0 C 93 % 1019,9 hPa 0,0 l/m 0,0 km/h (0 Bft) W-SW 239 0 min 0,0 UV-I 0 W/m -1,7 C -0,7 C 0,0 km/h (0 Bft)
08.01.2021 19:42 -0,7 C 0,0 C 93 % 1019,9 hPa 0,0 l/m 0,0 km/h (0 Bft) W-SW 239 0 min 0,0 UV-I 0 W/m -1,7 C -0,7 C 0,0 km/h (0 Bft)
08.01.2021 19:44 -0,7 C 0,0 C 93 % 1019,9 hPa 0,0 l/m 0,0 km/h (0 Bft) W-SW 239 0 min 0,0 UV-I 0 W/m -1,7 C -0,7 C 0,0 km/h (0 Bft)
08.01.2021 19:46 -0,7 C 0,0 C 93 % 1019,8 hPa 0,0 l/m 0,0 km/h (0 Bft) W-SW 239 0 min 0,0 UV-I 0 W/m -1,7 C -0,7 C 0,0 km/h (0 Bft)
08.01.2021 19:48 -0,7 C 0,0 C 93 % 1019,8 hPa 0,0 l/m 0,0 km/h (0 Bft) W-SW 239 0 min 0,0 UV-I 0 W/m -1,7 C -0,7 C 0,0 km/h (0 Bft)
08.01.2021 19:50 -0,7 C 0,0 C 93 % 1019,9 hPa 0,0 l/m 0,0 km/h (0 Bft) W-SW 239 0 min 0,0 UV-I 0 W/m -1,7 C -0,7 C 0,0 km/h (0 Bft)
08.01.2021 19:52 -0,7 C 0,0 C 93 % 1019,9 hPa 0,0 l/m 0,0 km/h (0 Bft) W-SW 239 0 min 0,0 UV-I 0 W/m -1,7 C -0,7 C 0,0 km/h (0 Bft)
08.01.2021 19:54 -0,7 C 0,0 C 93 % 1020,0 hPa 0,0 l/m 0,0 km/h (0 Bft) W-SW 239 0 min 0,0 UV-I 0 W/m -1,7 C -0,7 C 0,0 km/h (0 Bft)
08.01.2021 19:56 -0,7 C 0,0 C 93 % 1019,9 hPa 0,0 l/m 0,0 km/h (0 Bft) W-SW 239 0 min 0,0 UV-I 0 W/m -1,7 C -0,7 C 0,0 km/h (0 Bft)
08.01.2021 19:58 -0,7 C 0,0 C 93 % 1019,9 hPa 0,0 l/m 0,0 km/h (0 Bft) W-SW 239 0 min 0,0 UV-I 0 W/m -1,7 C -0,7 C 0,0 km/h (0 Bft)
08.01.2021 20:00 -0,7 C 0,0 C 94 % 1020,0 hPa 0,0 l/m 0,0 km/h (0 Bft) W-SW 239 0 min 0,0 UV-I 0 W/m -1,5 C -0,7 C 0,0 km/h (0 Bft)
08.01.2021 20:02 -0,7 C 0,0 C 94 % 1020,0 hPa 0,0 l/m 0,0 km/h (0 Bft) W-SW 239 0 min 0,0 UV-I 0 W/m -1,5 C -0,7 C 0,0 km/h (0 Bft)
08.01.2021 20:04 -0,7 C 0,0 C 94 % 1019,9 hPa 0,0 l/m 0,0 km/h (0 Bft) W-SW 239 0 min 0,0 UV-I 0 W/m -1,5 C -0,7 C 0,0 km/h (0 Bft)
08.01.2021 20:06 -0,7 C 0,0 C 94 % 1019,9 hPa 0,0 l/m 0,0 km/h (0 Bft) W-SW 239 0 min 0,0 UV-I 0 W/m -1,5 C -0,7 C 0,0 km/h (0 Bft)
08.01.2021 20:08 -0,7 C 0,0 C 94 % 1019,9 hPa 0,0 l/m 0,0 km/h (0 Bft) W-SW 239 0 min 0,0 UV-I 0 W/m -1,5 C -0,7 C 0,0 km/h (0 Bft)
08.01.2021 20:10 -0,7 C 0,0 C 94 % 1019,9 hPa 0,0 l/m 0,0 km/h (0 Bft) W-SW 239 0 min 0,0 UV-I 0 W/m -1,5 C -0,7 C 0,0 km/h (0 Bft)
08.01.2021 20:12 -0,7 C 0,0 C 93 % 1020,0 hPa 0,0 l/m 0,0 km/h (0 Bft) W-SW 239 0 min 0,0 UV-I 0 W/m -1,7 C -0,7 C 0,0 km/h (0 Bft)
08.01.2021 20:14 -0,7 C 0,0 C 94 % 1019,9 hPa 0,0 l/m 0,0 km/h (0 Bft) W-SW 239 0 min 0,0 UV-I 0 W/m -1,5 C -0,7 C 0,0 km/h (0 Bft)
08.01.2021 20:16 -0,7 C 0,0 C 93 % 1020,0 hPa 0,0 l/m 0,0 km/h (0 Bft) W-SW 239 0 min 0,0 UV-I 0 W/m -1,7 C -0,7 C 0,0 km/h (0 Bft)
08.01.2021 20:18 -0,7 C 0,0 C 94 % 1019,9 hPa 0,0 l/m 0,0 km/h (0 Bft) W-SW 239 0 min 0,0 UV-I 0 W/m -1,5 C -0,7 C 0,0 km/h (0 Bft)
08.01.2021 20:20 -0,7 C 0,0 C 93 % 1019,9 hPa 0,0 l/m 0,0 km/h (0 Bft) W-SW 239 0 min 0,0 UV-I 0 W/m -1,7 C -0,7 C 0,0 km/h (0 Bft)
08.01.2021 20:22 -0,7 C 0,0 C 94 % 1019,9 hPa 0,0 l/m 0,0 km/h (0 Bft) W-SW 239 0 min 0,0 UV-I 0 W/m -1,5 C -0,7 C 0,0 km/h (0 Bft)
08.01.2021 20:24 -0,7 C 0,0 C 93 % 1019,8 hPa 0,0 l/m 0,0 km/h (0 Bft) W-SW 239 0 min 0,0 UV-I 0 W/m -1,7 C -0,7 C 0,0 km/h (0 Bft)
08.01.2021 20:26 -0,7 C 0,0 C 93 % 1019,9 hPa 0,0 l/m 0,0 km/h (0 Bft) W-SW 239 0 min 0,0 UV-I 0 W/m -1,7 C -0,7 C 0,0 km/h (0 Bft)
08.01.2021 20:28 -0,7 C 0,0 C 93 % 1019,9 hPa 0,0 l/m 0,0 km/h (0 Bft) W-SW 239 0 min 0,0 UV-I 0 W/m -1,7 C -0,7 C 0,0 km/h (0 Bft)
08.01.2021 20:30 -0,7 C 0,0 C 93 % 1019,9 hPa 0,0 l/m 0,0 km/h (0 Bft) W-SW 239 0 min 0,0 UV-I 0 W/m -1,7 C -0,7 C 0,0 km/h (0 Bft)
08.01.2021 20:32 -0,7 C 0,0 C 93 % 1019,9 hPa 0,0 l/m 0,0 km/h (0 Bft) W-SW 239 0 min 0,0 UV-I 0 W/m -1,7 C -0,7 C 0,0 km/h (0 Bft)
08.01.2021 20:34 -0,7 C 0,0 C 93 % 1019,9 hPa 0,0 l/m 0,0 km/h (0 Bft) W-SW 239 0 min 0,0 UV-I 0 W/m -1,7 C -0,7 C 0,0 km/h (0 Bft)
08.01.2021 20:36 -0,7 C 0,0 C 93 % 1019,9 hPa 0,0 l/m 0,0 km/h (0 Bft) W-SW 239 0 min 0,0 UV-I 0 W/m -1,7 C -0,7 C 0,0 km/h (0 Bft)
08.01.2021 20:38 -0,7 C 0,0 C 93 % 1020,0 hPa 0,0 l/m 0,0 km/h (0 Bft) W-SW 239 0 min 0,0 UV-I 0 W/m -1,7 C -0,7 C 0,0 km/h (0 Bft)
08.01.2021 20:40 -0,7 C 0,0 C 93 % 1019,9 hPa 0,0 l/m 0,0 km/h (0 Bft) W-SW 239 0 min 0,0 UV-I 0 W/m -1,7 C -0,7 C 0,0 km/h (0 Bft)
08.01.2021 20:42 -0,8 C 0,0 C 93 % 1020,0 hPa 0,0 l/m 0,0 km/h (0 Bft) W-SW 239 0 min 0,0 UV-I 0 W/m -1,8 C -0,8 C 0,0 km/h (0 Bft)
08.01.2021 20:44 -0,8 C 0,0 C 93 % 1020,0 hPa 0,0 l/m 0,0 km/h (0 Bft) W-SW 239 0 min 0,0 UV-I 0 W/m -1,8 C -0,8 C 0,0 km/h (0 Bft)
08.01.2021 20:46 -0,8 C 0,0 C 93 % 1020,1 hPa 0,0 l/m 0,0 km/h (0 Bft) W-SW 239 0 min 0,0 UV-I 0 W/m -1,8 C -0,8 C 0,0 km/h (0 Bft)
08.01.2021 20:48 -0,8 C 0,0 C 93 % 1020,1 hPa 0,0 l/m 0,0 km/h (0 Bft) W-SW 239 0 min 0,0 UV-I 0 W/m -1,8 C -0,8 C 0,0 km/h (0 Bft)
08.01.2021 20:50 -0,8 C 0,0 C 93 % 1020,1 hPa 0,0 l/m 0,0 km/h (0 Bft) W-SW 239 0 min 0,0 UV-I 0 W/m -1,8 C -0,8 C 0,0 km/h (0 Bft)
08.01.2021 20:52 -0,8 C 0,0 C 93 % 1020,1 hPa 0,0 l/m 0,0 km/h (0 Bft) W-SW 239 0 min 0,0 UV-I 0 W/m -1,8 C -0,8 C 0,0 km/h (0 Bft)
08.01.2021 20:54 -0,8 C 0,0 C 93 % 1020,1 hPa 0,0 l/m 0,0 km/h (0 Bft) W-SW 239 0 min 0,0 UV-I 0 W/m -1,8 C -0,8 C 0,0 km/h (0 Bft)
08.01.2021 20:56 -0,8 C 0,0 C 93 % 1020,1 hPa 0,0 l/m 0,0 km/h (0 Bft) W-SW 239 0 min 0,0 UV-I 0 W/m -1,8 C -0,8 C 0,0 km/h (0 Bft)
08.01.2021 20:58 -0,7 C 0,0 C 94 % 1020,3 hPa 0,0 l/m 0,0 km/h (0 Bft) N-NW 332 0 min 0,0 UV-I 0 W/m -1,5 C -0,7 C 0,0 km/h (0 Bft)
08.01.2021 21:00 -0,7 C 0,0 C 94 % 1020,2 hPa 0,0 l/m 0,0 km/h (0 Bft) N 355 0 min 0,0 UV-I 0 W/m -1,5 C -0,7 C 0,0 km/h (0 Bft)
08.01.2021 21:02 -0,7 C 0,0 C 94 % 1020,3 hPa 0,0 l/m 0,0 km/h (0 Bft) N-NW 340 0 min 0,0 UV-I 0 W/m -1,5 C -0,7 C 0,0 km/h (0 Bft)
08.01.2021 21:04 -0,7 C 0,0 C 94 % 1020,3 hPa 0,0 l/m 0,0 km/h (0 Bft) N-NW 347 0 min 0,0 UV-I 0 W/m -1,5 C -0,7 C 0,0 km/h (0 Bft)
08.01.2021 21:06 -0,7 C 0,0 C 94 % 1020,4 hPa 0,0 l/m 0,0 km/h (0 Bft) N-NW 342 0 min 0,0 UV-I 0 W/m -1,5 C -0,7 C 0,0 km/h (0 Bft)
08.01.2021 21:08 -0,6 C 0,0 C 94 % 1020,3 hPa 0,0 l/m 0,0 km/h (0 Bft) N-NW 343 0 min 0,0 UV-I 0 W/m -1,4 C -0,6 C 0,0 km/h (0 Bft)
08.01.2021 21:10 -0,6 C 0,0 C 94 % 1020,4 hPa 0,0 l/m 0,0 km/h (0 Bft) NW 317 0 min 0,0 UV-I 0 W/m -1,4 C -0,6 C 0,0 km/h (0 Bft)
08.01.2021 21:12 -0,6 C 0,0 C 94 % 1020,4 hPa 0,0 l/m 0,0 km/h (0 Bft) N-NW 342 0 min 0,0 UV-I 0 W/m -1,4 C -0,6 C 0,0 km/h (0 Bft)
08.01.2021 21:14 -0,6 C 0,0 C 94 % 1020,4 hPa 0,0 l/m 0,0 km/h (0 Bft) N 5 0 min 0,0 UV-I 0 W/m -1,4 C -0,6 C 0,0 km/h (0 Bft)
08.01.2021 21:16 -0,6 C 0,0 C 94 % 1020,4 hPa 0,0 l/m 0,0 km/h (0 Bft) N 360 0 min 0,0 UV-I 0 W/m -1,4 C -0,6 C 0,0 km/h (0 Bft)
08.01.2021 21:18 -0,6 C 0,0 C 94 % 1020,4 hPa 0,0 l/m 0,0 km/h (0 Bft) N-NW 342 0 min 0,0 UV-I 0 W/m -1,4 C -0,6 C 0,0 km/h (0 Bft)
08.01.2021 21:20 -0,6 C 0,0 C 94 % 1020,5 hPa 0,0 l/m 0,0 km/h (0 Bft) N 355 0 min 0,0 UV-I 0 W/m -1,4 C -0,6 C 0,0 km/h (0 Bft)
08.01.2021 21:22 -0,6 C 0,0 C 94 % 1020,5 hPa 0,0 l/m 0,0 km/h (0 Bft) N-NO 24 0 min 0,0 UV-I 0 W/m -1,4 C -0,6 C 0,0 km/h (0 Bft)
08.01.2021 21:24 -0,6 C 0,0 C 94 % 1020,6 hPa 0,0 l/m 0,0 km/h (0 Bft) N 355 0 min 0,0 UV-I 0 W/m -1,4 C -0,6 C 0,0 km/h (0 Bft)
08.01.2021 21:26 -0,6 C 0,0 C 94 % 1020,6 hPa 0,0 l/m 0,0 km/h (0 Bft) N 360 0 min 0,0 UV-I 0 W/m -1,4 C -0,6 C 0,0 km/h (0 Bft)
08.01.2021 21:28 -0,6 C 0,0 C 94 % 1020,6 hPa 0,0 l/m 0,0 km/h (0 Bft) N 355 0 min 0,0 UV-I 0 W/m -1,4 C -0,6 C 0,0 km/h (0 Bft)
08.01.2021 21:30 -0,7 C 0,0 C 94 % 1020,6 hPa 0,0 l/m 0,0 km/h (0 Bft) N 11 0 min 0,0 UV-I 0 W/m -1,5 C -0,7 C 0,0 km/h (0 Bft)
08.01.2021 21:32 -0,7 C 0,0 C 94 % 1020,7 hPa 0,0 l/m 0,0 km/h (0 Bft) N-NW 346 0 min 0,0 UV-I 0 W/m -1,5 C -0,7 C 0,0 km/h (0 Bft)
08.01.2021 21:34 -0,7 C 0,0 C 94 % 1020,7 hPa 0,0 l/m 0,0 km/h (0 Bft) N 350 0 min 0,0 UV-I 0 W/m -1,5 C -0,7 C 0,0 km/h (0 Bft)
08.01.2021 21:36 -0,7 C 0,0 C 94 % 1020,7 hPa 0,0 l/m 0,0 km/h (0 Bft) N 9 0 min 0,0 UV-I 0 W/m -1,5 C -0,7 C 0,0 km/h (0 Bft)
08.01.2021 21:38 -0,7 C 0,0 C 94 % 1020,8 hPa 0,0 l/m 0,0 km/h (0 Bft) N-NW 331 0 min 0,0 UV-I 0 W/m -1,5 C -0,7 C 0,0 km/h (0 Bft)
08.01.2021 21:40 -0,7 C 0,0 C 94 % 1020,7 hPa 0,0 l/m 0,0 km/h (0 Bft) N-NW 340 0 min 0,0 UV-I 0 W/m -1,5 C -0,7 C 0,0 km/h (0 Bft)
08.01.2021 21:42 -0,7 C 0,0 C 94 % 1020,7 hPa 0,0 l/m 0,0 km/h (0 Bft) N-NW 347 0 min 0,0 UV-I 0 W/m -1,5 C -0,7 C 0,0 km/h (0 Bft)
08.01.2021 21:44 -0,7 C 0,0 C 94 % 1020,8 hPa 0,0 l/m 0,0 km/h (0 Bft) N-NW 344 0 min 0,0 UV-I 0 W/m -1,5 C -0,7 C 0,0 km/h (0 Bft)
08.01.2021 21:46 -0,7 C 0,0 C 94 % 1020,8 hPa 0,0 l/m 0,0 km/h (0 Bft) N 350 0 min 0,0 UV-I 0 W/m -1,5 C -0,7 C 0,0 km/h (0 Bft)
08.01.2021 21:48 -0,7 C 0,0 C 94 % 1020,8 hPa 0,0 l/m 0,0 km/h (0 Bft) N-NW 328 0 min 0,0 UV-I 0 W/m -1,5 C -0,7 C 0,0 km/h (0 Bft)
08.01.2021 21:50 -0,7 C 0,0 C 94 % 1020,8 hPa 0,0 l/m 0,0 km/h (0 Bft) N-NW 348 0 min 0,0 UV-I 0 W/m -1,5 C -0,7 C 0,0 km/h (0 Bft)
08.01.2021 21:52 -0,8 C 0,0 C 94 % 1020,9 hPa 0,0 l/m 0,0 km/h (0 Bft) N 350 0 min 0,0 UV-I 0 W/m -1,6 C -0,8 C 0,0 km/h (0 Bft)
08.01.2021 21:54 -0,7 C 0,0 C 94 % 1020,9 hPa 0,0 l/m 0,0 km/h (0 Bft) N 350 0 min 0,0 UV-I 0 W/m -1,5 C -0,7 C 0,0 km/h (0 Bft)
08.01.2021 21:56 -0,7 C 0,0 C 94 % 1020,8 hPa 0,0 l/m 0,0 km/h (0 Bft) N 355 0 min 0,0 UV-I 0 W/m -1,5 C -0,7 C 0,0 km/h (0 Bft)
08.01.2021 21:58 -0,8 C 0,0 C 94 % 1020,8 hPa 0,0 l/m 0,0 km/h (0 Bft) N-NW 340 0 min 0,0 UV-I 0 W/m -1,6 C -0,8 C 0,0 km/h (0 Bft)
08.01.2021 22:00 -0,7 C 0,0 C 94 % 1020,9 hPa 0,0 l/m 0,0 km/h (0 Bft) N 355 0 min 0,0 UV-I 0 W/m -1,5 C -0,7 C 0,0 km/h (0 Bft)
08.01.2021 22:02 -0,8 C 0,0 C 94 % 1020,9 hPa 0,0 l/m 0,0 km/h (0 Bft) N 349 0 min 0,0 UV-I 0 W/m -1,6 C -0,8 C 0,0 km/h (0 Bft)
08.01.2021 22:04 -0,8 C 0,0 C 94 % 1020,9 hPa 0,0 l/m 0,0 km/h (0 Bft) N 360 0 min 0,0 UV-I 0 W/m -1,6 C -0,8 C 0,0 km/h (0 Bft)
08.01.2021 22:06 -0,8 C 0,0 C 94 % 1020,9 hPa 0,0 l/m 0,0 km/h (0 Bft) N 5 0 min 0,0 UV-I 0 W/m -1,6 C -0,8 C 0,0 km/h (0 Bft)
08.01.2021 22:08 -0,8 C 0,0 C 94 % 1020,8 hPa 0,0 l/m 0,0 km/h (0 Bft) N 11 0 min 0,0 UV-I 0 W/m -1,6 C -0,8 C 0,0 km/h (0 Bft)
08.01.2021 22:10 -0,8 C 0,0 C 94 % 1020,9 hPa 0,0 l/m 0,0 km/h (0 Bft) N 5 0 min 0,0 UV-I 0 W/m -1,6 C -0,8 C 0,0 km/h (0 Bft)
08.01.2021 22:12 -0,8 C 0,0 C 94 % 1020,9 hPa 0,0 l/m 0,0 km/h (0 Bft) N-NO 12 0 min 0,0 UV-I 0 W/m -1,6 C -0,8 C 0,0 km/h (0 Bft)
08.01.2021 22:14 -0,8 C 0,0 C 94 % 1021,1 hPa 0,0 l/m 0,0 km/h (0 Bft) N-NW 346 0 min 0,0 UV-I 0 W/m -1,6 C -0,8 C 0,0 km/h (0 Bft)
08.01.2021 22:16 -0,9 C 0,0 C 94 % 1021,0 hPa 0,0 l/m 0,0 km/h (0 Bft) N-NO 15 0 min 0,0 UV-I 0 W/m -1,7 C -0,9 C 0,0 km/h (0 Bft)
08.01.2021 22:18 -0,9 C 0,0 C 94 % 1020,9 hPa 0,0 l/m 0,0 km/h (0 Bft) N-NW 338 0 min 0,0 UV-I 0 W/m -1,7 C -0,9 C 0,0 km/h (0 Bft)
08.01.2021 22:20 -0,9 C 0,0 C 94 % 1020,9 hPa 0,0 l/m 0,0 km/h (0 Bft) NW 316 0 min 0,0 UV-I 0 W/m -1,7 C -0,9 C 0,0 km/h (0 Bft)
08.01.2021 22:22 -0,9 C 0,0 C 94 % 1021,0 hPa 0,0 l/m 0,0 km/h (0 Bft) N 355 0 min 0,0 UV-I 0 W/m -1,7 C -0,9 C 0,0 km/h (0 Bft)
08.01.2021 22:24 -1,1 C 0,0 C 94 % 1021,0 hPa 0,0 l/m 0,0 km/h (0 Bft) N 355 0 min 0,0 UV-I 0 W/m -1,9 C -1,1 C 0,0 km/h (0 Bft)
08.01.2021 22:26 -1,1 C 0,0 C 93 % 1020,9 hPa 0,0 l/m 0,0 km/h (0 Bft) N 351 0 min 0,0 UV-I 0 W/m -2,1 C -1,1 C 0,0 km/h (0 Bft)
08.01.2021 22:28 -1,2 C 0,0 C 93 % 1021,0 hPa 0,0 l/m 0,0 km/h (0 Bft) N 355 0 min 0,0 UV-I 0 W/m -2,2 C -1,2 C 0,0 km/h (0 Bft)
08.01.2021 22:30 -1,3 C 0,0 C 93 % 1021,0 hPa 0,0 l/m 0,0 km/h (0 Bft) N 355 0 min 0,0 UV-I 0 W/m -2,3 C -1,3 C 0,0 km/h (0 Bft)
08.01.2021 22:32 -1,3 C 0,0 C 93 % 1021,0 hPa 0,0 l/m 0,0 km/h (0 Bft) N 360 0 min 0,0 UV-I 0 W/m -2,3 C -1,3 C 0,0 km/h (0 Bft)
08.01.2021 22:34 -1,4 C 0,0 C 93 % 1021,1 hPa 0,0 l/m 0,0 km/h (0 Bft) N-NW 345 0 min 0,0 UV-I 0 W/m -2,4 C -1,4 C 0,0 km/h (0 Bft)
08.01.2021 22:36 -1,5 C 0,0 C 93 % 1021,1 hPa 0,0 l/m 0,0 km/h (0 Bft) N 351 0 min 0,0 UV-I 0 W/m -2,5 C -1,5 C 0,0 km/h (0 Bft)
08.01.2021 22:38 -1,6 C -0,6 C 93 % 1021,1 hPa 0,0 l/m 0,0 km/h (0 Bft) N 355 0 min 0,0 UV-I 0 W/m -2,6 C -1,6 C 0,0 km/h (0 Bft)
08.01.2021 22:40 -1,7 C -0,6 C 93 % 1021,1 hPa 0,0 l/m 0,0 km/h (0 Bft) N 360 0 min 0,0 UV-I 0 W/m -2,7 C -1,7 C 0,0 km/h (0 Bft)
08.01.2021 22:42 -1,8 C -0,6 C 93 % 1021,3 hPa 0,0 l/m 0,0 km/h (0 Bft) N 5 0 min 0,0 UV-I 0 W/m -2,8 C -1,8 C 0,0 km/h (0 Bft)
08.01.2021 22:44 -1,8 C -0,6 C 93 % 1021,1 hPa 0,0 l/m 0,0 km/h (0 Bft) N 10 0 min 0,0 UV-I 0 W/m -2,8 C -1,8 C 0,0 km/h (0 Bft)
08.01.2021 22:46 -1,9 C 0,0 C 92 % 1021,2 hPa 0,0 l/m 0,0 km/h (0 Bft) N-NO 14 0 min 0,0 UV-I 0 W/m -3,0 C -1,9 C 0,0 km/h (0 Bft)
08.01.2021 22:48 -1,9 C 0,0 C 93 % 1021,2 hPa 0,0 l/m 0,0 km/h (0 Bft) N 11 0 min 0,0 UV-I 0 W/m -2,9 C -1,9 C 0,0 km/h (0 Bft)
08.01.2021 22:50 -2,0 C 0,0 C 93 % 1021,1 hPa 0,0 l/m 0,0 km/h (0 Bft) N 9 0 min 0,0 UV-I 0 W/m -3,0 C -2,0 C 0,0 km/h (0 Bft)
08.01.2021 22:52 -2,0 C -0,6 C 93 % 1021,1 hPa 0,0 l/m 0,0 km/h (0 Bft) N 351 0 min 0,0 UV-I 0 W/m -3,0 C -2,0 C 0,0 km/h (0 Bft)
08.01.2021 22:54 -2,1 C -0,6 C 93 % 1021,2 hPa 0,0 l/m 0,0 km/h (0 Bft) N 5 0 min 0,0 UV-I 0 W/m -3,1 C -2,1 C 0,0 km/h (0 Bft)
08.01.2021 22:56 -2,1 C -0,6 C 93 % 1021,2 hPa 0,0 l/m 0,0 km/h (0 Bft) N 5 0 min 0,0 UV-I 0 W/m -3,1 C -2,1 C 0,0 km/h (0 Bft)
08.01.2021 22:58 -2,2 C -0,6 C 93 % 1021,1 hPa 0,0 l/m 0,0 km/h (0 Bft) N 360 0 min 0,0 UV-I 0 W/m -3,2 C -2,2 C 0,0 km/h (0 Bft)
08.01.2021 23:00 -2,2 C -0,6 C 92 % 1021,2 hPa 0,0 l/m 0,0 km/h (0 Bft) N 355 0 min 0,0 UV-I 0 W/m -3,3 C -2,2 C 0,0 km/h (0 Bft)
08.01.2021 23:02 -2,2 C -0,6 C 92 % 1021,1 hPa 0,0 l/m 0,0 km/h (0 Bft) N-NW 348 0 min 0,0 UV-I 0 W/m -3,3 C -2,2 C 0,0 km/h (0 Bft)
08.01.2021 23:04 -2,3 C -0,6 C 92 % 1021,1 hPa 0,0 l/m 0,0 km/h (0 Bft) N 5 0 min 0,0 UV-I 0 W/m -3,4 C -2,3 C 0,0 km/h (0 Bft)
08.01.2021 23:06 -2,3 C -0,6 C 92 % 1021,1 hPa 0,0 l/m 0,0 km/h (0 Bft) N 360 0 min 0,0 UV-I 0 W/m -3,4 C -2,3 C 0,0 km/h (0 Bft)
08.01.2021 23:08 -2,3 C -0,6 C 92 % 1021,2 hPa 0,0 l/m 0,0 km/h (0 Bft) N 10 0 min 0,0 UV-I 0 W/m -3,4 C -2,3 C 0,0 km/h (0 Bft)
08.01.2021 23:10 -2,4 C -0,6 C 92 % 1021,2 hPa 0,0 l/m 0,0 km/h (0 Bft) N 360 0 min 0,0 UV-I 0 W/m -3,5 C -2,4 C 0,0 km/h (0 Bft)
08.01.2021 23:12 -2,4 C -0,6 C 92 % 1021,2 hPa 0,0 l/m 0,0 km/h (0 Bft) N-NO 13 0 min 0,0 UV-I 0 W/m -3,5 C -2,4 C 0,0 km/h (0 Bft)
08.01.2021 23:14 -2,5 C -0,6 C 92 % 1021,3 hPa 0,0 l/m 0,0 km/h (0 Bft) N 5 0 min 0,0 UV-I 0 W/m -3,6 C -2,5 C 0,0 km/h (0 Bft)
08.01.2021 23:16 -2,6 C -0,6 C 92 % 1021,2 hPa 0,0 l/m 0,0 km/h (0 Bft) N 5 0 min 0,0 UV-I 0 W/m -3,7 C -2,6 C 0,0 km/h (0 Bft)
08.01.2021 23:18 -2,6 C -0,6 C 92 % 1021,4 hPa 0,0 l/m 0,0 km/h (0 Bft) N 5 0 min 0,0 UV-I 0 W/m -3,7 C -2,6 C 0,0 km/h (0 Bft)
08.01.2021 23:20 -2,6 C -0,6 C 92 % 1021,2 hPa 0,0 l/m 0,0 km/h (0 Bft) N 11 0 min 0,0 UV-I 0 W/m -3,7 C -2,6 C 0,0 km/h (0 Bft)
08.01.2021 23:22 -2,7 C -0,6 C 92 % 1021,4 hPa 0,0 l/m 0,0 km/h (0 Bft) N 355 0 min 0,0 UV-I 0 W/m -3,8 C -2,7 C 0,0 km/h (0 Bft)
08.01.2021 23:24 -2,7 C -0,6 C 92 % 1021,4 hPa 0,0 l/m 0,0 km/h (0 Bft) N 360 0 min 0,0 UV-I 0 W/m -3,8 C -2,7 C 0,0 km/h (0 Bft)
08.01.2021 23:26 -2,7 C -0,6 C 92 % 1021,4 hPa 0,0 l/m 0,0 km/h (0 Bft) N 350 0 min 0,0 UV-I 0 W/m -3,8 C -2,7 C 0,0 km/h (0 Bft)
08.01.2021 23:28 -2,8 C -0,6 C 92 % 1021,5 hPa 0,0 l/m 0,0 km/h (0 Bft) N 355 0 min 0,0 UV-I 0 W/m -3,9 C -2,8 C 0,0 km/h (0 Bft)
08.01.2021 23:30 -2,8 C -0,6 C 92 % 1021,5 hPa 0,0 l/m 0,0 km/h (0 Bft) N 350 0 min 0,0 UV-I 0 W/m -3,9 C -2,8 C 0,0 km/h (0 Bft)
08.01.2021 23:32 -2,9 C -0,6 C 92 % 1021,5 hPa 0,0 l/m 0,0 km/h (0 Bft) N 350 0 min 0,0 UV-I 0 W/m -4,0 C -2,9 C 0,0 km/h (0 Bft)
08.01.2021 23:34 -2,9 C -0,6 C 92 % 1021,6 hPa 0,0 l/m 0,0 km/h (0 Bft) N-NW 344 0 min 0,0 UV-I 0 W/m -4,0 C -2,9 C 0,0 km/h (0 Bft)
08.01.2021 23:36 -2,9 C -0,6 C 92 % 1021,6 hPa 0,0 l/m 0,0 km/h (0 Bft) N-NW 342 0 min 0,0 UV-I 0 W/m -4,0 C -2,9 C 0,0 km/h (0 Bft)
08.01.2021 23:38 -3,0 C -0,6 C 92 % 1021,6 hPa 0,0 l/m 0,0 km/h (0 Bft) N-NW 346 0 min 0,0 UV-I 0 W/m -4,1 C -3,0 C 0,0 km/h (0 Bft)
08.01.2021 23:40 -3,0 C -0,6 C 92 % 1021,7 hPa 0,0 l/m 0,0 km/h (0 Bft) N 350 0 min 0,0 UV-I 0 W/m -4,1 C -3,0 C 0,0 km/h (0 Bft)
08.01.2021 23:42 -3,1 C -0,6 C 92 % 1021,7 hPa 0,0 l/m 0,0 km/h (0 Bft) N-NW 331 0 min 0,0 UV-I 0 W/m -4,2 C -3,1 C 0,0 km/h (0 Bft)
08.01.2021 23:43 -3,0 C -0,6 C 92 % 1021,7 hPa 0,0 l/m 0,0 km/h (0 Bft) N 0 0 min 0,0 UV-I 0 W/m -4,1 C -3,0 C 0,0 km/h (0 Bft)
08.01.2021 23:44 -3,0 C -0,6 C 92 % 1021,7 hPa 0,0 l/m 0,0 km/h (0 Bft) N 0 0 min 0,0 UV-I 0 W/m -4,1 C -3,0 C 0,0 km/h (0 Bft)
08.01.2021 23:46 -3,1 C -0,6 C 92 % 1021,8 hPa 0,0 l/m 0,0 km/h (0 Bft) N-NW 341 0 min 0,0 UV-I 0 W/m -4,2 C -3,1 C 0,0 km/h (0 Bft)
08.01.2021 23:48 -3,1 C -0,6 C 92 % 1021,7 hPa 0,0 l/m 0,0 km/h (0 Bft) N 355 0 min 0,0 UV-I 0 W/m -4,2 C -3,1 C 0,0 km/h (0 Bft)
08.01.2021 23:50 -3,1 C -0,6 C 93 % 1021,7 hPa 0,0 l/m 0,0 km/h (0 Bft) N 355 0 min 0,0 UV-I 0 W/m -4,1 C -3,1 C 0,0 km/h (0 Bft)
08.01.2021 23:52 -3,1 C -0,6 C 92 % 1021,7 hPa 0,0 l/m 0,0 km/h (0 Bft) N 11 0 min 0,0 UV-I 0 W/m -4,2 C -3,1 C 0,0 km/h (0 Bft)
08.01.2021 23:54 -3,0 C -0,6 C 93 % 1021,7 hPa 0,0 l/m 0,0 km/h (0 Bft) N-NO 17 0 min 0,0 UV-I 0 W/m -4,0 C -3,0 C 0,0 km/h (0 Bft)
08.01.2021 23:56 -3,0 C -0,6 C 93 % 1021,8 hPa 0,0 l/m 0,0 km/h (0 Bft) N 11 0 min 0,0 UV-I 0 W/m -4,0 C -3,0 C 0,0 km/h (0 Bft)
08.01.2021 23:58 -3,0 C -0,6 C 93 % 1021,7 hPa 0,0 l/m 0,0 km/h (0 Bft) N-NO 26 0 min 0,0 UV-I 0 W/m -4,0 C -3,0 C 0,0 km/h (0 Bft)
08.01.2021 23:59 -2,9 C -0,6 C 93 % 1021,7 hPa 0,0 l/m 0,0 km/h (0 Bft) N 0 0 min 0,0 UV-I 0 W/m -3,9 C -2,9 C 0,0 km/h (0 Bft)
_ Min-Zeit 23:42 00:00 13:32 01:55 - 13:20 - - - - - 23:42 06:07 13:20
Minimum _ -3,1 C -1,1 C 89 % 1014,1 hPa - 0,0 km/h (0 Bft) - - - - - -4,2 C -10,5 C 0,0 km/h (0 Bft)
_ Max-Zeit 13:18 10:24 02:16 23:46 04:31 06:07 - - 00:00 13:00 14:16 13:10 13:10 06:07
Maximum _ 1,2 C 0,0 C 95 % 1021,8 hPa 0,2 l/m 17,7 km/h
SW (3 Bft)
- - 0 min 0,9 UV-I 111 W/m -0,4 C 1,1 C 29,0 km/h
W (5 Bft)
Durchschnitt _ -0,8 C -0,5 C 93 % 1017,0 hPa #1,2 l/m 4,1 km/h (1 Bft) SW - #0 min. 0,7 UV-I 40 W/m -1,8 C -1,7 C 6,6 km/h (2 Bft)